Time,TemperatureF,DewpointF,PressureIn,WindDirection,WindDirectionDegrees,WindSpeedMPH,WindSpeedGustMPH,Humidity,HourlyPrecipIn,Conditions,Clouds,dailyrainin,SoftwareType,DateUTC
2013-03-06 00:00:00,23.7,-3.9,0.00,ESE,116,0.0,0.0,29,0.00,,---,0.00,VWS V14.00,2013-03-06 07:00:00,
2013-03-06 00:01:00,24.1,-3.6,0.00,SE,138,0.0,0.0,29,0.00,,---,0.00,VWS V14.00,2013-03-06 07:01:00,
2013-03-06 00:02:00,24.1,-3.6,0.00,South,174,0.0,3.6,29,0.00,,---,0.00,VWS V14.00,2013-03-06 07:02:00,
2013-03-06 00:03:00,23.5,-4.0,0.00,ENE,67,0.0,3.6,29,0.00,,---,0.00,VWS V14.00,2013-03-06 07:03:00,
2013-03-06 00:04:00,23.5,-4.0,0.00,SE,128,2.2,2.7,29,0.00,,---,0.00,VWS V14.00,2013-03-06 07:04:00,
2013-03-06 00:05:00,23.5,-4.0,0.00,SE,129,0.0,2.2,29,0.00,,---,0.00,VWS V14.00,2013-03-06 07:05:00,
2013-03-06 00:06:00,24.1,-3.6,0.00,South,185,0.0,0.0,29,0.00,,---,0.00,VWS V14.00,2013-03-06 07:06:00,
2013-03-06 00:07:00,24.1,-3.6,0.00,South,186,0.0,0.0,29,0.00,,---,0.00,VWS V14.00,2013-03-06 07:07:00,
2013-03-06 00:08:00,23.5,-4.0,0.00,ESE,121,0.0,0.0,29,0.00,,---,0.00,VWS V14.00,2013-03-06 07:08:00,
2013-03-06 00:09:00,23.5,-4.0,0.00,ESE,122,0.0,0.0,29,0.00,,---,0.00,VWS V14.00,2013-03-06 07:09:00,
2013-03-06 00:10:00,23.5,-4.0,0.00,East,91,3.6,3.6,29,0.00,,---,0.00,VWS V14.00,2013-03-06 07:10:00,
2013-03-06 00:11:00,23.5,-4.0,0.00,East,91,0.0,3.6,29,0.00,,---,0.00,VWS V14.00,2013-03-06 07:11:00,
2013-03-06 00:12:00,23.9,-3.7,0.00,ENE,75,3.6,3.6,29,0.00,,---,0.00,VWS V14.00,2013-03-06 07:12:00,
2013-03-06 00:13:00,23.5,-4.0,0.00,East,91,0.0,0.0,29,0.00,,---,0.00,VWS V14.00,2013-03-06 07:13:00,
2013-03-06 00:14:00,23.5,-4.0,0.00,East,91,0.0,0.0,29,0.00,,---,0.00,VWS V14.00,2013-03-06 07:14:00,
2013-03-06 00:15:00,23.5,-4.0,0.00,East,91,0.0,0.0,29,0.00,,---,0.00,VWS V14.00,2013-03-06 07:15:00,
2013-03-06 00:16:00,23.5,-4.0,0.00,East,90,3.6,3.6,29,0.00,,---,0.00,VWS V14.00,2013-03-06 07:16:00,
2013-03-06 00:17:00,23.9,-3.7,0.00,ESE,118,0.0,0.0,29,0.00,,---,0.00,VWS V14.00,2013-03-06 07:17:00,
2013-03-06 00:18:00,23.5,-4.0,0.00,ESE,109,0.0,3.1,29,0.00,,---,0.00,VWS V14.00,2013-03-06 07:18:00,
2013-03-06 00:19:00,23.5,-4.0,0.00,ESE,105,0.0,0.0,29,0.00,,---,0.00,VWS V14.00,2013-03-06 07:19:00,
2013-03-06 00:20:00,23.4,-4.2,0.00,ESE,105,0.0,0.0,29,0.00,,---,0.00,VWS V14.00,2013-03-06 07:20:00,
2013-03-06 00:21:00,23.4,-4.2,0.00,ESE,105,0.0,0.0,29,0.00,,---,0.00,VWS V14.00,2013-03-06 07:21:00,
2013-03-06 00:22:00,23.9,-3.7,0.00,East,79,0.0,2.2,29,0.00,,---,0.00,VWS V14.00,2013-03-06 07:22:00,
2013-03-06 00:23:00,23.9,-3.7,0.00,SSW,201,0.0,2.2,29,0.00,,---,0.00,VWS V14.00,2013-03-06 07:23:00,
2013-03-06 00:24:00,23.4,-4.2,0.00,ESE,108,0.0,0.0,29,0.00,,---,0.00,VWS V14.00,2013-03-06 07:24:00,
2013-03-06 00:25:00,23.4,-4.2,0.00,ESE,108,0.0,0.0,29,0.00,,---,0.00,VWS V14.00,2013-03-06 07:25:00,
2013-03-06 00:26:00,23.4,-4.2,0.00,East,79,0.0,0.0,29,0.00,,---,0.00,VWS V14.00,2013-03-06 07:26:00,
2013-03-06 00:27:00,23.9,-3.7,0.00,ESE,111,0.0,0.0,29,0.00,,---,0.00,VWS V14.00,2013-03-06 07:27:00,
2013-03-06 00:28:00,23.9,-3.7,0.00,SE,141,2.7,2.7,29,0.00,,---,0.00,VWS V14.00,2013-03-06 07:28:00,
2013-03-06 00:29:00,23.4,-4.2,0.00,East,80,0.0,3.1,29,0.00,,---,0.00,VWS V14.00,2013-03-06 07:29:00,
2013-03-06 00:30:00,23.2,-4.3,0.00,ESE,109,3.1,4.0,29,0.00,,---,0.00,VWS V14.00,2013-03-06 07:30:00,
2013-03-06 00:31:00,23.2,-4.3,0.00,ESE,108,0.0,3.1,29,0.00,,---,0.00,VWS V14.00,2013-03-06 07:31:00,
2013-03-06 00:32:00,23.9,-3.7,0.00,SE,124,0.0,0.0,29,0.00,,---,0.00,VWS V14.00,2013-03-06 07:32:00,
2013-03-06 00:33:00,23.9,-3.7,0.00,ESE,121,2.7,2.7,29,0.00,,---,0.00,VWS V14.00,2013-03-06 07:33:00,
2013-03-06 00:34:00,23.2,-4.3,0.00,ESE,117,0.0,0.0,29,0.00,,---,0.00,VWS V14.00,2013-03-06 07:34:00,
2013-03-06 00:35:00,23.2,-4.3,0.00,ESE,112,0.0,0.0,29,0.00,,---,0.00,VWS V14.00,2013-03-06 07:35:00,
2013-03-06 00:36:00,23.2,-4.3,0.00,ESE,112,0.0,0.0,29,0.00,,---,0.00,VWS V14.00,2013-03-06 07:36:00,
2013-03-06 00:37:00,23.7,-3.9,0.00,SE,131,0.0,0.0,29,0.00,,---,0.00,VWS V14.00,2013-03-06 07:37:00,
2013-03-06 00:38:00,23.7,-3.9,0.00,SE,132,0.0,0.0,29,0.00,,---,0.00,VWS V14.00,2013-03-06 07:38:00,
2013-03-06 00:39:00,23.2,-4.3,0.00,ESE,111,0.0,0.0,29,0.00,,---,0.00,VWS V14.00,2013-03-06 07:39:00,
2013-03-06 00:40:00,23.2,-4.3,0.00,ESE,106,0.0,0.0,29,0.00,,---,0.00,VWS V14.00,2013-03-06 07:40:00,
2013-03-06 00:41:00,23.2,-4.3,0.00,ESE,111,0.0,0.0,29,0.00,,---,0.00,VWS V14.00,2013-03-06 07:41:00,
2013-03-06 00:42:00,23.7,-3.9,0.00,SSE,151,0.0,3.1,29,0.00,,---,0.00,VWS V14.00,2013-03-06 07:42:00,
2013-03-06 00:43:00,23.7,-3.9,0.00,SSE,155,0.0,0.0,29,0.00,,---,0.00,VWS V14.00,2013-03-06 07:43:00,
2013-03-06 00:44:00,23.0,-3.8,0.00,East,81,0.0,0.0,30,0.00,,---,0.00,VWS V14.00,2013-03-06 07:44:00,
2013-03-06 00:45:00,23.0,-3.8,0.00,SE,141,0.0,3.6,30,0.00,,---,0.00,VWS V14.00,2013-03-06 07:45:00,
2013-03-06 00:46:00,23.0,-3.8,0.00,SE,141,0.0,0.0,30,0.00,,---,0.00,VWS V14.00,2013-03-06 07:46:00,
2013-03-06 00:47:00,23.7,-3.9,0.00,ESE,114,2.2,2.2,29,0.00,,---,0.00,VWS V14.00,2013-03-06 07:47:00,
2013-03-06 00:48:00,23.7,-3.9,0.00,ESE,115,0.0,3.1,29,0.00,,---,0.00,VWS V14.00,2013-03-06 07:48:00,
2013-03-06 00:49:00,23.0,-3.8,0.00,SE,127,3.6,3.6,30,0.00,,---,0.00,VWS V14.00,2013-03-06 07:49:00,
2013-03-06 00:50:00,23.0,-3.8,0.00,ESE,115,0.0,3.6,30,0.00,,---,0.00,VWS V14.00,2013-03-06 07:50:00,
2013-03-06 00:51:00,23.0,-3.8,0.00,ESE,116,0.0,0.0,30,0.00,,---,0.00,VWS V14.00,2013-03-06 07:51:00,
2013-03-06 00:52:00,23.5,-4.0,0.00,ENE,68,0.0,0.0,29,0.00,,---,0.00,VWS V14.00,2013-03-06 07:52:00,
2013-03-06 00:53:00,23.5,-4.0,0.00,East,100,0.0,2.7,29,0.00,,---,0.00,VWS V14.00,2013-03-06 07:53:00,
2013-03-06 00:54:00,23.0,-3.8,0.00,East,93,0.0,3.6,30,0.00,,---,0.00,VWS V14.00,2013-03-06 07:54:00,
2013-03-06 00:55:00,22.8,-4.0,0.00,ENE,67,2.2,2.2,30,0.00,,---,0.00,VWS V14.00,2013-03-06 07:55:00,
2013-03-06 00:56:00,22.8,-4.0,0.00,ENE,68,0.0,2.2,30,0.00,,---,0.00,VWS V14.00,2013-03-06 07:56:00,
2013-03-06 00:57:00,23.5,-4.0,0.00,ESE,121,0.0,0.0,29,0.00,,---,0.00,VWS V14.00,2013-03-06 07:57:00,
2013-03-06 00:58:00,23.5,-4.0,0.00,ESE,122,0.0,0.0,29,0.00,,---,0.00,VWS V14.00,2013-03-06 07:58:00,
2013-03-06 00:59:00,22.8,-4.0,0.00,ENE,68,0.0,0.0,30,0.00,,---,0.00,VWS V14.00,2013-03-06 07:59:00,
2013-03-06 01:00:00,22.8,-4.0,0.00,ENE,67,0.0,0.0,30,0.00,,---,0.00,VWS V14.00,2013-03-06 08:00:00,
2013-03-06 01:01:00,22.8,-4.0,0.00,ENE,75,0.0,2.2,30,0.00,,---,0.00,VWS V14.00,2013-03-06 08:01:00,
2013-03-06 01:02:00,23.5,-4.0,0.00,East,91,0.0,0.0,29,0.00,,---,0.00,VWS V14.00,2013-03-06 08:02:00,
2013-03-06 01:03:00,23.5,-4.0,0.00,East,91,0.0,0.0,29,0.00,,---,0.00,VWS V14.00,2013-03-06 08:03:00,
2013-03-06 01:04:00,22.8,-4.0,0.00,East,94,2.2,2.2,30,0.00,,---,0.00,VWS V14.00,2013-03-06 08:04:00,
2013-03-06 01:05:00,22.8,-4.0,0.00,East,94,0.0,2.2,30,0.00,,---,0.00,VWS V14.00,2013-03-06 08:05:00,
2013-03-06 01:06:00,22.8,-4.0,0.00,East,95,0.0,0.0,30,0.00,,---,0.00,VWS V14.00,2013-03-06 08:06:00,
2013-03-06 01:07:00,22.8,-4.0,0.00,East,95,0.0,0.0,30,0.00,,---,0.00,VWS V14.00,2013-03-06 08:07:00,
2013-03-06 01:08:00,23.5,-4.0,0.00,ESE,108,0.0,0.0,29,0.00,,---,0.00,VWS V14.00,2013-03-06 08:08:00,
2013-03-06 01:09:00,22.8,-4.0,0.00,East,96,0.0,0.0,30,0.00,,---,0.00,VWS V14.00,2013-03-06 08:09:00,
2013-03-06 01:10:00,22.8,-4.0,0.00,East,96,0.0,0.0,30,0.00,,---,0.00,VWS V14.00,2013-03-06 08:10:00,
2013-03-06 01:11:00,22.8,-4.0,0.00,East,96,0.0,0.0,30,0.00,,---,0.00,VWS V14.00,2013-03-06 08:11:00,
2013-03-06 01:12:00,22.8,-4.0,0.00,East,85,0.0,2.2,30,0.00,,---,0.00,VWS V14.00,2013-03-06 08:12:00,
2013-03-06 01:13:00,23.4,-4.2,0.00,ESE,108,0.0,0.0,29,0.00,,---,0.00,VWS V14.00,2013-03-06 08:13:00,
2013-03-06 01:14:00,23.4,-4.2,0.00,ESE,108,0.0,0.0,29,0.00,,---,0.00,VWS V14.00,2013-03-06 08:14:00,
2013-03-06 01:15:00,22.6,-4.1,0.00,ESE,119,0.0,2.7,30,0.00,,---,0.00,VWS V14.00,2013-03-06 08:15:00,
2013-03-06 01:16:00,22.6,-4.1,0.00,ESE,123,0.0,0.0,30,0.00,,---,0.00,VWS V14.00,2013-03-06 08:16:00,
2013-03-06 01:17:00,22.6,-4.1,0.00,ESE,123,0.0,0.0,30,0.00,,---,0.00,VWS V14.00,2013-03-06 08:17:00,
2013-03-06 01:18:00,23.4,-4.2,0.00,ENE,78,0.0,3.1,29,0.00,,---,0.00,VWS V14.00,2013-03-06 08:18:00,
2013-03-06 01:19:00,23.2,-4.3,0.00,ENE,62,4.0,4.0,29,0.00,,---,0.00,VWS V14.00,2013-03-06 08:19:00,
2013-03-06 01:20:00,22.6,-4.1,0.00,East,91,0.0,2.7,30,0.00,,---,0.00,VWS V14.00,2013-03-06 08:20:00,
2013-03-06 01:21:00,22.6,-4.1,0.00,East,87,0.0,0.0,30,0.00,,---,0.00,VWS V14.00,2013-03-06 08:21:00,
2013-03-06 01:22:00,22.6,-4.1,0.00,East,87,0.0,0.0,30,0.00,,---,0.00,VWS V14.00,2013-03-06 08:22:00,
2013-03-06 01:23:00,23.2,-4.3,0.00,ESE,117,0.0,0.0,29,0.00,,---,0.00,VWS V14.00,2013-03-06 08:23:00,
2013-03-06 01:24:00,23.2,-4.3,0.00,ESE,112,0.0,0.0,29,0.00,,---,0.00,VWS V14.00,2013-03-06 08:24:00,
2013-03-06 01:25:00,22.6,-4.1,0.00,East,90,0.0,0.0,30,0.00,,---,0.00,VWS V14.00,2013-03-06 08:25:00,
2013-03-06 01:26:00,22.6,-4.1,0.00,East,90,0.0,0.0,30,0.00,,---,0.00,VWS V14.00,2013-03-06 08:26:00,
2013-03-06 01:27:00,22.6,-4.1,0.00,East,93,0.0,0.0,30,0.00,,---,0.00,VWS V14.00,2013-03-06 08:27:00,
2013-03-06 01:28:00,23.2,-4.3,0.00,ESE,106,0.0,0.0,29,0.00,,---,0.00,VWS V14.00,2013-03-06 08:28:00,
2013-03-06 01:29:00,23.2,-4.3,0.00,ESE,110,0.0,0.0,29,0.00,,---,0.00,VWS V14.00,2013-03-06 08:29:00,
2013-03-06 01:30:00,22.6,-4.1,0.00,SSW,195,0.0,0.0,30,0.00,,---,0.00,VWS V14.00,2013-03-06 08:30:00,
2013-03-06 01:31:00,22.6,-4.1,0.00,SSW,196,0.0,0.0,30,0.00,,---,0.00,VWS V14.00,2013-03-06 08:31:00,
2013-03-06 01:32:00,22.6,-4.1,0.00,SSW,196,0.0,0.0,30,0.00,,---,0.00,VWS V14.00,2013-03-06 08:32:00,
2013-03-06 01:33:00,23.0,-3.8,0.00,ENE,69,0.0,0.0,30,0.00,,---,0.00,VWS V14.00,2013-03-06 08:33:00,
2013-03-06 01:34:00,23.0,-3.8,0.00,ESE,110,3.6,3.6,30,0.00,,---,0.00,VWS V14.00,2013-03-06 08:34:00,
2013-03-06 01:35:00,22.6,-4.1,0.00,South,178,0.0,0.0,30,0.00,,---,0.00,VWS V14.00,2013-03-06 08:35:00,
2013-03-06 01:36:00,22.8,-4.0,0.00,ESE,123,0.0,0.0,30,0.00,,---,0.00,VWS V14.00,2013-03-06 08:36:00,
2013-03-06 01:37:00,22.8,-4.0,0.00,SE,126,0.0,0.0,30,0.00,,---,0.00,VWS V14.00,2013-03-06 08:37:00,
2013-03-06 01:38:00,23.0,-3.8,0.00,East,90,0.0,0.0,30,0.00,,---,0.00,VWS V14.00,2013-03-06 08:38:00,
2013-03-06 01:39:00,23.0,-3.8,0.00,ESE,112,2.2,3.6,30,0.00,,---,0.00,VWS V14.00,2013-03-06 08:39:00,
2013-03-06 01:40:00,22.8,-4.0,0.00,SSE,160,2.7,2.7,30,0.00,,---,0.00,VWS V14.00,2013-03-06 08:40:00,
2013-03-06 01:41:00,22.8,-4.0,0.00,South,172,0.0,2.7,30,0.00,,---,0.00,VWS V14.00,2013-03-06 08:41:00,
2013-03-06 01:42:00,22.8,-4.0,0.00,South,172,0.0,0.0,30,0.00,,---,0.00,VWS V14.00,2013-03-06 08:42:00,
2013-03-06 01:43:00,23.0,-3.8,0.00,East,93,0.0,3.6,30,0.00,,---,0.00,VWS V14.00,2013-03-06 08:43:00,
2013-03-06 01:44:00,23.0,-3.8,0.00,ENE,67,0.0,0.0,30,0.00,,---,0.00,VWS V14.00,2013-03-06 08:44:00,
2013-03-06 01:45:00,22.8,-6.1,0.00,SE,129,0.0,0.0,27,0.00,,---,0.00,VWS V14.00,2013-03-06 08:45:00,
2013-03-06 01:46:00,22.8,-6.1,0.00,SE,134,0.0,0.0,27,0.00,,---,0.00,VWS V14.00,2013-03-06 08:46:00,
2013-03-06 01:47:00,22.8,-6.1,0.00,SSE,165,0.0,0.0,27,0.00,,---,0.00,VWS V14.00,2013-03-06 08:47:00,
2013-03-06 01:48:00,22.8,-4.0,0.00,ENE,68,0.0,0.0,30,0.00,,---,0.00,VWS V14.00,2013-03-06 08:48:00,
2013-03-06 01:49:00,22.8,-4.0,0.00,ENE,68,0.0,0.0,30,0.00,,---,0.00,VWS V14.00,2013-03-06 08:49:00,
2013-03-06 01:50:00,23.0,-6.0,0.00,SE,124,0.0,2.7,27,0.00,,---,0.00,VWS V14.00,2013-03-06 08:50:00,
2013-03-06 01:51:00,23.0,-6.0,0.00,South,190,0.0,3.6,27,0.00,,---,0.00,VWS V14.00,2013-03-06 08:51:00,
2013-03-06 01:52:00,23.0,-6.0,0.00,SSW,192,0.0,0.0,27,0.00,,---,0.00,VWS V14.00,2013-03-06 08:52:00,
2013-03-06 01:53:00,22.8,-4.0,0.00,East,94,2.2,2.2,30,0.00,,---,0.00,VWS V14.00,2013-03-06 08:53:00,
2013-03-06 01:54:00,22.8,-4.0,0.00,East,93,0.0,2.2,30,0.00,,---,0.00,VWS V14.00,2013-03-06 08:54:00,
2013-03-06 01:55:00,22.8,-4.0,0.00,East,94,0.0,0.0,30,0.00,,---,0.00,VWS V14.00,2013-03-06 08:55:00,
2013-03-06 01:56:00,23.2,-4.3,0.00,SSW,194,0.0,2.7,29,0.00,,---,0.00,VWS V14.00,2013-03-06 08:56:00,
2013-03-06 01:57:00,23.2,-4.3,0.00,South,173,0.0,4.9,29,0.00,,---,0.00,VWS V14.00,2013-03-06 08:57:00,
2013-03-06 01:58:00,22.8,-4.0,0.00,East,96,0.0,0.0,30,0.00,,---,0.00,VWS V14.00,2013-03-06 08:58:00,
2013-03-06 01:59:00,22.8,-4.0,0.00,East,96,0.0,0.0,30,0.00,,---,0.00,VWS V14.00,2013-03-06 08:59:00,
2013-03-06 02:00:00,22.8,-4.0,0.00,East,96,0.0,0.0,30,0.00,,---,0.00,VWS V14.00,2013-03-06 09:00:00,
2013-03-06 02:01:00,23.4,-4.2,0.00,SE,136,5.4,5.4,29,0.00,,---,0.00,VWS V14.00,2013-03-06 09:01:00,
2013-03-06 02:02:00,23.4,-4.2,0.00,SSE,161,0.0,5.8,29,0.00,,---,0.00,VWS V14.00,2013-03-06 09:02:00,
2013-03-06 02:03:00,22.6,-4.1,0.00,ESE,120,2.7,3.1,30,0.00,,---,0.00,VWS V14.00,2013-03-06 09:03:00,
2013-03-06 02:04:00,22.6,-4.1,0.00,ESE,120,0.0,0.0,30,0.00,,---,0.00,VWS V14.00,2013-03-06 09:04:00,
2013-03-06 02:05:00,22.6,-4.1,0.00,ESE,119,0.0,0.0,30,0.00,,---,0.00,VWS V14.00,2013-03-06 09:05:00,
2013-03-06 02:06:00,23.5,-4.0,0.00,SSW,212,0.0,0.0,29,0.00,,---,0.00,VWS V14.00,2013-03-06 09:06:00,
2013-03-06 02:07:00,23.5,-4.0,0.00,SSE,160,0.0,0.0,29,0.00,,---,0.00,VWS V14.00,2013-03-06 09:07:00,
2013-03-06 02:08:00,22.6,-4.1,0.00,East,91,0.0,2.7,30,0.00,,---,0.00,VWS V14.00,2013-03-06 09:08:00,
2013-03-06 02:09:00,22.6,-4.1,0.00,East,91,0.0,0.0,30,0.00,,---,0.00,VWS V14.00,2013-03-06 09:09:00,
2013-03-06 02:10:00,22.6,-4.1,0.00,East,86,0.0,0.0,30,0.00,,---,0.00,VWS V14.00,2013-03-06 09:10:00,
2013-03-06 02:11:00,23.5,-4.0,0.00,South,182,2.7,2.7,29,0.00,,---,0.00,VWS V14.00,2013-03-06 09:11:00,
2013-03-06 02:12:00,23.7,-3.9,0.00,South,184,0.0,2.7,29,0.00,,---,0.00,VWS V14.00,2013-03-06 09:12:00,
2013-03-06 02:13:00,22.6,-4.1,0.00,East,89,0.0,0.0,30,0.00,,---,0.00,VWS V14.00,2013-03-06 09:13:00,
2013-03-06 02:14:00,23.7,-3.9,0.00,South,184,0.0,0.0,29,0.00,,---,0.00,VWS V14.00,2013-03-06 09:14:00,
2013-03-06 02:15:00,22.6,-4.1,0.00,East,90,0.0,0.0,30,0.00,,---,0.00,VWS V14.00,2013-03-06 09:15:00,
2013-03-06 02:16:00,23.7,-3.9,0.00,South,176,0.0,2.2,29,0.00,,---,0.00,VWS V14.00,2013-03-06 09:16:00,
2013-03-06 02:17:00,23.7,-3.9,0.00,SSE,159,0.0,2.7,29,0.00,,---,0.00,VWS V14.00,2013-03-06 09:17:00,
2013-03-06 02:18:00,23.7,-3.9,0.00,SSW,208,0.0,0.0,29,0.00,,---,0.00,VWS V14.00,2013-03-06 09:18:00,
2013-03-06 02:19:00,22.6,-4.1,0.00,SSW,196,0.0,0.0,30,0.00,,---,0.00,VWS V14.00,2013-03-06 09:19:00,
2013-03-06 02:20:00,22.6,-4.1,0.00,SSW,196,0.0,0.0,30,0.00,,---,0.00,VWS V14.00,2013-03-06 09:20:00,
2013-03-06 02:21:00,23.9,-3.7,0.00,SW,230,0.0,0.0,29,0.00,,---,0.00,VWS V14.00,2013-03-06 09:21:00,
2013-03-06 02:22:00,23.9,-3.7,0.00,WSW,237,0.0,0.0,29,0.00,,---,0.00,VWS V14.00,2013-03-06 09:22:00,
2013-03-06 02:23:00,23.9,-3.7,0.00,SW,231,0.0,0.0,29,0.00,,---,0.00,VWS V14.00,2013-03-06 09:23:00,
2013-03-06 02:24:00,22.6,-4.1,0.00,SSW,196,0.0,0.0,30,0.00,,---,0.00,VWS V14.00,2013-03-06 09:24:00,
2013-03-06 02:25:00,22.6,-4.1,0.00,SSE,162,0.0,0.0,30,0.00,,---,0.00,VWS V14.00,2013-03-06 09:25:00,
2013-03-06 02:26:00,24.3,-3.4,0.00,SW,217,0.0,2.7,29,0.00,,---,0.00,VWS V14.00,2013-03-06 09:26:00,
2013-03-06 02:27:00,24.3,-3.4,0.00,SW,217,0.0,0.0,29,0.00,,---,0.00,VWS V14.00,2013-03-06 09:27:00,
2013-03-06 02:28:00,24.4,-3.2,0.00,WSW,247,0.0,0.0,29,0.00,,---,0.00,VWS V14.00,2013-03-06 09:28:00,
2013-03-06 02:29:00,22.8,-4.0,0.00,SSE,147,0.0,0.0,30,0.00,,---,0.00,VWS V14.00,2013-03-06 09:29:00,
2013-03-06 02:30:00,22.8,-4.0,0.00,South,172,0.0,2.7,30,0.00,,---,0.00,VWS V14.00,2013-03-06 09:30:00,
2013-03-06 02:31:00,24.6,-3.1,0.00,SSE,160,0.0,4.5,29,0.00,,---,0.00,VWS V14.00,2013-03-06 09:31:00,
2013-03-06 02:32:00,24.6,-3.1,0.00,SW,220,0.0,0.0,29,0.00,,---,0.00,VWS V14.00,2013-03-06 09:32:00,
2013-03-06 02:33:00,24.8,-2.9,0.00,SSW,213,0.0,2.7,29,0.00,,---,0.00,VWS V14.00,2013-03-06 09:33:00,
2013-03-06 02:34:00,22.8,-6.1,0.00,SE,129,0.0,0.0,27,0.00,,---,0.00,VWS V14.00,2013-03-06 09:34:00,
2013-03-06 02:35:00,22.8,-6.1,0.00,SE,129,0.0,0.0,27,0.00,,---,0.00,VWS V14.00,2013-03-06 09:35:00,
2013-03-06 02:36:00,24.8,-2.9,0.00,SW,232,2.2,2.2,29,0.00,,---,0.00,VWS V14.00,2013-03-06 09:36:00,
2013-03-06 02:37:00,25.0,-2.8,0.00,SSW,208,0.0,2.2,29,0.00,,---,0.00,VWS V14.00,2013-03-06 09:37:00,
2013-03-06 02:38:00,25.0,-2.8,0.00,SW,221,0.0,0.0,29,0.00,,---,0.00,VWS V14.00,2013-03-06 09:38:00,
2013-03-06 02:39:00,22.8,-6.1,0.00,SE,124,0.0,2.7,27,0.00,,---,0.00,VWS V14.00,2013-03-06 09:39:00,
2013-03-06 02:40:00,23.0,-6.0,0.00,SE,145,0.0,3.6,27,0.00,,---,0.00,VWS V14.00,2013-03-06 09:40:00,
2013-03-06 02:41:00,25.2,-2.6,0.00,SSW,194,0.0,0.0,29,0.00,,---,0.00,VWS V14.00,2013-03-06 09:41:00,
2013-03-06 02:42:00,25.3,-2.5,0.00,SW,231,2.7,2.7,29,0.00,,---,0.00,VWS V14.00,2013-03-06 09:42:00,
2013-03-06 02:43:00,25.3,-2.5,0.00,SW,221,0.0,2.7,29,0.00,,---,0.00,VWS V14.00,2013-03-06 09:43:00,
2013-03-06 02:44:00,23.0,-3.8,0.00,SE,142,2.2,4.5,30,0.00,,---,0.00,VWS V14.00,2013-03-06 09:44:00,
2013-03-06 02:45:00,23.2,-4.3,0.00,SSW,194,0.0,2.7,29,0.00,,---,0.00,VWS V14.00,2013-03-06 09:45:00,
2013-03-06 02:46:00,25.5,-2.3,0.00,SW,221,0.0,0.0,29,0.00,,---,0.00,VWS V14.00,2013-03-06 09:46:00,
2013-03-06 02:47:00,25.5,-2.3,0.00,SW,221,0.0,0.0,29,0.00,,---,0.00,VWS V14.00,2013-03-06 09:47:00,
2013-03-06 02:48:00,25.7,-2.2,0.00,SW,235,0.0,0.0,29,0.00,,---,0.00,VWS V14.00,2013-03-06 09:48:00,
2013-03-06 02:49:00,23.2,-4.3,0.00,South,181,0.0,0.0,29,0.00,,---,0.00,VWS V14.00,2013-03-06 09:49:00,
2013-03-06 02:50:00,23.4,-4.2,0.00,SSW,193,0.0,0.0,29,0.00,,---,0.00,VWS V14.00,2013-03-06 09:50:00,
2013-03-06 02:51:00,23.4,-4.2,0.00,SE,135,5.8,5.8,29,0.00,,---,0.00,VWS V14.00,2013-03-06 09:51:00,
2013-03-06 02:52:00,25.9,-2.0,0.00,SW,221,0.0,0.0,29,0.00,,---,0.00,VWS V14.00,2013-03-06 09:52:00,
2013-03-06 02:53:00,25.9,-2.0,0.00,SW,228,0.0,0.0,29,0.00,,---,0.00,VWS V14.00,2013-03-06 09:53:00,
2013-03-06 02:54:00,23.4,-4.2,0.00,SW,214,0.0,0.0,29,0.00,,---,0.00,VWS V14.00,2013-03-06 09:54:00,
2013-03-06 02:55:00,23.5,-4.0,0.00,SSW,212,0.0,0.0,29,0.00,,---,0.00,VWS V14.00,2013-03-06 09:55:00,
2013-03-06 02:56:00,23.5,-4.0,0.00,SSE,157,0.0,0.0,29,0.00,,---,0.00,VWS V14.00,2013-03-06 09:56:00,
2013-03-06 02:57:00,26.1,-1.8,0.00,SW,233,0.0,0.0,29,0.00,,---,0.00,VWS V14.00,2013-03-06 09:57:00,
2013-03-06 02:58:00,26.2,-1.7,0.00,SW,226,0.0,2.2,29,0.00,,---,0.00,VWS V14.00,2013-03-06 09:58:00,
2013-03-06 02:59:00,26.2,-1.7,0.00,SW,231,0.0,0.0,29,0.00,,---,0.00,VWS V14.00,2013-03-06 09:59:00,
2013-03-06 03:00:00,23.5,-4.0,0.00,SSW,201,0.0,0.0,29,0.00,,---,0.00,VWS V14.00,2013-03-06 10:00:00,
2013-03-06 03:01:00,23.7,-3.9,0.00,South,182,2.7,2.7,29,0.00,,---,0.00,VWS V14.00,2013-03-06 10:01:00,
2013-03-06 03:02:00,26.2,-1.7,0.00,ESE,105,0.0,3.1,29,0.00,,---,0.00,VWS V14.00,2013-03-06 10:02:00,
2013-03-06 03:03:00,26.2,-1.7,0.00,ESE,106,0.0,0.0,29,0.00,,---,0.00,VWS V14.00,2013-03-06 10:03:00,
2013-03-06 03:04:00,26.2,-1.7,0.00,ESE,106,0.0,0.0,29,0.00,,---,0.00,VWS V14.00,2013-03-06 10:04:00,
2013-03-06 03:05:00,23.7,-3.9,0.00,South,176,0.0,2.2,29,0.00,,---,0.00,VWS V14.00,2013-03-06 10:05:00,
2013-03-06 03:06:00,23.7,-3.9,0.00,SSE,149,2.2,2.2,29,0.00,,---,0.00,VWS V14.00,2013-03-06 10:06:00,
2013-03-06 03:07:00,26.1,-1.8,0.00,ESE,104,0.0,0.0,29,0.00,,---,0.00,VWS V14.00,2013-03-06 10:07:00,
2013-03-06 03:08:00,26.1,-1.8,0.00,ESE,106,0.0,0.0,29,0.00,,---,0.00,VWS V14.00,2013-03-06 10:08:00,
2013-03-06 03:09:00,26.1,-1.8,0.00,ESE,102,0.0,0.0,29,0.00,,---,0.00,VWS V14.00,2013-03-06 10:09:00,
2013-03-06 03:10:00,23.9,-3.7,0.00,SSW,208,0.0,0.0,29,0.00,,---,0.00,VWS V14.00,2013-03-06 10:10:00,
2013-03-06 03:11:00,23.9,-3.7,0.00,WSW,246,0.0,0.0,29,0.00,,---,0.00,VWS V14.00,2013-03-06 10:11:00,
2013-03-06 03:12:00,25.9,-2.0,0.00,East,101,0.0,0.0,29,0.00,,---,0.00,VWS V14.00,2013-03-06 10:12:00,
2013-03-06 03:13:00,25.9,-2.0,0.00,East,100,0.0,0.0,29,0.00,,---,0.00,VWS V14.00,2013-03-06 10:13:00,
2013-03-06 03:14:00,25.7,-2.2,0.00,ESE,103,0.0,0.0,29,0.00,,---,0.00,VWS V14.00,2013-03-06 10:14:00,
2013-03-06 03:15:00,24.1,-3.6,0.00,SSW,207,0.0,2.7,29,0.00,,---,0.00,VWS V14.00,2013-03-06 10:15:00,
2013-03-06 03:16:00,24.3,-3.4,0.00,SSW,213,0.0,0.0,29,0.00,,---,0.00,VWS V14.00,2013-03-06 10:16:00,
2013-03-06 03:17:00,25.7,-2.2,0.00,ESE,103,0.0,0.0,29,0.00,,---,0.00,VWS V14.00,2013-03-06 10:17:00,
2013-03-06 03:18:00,25.5,-2.3,0.00,ESE,103,0.0,0.0,29,0.00,,---,0.00,VWS V14.00,2013-03-06 10:18:00,
2013-03-06 03:19:00,25.5,-2.3,0.00,ESE,103,0.0,0.0,29,0.00,,---,0.00,VWS V14.00,2013-03-06 10:19:00,
2013-03-06 03:20:00,24.6,-3.1,0.00,SSE,159,2.7,4.5,29,0.00,,---,0.00,VWS V14.00,2013-03-06 10:20:00,
2013-03-06 03:21:00,24.6,-3.1,0.00,SSE,159,0.0,0.0,29,0.00,,---,0.00,VWS V14.00,2013-03-06 10:21:00,
2013-03-06 03:22:00,25.5,-2.3,0.00,ESE,103,0.0,0.0,29,0.00,,---,0.00,VWS V14.00,2013-03-06 10:22:00,
2013-03-06 03:23:00,25.3,-2.5,0.00,ESE,103,0.0,0.0,29,0.00,,---,0.00,VWS V14.00,2013-03-06 10:23:00,
2013-03-06 03:24:00,25.3,-2.5,0.00,ESE,103,0.0,0.0,29,0.00,,---,0.00,VWS V14.00,2013-03-06 10:24:00,
2013-03-06 03:25:00,24.8,-2.9,0.00,SSW,211,0.0,0.0,29,0.00,,---,0.00,VWS V14.00,2013-03-06 10:25:00,
2013-03-06 03:26:00,25.0,-2.8,0.00,SSW,213,0.0,2.2,29,0.00,,---,0.00,VWS V14.00,2013-03-06 10:26:00,
2013-03-06 03:27:00,25.0,-2.8,0.00,SSW,203,0.0,0.0,29,0.00,,---,0.00,VWS V14.00,2013-03-06 10:27:00,
2013-03-06 03:28:00,25.3,-2.5,0.00,ESE,103,0.0,0.0,29,0.00,,---,0.00,VWS V14.00,2013-03-06 10:28:00,
2013-03-06 03:29:00,25.3,-2.5,0.00,ESE,103,0.0,0.0,29,0.00,,---,0.00,VWS V14.00,2013-03-06 10:29:00,
2013-03-06 03:30:00,25.2,-2.6,0.00,SSW,213,0.0,0.0,29,0.00,,---,0.00,VWS V14.00,2013-03-06 10:30:00,
2013-03-06 03:31:00,25.3,-2.5,0.00,SW,231,2.7,2.7,29,0.00,,---,0.00,VWS V14.00,2013-03-06 10:31:00,
2013-03-06 03:32:00,25.3,-2.5,0.00,SW,228,2.2,2.7,29,0.00,,---,0.00,VWS V14.00,2013-03-06 10:32:00,
2013-03-06 03:33:00,25.2,-1.2,0.00,ESE,119,0.0,0.0,31,0.00,,---,0.00,VWS V14.00,2013-03-06 10:33:00,
2013-03-06 03:34:00,25.2,-1.2,0.00,ESE,119,0.0,0.0,31,0.00,,---,0.00,VWS V14.00,2013-03-06 10:34:00,
2013-03-06 03:35:00,25.5,-2.3,0.00,SW,219,0.0,0.0,29,0.00,,---,0.00,VWS V14.00,2013-03-06 10:35:00,
2013-03-06 03:36:00,25.5,-2.3,0.00,SW,221,0.0,0.0,29,0.00,,---,0.00,VWS V14.00,2013-03-06 10:36:00,
2013-03-06 03:37:00,25.5,-2.3,0.00,SW,221,0.0,0.0,29,0.00,,---,0.00,VWS V14.00,2013-03-06 10:37:00,
2013-03-06 03:38:00,25.0,-1.4,0.00,ESE,115,0.0,0.0,31,0.00,,---,0.00,VWS V14.00,2013-03-06 10:38:00,
2013-03-06 03:39:00,25.0,-1.4,0.00,ESE,119,0.0,0.0,31,0.00,,---,0.00,VWS V14.00,2013-03-06 10:39:00,
2013-03-06 03:40:00,25.9,-2.0,0.00,SW,222,0.0,0.0,29,0.00,,---,0.00,VWS V14.00,2013-03-06 10:40:00,
2013-03-06 03:41:00,25.9,-2.0,0.00,SW,221,0.0,0.0,29,0.00,,---,0.00,VWS V14.00,2013-03-06 10:41:00,
2013-03-06 03:42:00,25.9,-2.0,0.00,SW,228,0.0,0.0,29,0.00,,---,0.00,VWS V14.00,2013-03-06 10:42:00,
2013-03-06 03:43:00,24.8,-0.9,0.00,SE,128,0.0,0.0,32,0.00,,---,0.00,VWS V14.00,2013-03-06 10:43:00,
2013-03-06 03:44:00,24.8,-0.9,0.00,SE,128,0.0,0.0,32,0.00,,---,0.00,VWS V14.00,2013-03-06 10:44:00,
2013-03-06 03:45:00,26.1,-1.8,0.00,WSW,237,0.0,0.0,29,0.00,,---,0.00,VWS V14.00,2013-03-06 10:45:00,
2013-03-06 03:46:00,26.1,-1.8,0.00,SW,234,0.0,0.0,29,0.00,,---,0.00,VWS V14.00,2013-03-06 10:46:00,
2013-03-06 03:47:00,26.2,-1.7,0.00,SW,236,0.0,0.0,29,0.00,,---,0.00,VWS V14.00,2013-03-06 10:47:00,
2013-03-06 03:48:00,24.6,-1.0,0.00,SE,128,0.0,0.0,32,0.00,,---,0.00,VWS V14.00,2013-03-06 10:48:00,
2013-03-06 03:49:00,24.4,-1.2,0.00,SE,127,0.0,0.0,32,0.00,,---,0.00,VWS V14.00,2013-03-06 10:49:00,
2013-03-06 03:50:00,26.2,-1.7,0.00,ESE,102,3.1,3.1,29,0.00,,---,0.00,VWS V14.00,2013-03-06 10:50:00,
2013-03-06 03:51:00,26.2,-1.7,0.00,ESE,102,0.0,0.0,29,0.00,,---,0.00,VWS V14.00,2013-03-06 10:51:00,
2013-03-06 03:52:00,26.2,-1.7,0.00,ESE,104,0.0,0.0,29,0.00,,---,0.00,VWS V14.00,2013-03-06 10:52:00,
2013-03-06 03:53:00,24.4,-1.2,0.00,East,91,0.0,0.0,32,0.00,,---,0.00,VWS V14.00,2013-03-06 10:53:00,
2013-03-06 03:54:00,24.4,-1.2,0.00,East,90,0.0,0.0,32,0.00,,---,0.00,VWS V14.00,2013-03-06 10:54:00,
2013-03-06 03:55:00,26.1,-1.8,0.00,ESE,106,0.0,0.0,29,0.00,,---,0.00,VWS V14.00,2013-03-06 10:55:00,
2013-03-06 03:56:00,26.1,-1.8,0.00,ESE,106,0.0,0.0,29,0.00,,---,0.00,VWS V14.00,2013-03-06 10:56:00,
2013-03-06 03:57:00,26.1,-1.8,0.00,ESE,106,0.0,0.0,29,0.00,,---,0.00,VWS V14.00,2013-03-06 10:57:00,
2013-03-06 03:58:00,24.3,-1.3,0.00,East,88,0.0,0.0,32,0.00,,---,0.00,VWS V14.00,2013-03-06 10:58:00,
2013-03-06 03:59:00,24.3,-1.3,0.00,East,91,0.0,0.0,32,0.00,,---,0.00,VWS V14.00,2013-03-06 10:59:00,
2013-03-06 04:00:00,25.9,-2.0,0.00,ESE,103,0.0,0.0,29,0.00,,---,0.00,VWS V14.00,2013-03-06 11:00:00,
2013-03-06 04:01:00,24.3,-1.3,0.00,East,91,0.0,0.0,32,0.00,,---,0.00,VWS V14.00,2013-03-06 11:01:00,
2013-03-06 04:02:00,25.9,-2.0,0.00,East,101,0.0,0.0,29,0.00,,---,0.00,VWS V14.00,2013-03-06 11:02:00,
2013-03-06 04:03:00,24.1,-1.5,0.00,East,91,0.0,0.0,32,0.00,,---,0.00,VWS V14.00,2013-03-06 11:03:00,
2013-03-06 04:04:00,24.1,-1.5,0.00,East,91,0.0,0.0,32,0.00,,---,0.00,VWS V14.00,2013-03-06 11:04:00,
2013-03-06 04:05:00,25.7,-2.2,0.00,ESE,103,0.0,0.0,29,0.00,,---,0.00,VWS V14.00,2013-03-06 11:05:00,
2013-03-06 04:06:00,24.1,-1.5,0.00,East,88,0.0,0.0,32,0.00,,---,0.00,VWS V14.00,2013-03-06 11:06:00,
2013-03-06 04:07:00,25.5,-2.3,0.00,ESE,103,0.0,0.0,29,0.00,,---,0.00,VWS V14.00,2013-03-06 11:07:00,
2013-03-06 04:08:00,23.9,-1.7,0.00,East,91,0.0,0.0,32,0.00,,---,0.00,VWS V14.00,2013-03-06 11:08:00,
2013-03-06 04:09:00,23.9,-1.7,0.00,East,90,0.0,0.0,32,0.00,,---,0.00,VWS V14.00,2013-03-06 11:09:00,
2013-03-06 04:10:00,25.5,-2.3,0.00,ESE,103,0.0,0.0,29,0.00,,---,0.00,VWS V14.00,2013-03-06 11:10:00,
2013-03-06 04:11:00,23.9,-1.7,0.00,East,91,0.0,0.0,32,0.00,,---,0.00,VWS V14.00,2013-03-06 11:11:00,
2013-03-06 04:12:00,25.3,-2.5,0.00,ESE,103,0.0,0.0,29,0.00,,---,0.00,VWS V14.00,2013-03-06 11:12:00,
2013-03-06 04:13:00,25.3,-2.5,0.00,ESE,103,0.0,0.0,29,0.00,,---,0.00,VWS V14.00,2013-03-06 11:13:00,
2013-03-06 04:14:00,23.7,-1.8,0.00,East,91,0.0,0.0,32,0.00,,---,0.00,VWS V14.00,2013-03-06 11:14:00,
2013-03-06 04:15:00,25.3,-2.5,0.00,ESE,103,0.0,0.0,29,0.00,,---,0.00,VWS V14.00,2013-03-06 11:15:00,
2013-03-06 04:16:00,23.5,-2.0,0.00,East,91,0.0,0.0,32,0.00,,---,0.00,VWS V14.00,2013-03-06 11:16:00,
2013-03-06 04:17:00,25.3,-2.5,0.00,ESE,103,0.0,0.0,29,0.00,,---,0.00,VWS V14.00,2013-03-06 11:17:00,
2013-03-06 04:18:00,25.3,-2.5,0.00,ESE,103,0.0,0.0,29,0.00,,---,0.00,VWS V14.00,2013-03-06 11:18:00,
2013-03-06 04:19:00,23.5,-2.0,0.00,East,91,0.0,0.0,32,0.00,,---,0.00,VWS V14.00,2013-03-06 11:19:00,
2013-03-06 04:20:00,25.2,-1.2,0.00,ESE,103,0.0,0.0,31,0.00,,---,0.00,VWS V14.00,2013-03-06 11:20:00,
2013-03-06 04:21:00,23.5,-2.0,0.00,East,91,0.0,0.0,32,0.00,,---,0.00,VWS V14.00,2013-03-06 11:21:00,
2013-03-06 04:22:00,25.2,-1.2,0.00,ESE,119,0.0,0.0,31,0.00,,---,0.00,VWS V14.00,2013-03-06 11:22:00,
2013-03-06 04:23:00,25.2,-1.2,0.00,ESE,119,0.0,0.0,31,0.00,,---,0.00,VWS V14.00,2013-03-06 11:23:00,
2013-03-06 04:24:00,23.5,-2.0,0.00,East,91,0.0,0.0,32,0.00,,---,0.00,VWS V14.00,2013-03-06 11:24:00,
2013-03-06 04:25:00,25.0,-1.4,0.00,ESE,119,0.0,0.0,31,0.00,,---,0.00,VWS V14.00,2013-03-06 11:25:00,
2013-03-06 04:26:00,23.5,-2.0,0.00,East,91,0.0,0.0,32,0.00,,---,0.00,VWS V14.00,2013-03-06 11:26:00,
2013-03-06 04:27:00,25.0,-1.4,0.00,ESE,119,0.0,0.0,31,0.00,,---,0.00,VWS V14.00,2013-03-06 11:27:00,
2013-03-06 04:28:00,25.0,-1.4,0.00,ESE,119,0.0,0.0,31,0.00,,---,0.00,VWS V14.00,2013-03-06 11:28:00,
2013-03-06 04:29:00,23.4,-2.1,0.00,East,91,0.0,0.0,32,0.00,,---,0.00,VWS V14.00,2013-03-06 11:29:00,
2013-03-06 04:30:00,24.8,-0.9,0.00,SE,128,0.0,0.0,32,0.00,,---,0.00,VWS V14.00,2013-03-06 11:30:00,
2013-03-06 04:31:00,23.4,-2.1,0.00,East,91,0.0,0.0,32,0.00,,---,0.00,VWS V14.00,2013-03-06 11:31:00,
2013-03-06 04:32:00,24.8,-0.9,0.00,SE,128,0.0,0.0,32,0.00,,---,0.00,VWS V14.00,2013-03-06 11:32:00,
2013-03-06 04:33:00,24.8,-0.9,0.00,SE,128,0.0,0.0,32,0.00,,---,0.00,VWS V14.00,2013-03-06 11:33:00,
2013-03-06 04:34:00,23.2,-2.3,0.00,East,93,0.0,0.0,32,0.00,,---,0.00,VWS V14.00,2013-03-06 11:34:00,
2013-03-06 04:35:00,23.2,-2.3,0.00,East,93,0.0,0.0,32,0.00,,---,0.00,VWS V14.00,2013-03-06 11:35:00,
2013-03-06 04:36:00,24.6,-1.0,0.00,SE,128,0.0,0.0,32,0.00,,---,0.00,VWS V14.00,2013-03-06 11:36:00,
2013-03-06 04:37:00,24.6,-1.0,0.00,SE,128,0.0,0.0,32,0.00,,---,0.00,VWS V14.00,2013-03-06 11:37:00,
2013-03-06 04:38:00,24.4,-1.2,0.00,SE,127,0.0,0.0,32,0.00,,---,0.00,VWS V14.00,2013-03-06 11:38:00,
2013-03-06 04:39:00,23.2,-2.3,0.00,East,93,0.0,0.0,32,0.00,,---,0.00,VWS V14.00,2013-03-06 11:39:00,
2013-03-06 04:40:00,23.2,-2.3,0.00,East,93,0.0,0.0,32,0.00,,---,0.00,VWS V14.00,2013-03-06 11:40:00,
2013-03-06 04:41:00,24.4,-1.2,0.00,East,90,0.0,0.0,32,0.00,,---,0.00,VWS V14.00,2013-03-06 11:41:00,
2013-03-06 04:42:00,24.4,-1.2,0.00,East,91,0.0,0.0,32,0.00,,---,0.00,VWS V14.00,2013-03-06 11:42:00,
2013-03-06 04:43:00,24.4,-1.2,0.00,East,90,0.0,0.0,32,0.00,,---,0.00,VWS V14.00,2013-03-06 11:43:00,
2013-03-06 04:44:00,23.0,-2.5,0.00,East,93,0.0,0.0,32,0.00,,---,0.00,VWS V14.00,2013-03-06 11:44:00,
2013-03-06 04:45:00,23.0,-2.5,0.00,East,93,0.0,0.0,32,0.00,,---,0.00,VWS V14.00,2013-03-06 11:45:00,
2013-03-06 04:46:00,24.3,-1.3,0.00,East,91,0.0,0.0,32,0.00,,---,0.00,VWS V14.00,2013-03-06 11:46:00,
2013-03-06 04:47:00,23.0,-2.5,0.00,East,93,0.0,0.0,32,0.00,,---,0.00,VWS V14.00,2013-03-06 11:47:00,
2013-03-06 04:48:00,24.3,-1.3,0.00,East,91,0.0,0.0,32,0.00,,---,0.00,VWS V14.00,2013-03-06 11:48:00,
2013-03-06 04:49:00,24.3,-1.3,0.00,East,90,0.0,0.0,32,0.00,,---,0.00,VWS V14.00,2013-03-06 11:49:00,
2013-03-06 04:50:00,22.8,-2.6,0.00,East,93,0.0,0.0,32,0.00,,---,0.00,VWS V14.00,2013-03-06 11:50:00,
2013-03-06 04:51:00,24.1,-1.5,0.00,East,88,0.0,0.0,32,0.00,,---,0.00,VWS V14.00,2013-03-06 11:51:00,
2013-03-06 04:52:00,22.8,-2.6,0.00,East,93,0.0,0.0,32,0.00,,---,0.00,VWS V14.00,2013-03-06 11:52:00,
2013-03-06 04:53:00,24.1,-1.5,0.00,East,91,0.0,0.0,32,0.00,,---,0.00,VWS V14.00,2013-03-06 11:53:00,
2013-03-06 04:54:00,24.1,-1.5,0.00,East,89,0.0,0.0,32,0.00,,---,0.00,VWS V14.00,2013-03-06 11:54:00,
2013-03-06 04:55:00,22.8,-2.6,0.00,WSW,246,0.0,0.0,32,0.00,,---,0.00,VWS V14.00,2013-03-06 11:55:00,
2013-03-06 04:56:00,22.8,-2.6,0.00,WSW,248,0.0,0.0,32,0.00,,---,0.00,VWS V14.00,2013-03-06 11:56:00,
2013-03-06 04:57:00,23.9,-1.7,0.00,East,91,0.0,0.0,32,0.00,,---,0.00,VWS V14.00,2013-03-06 11:57:00,
2013-03-06 04:58:00,23.9,-1.7,0.00,East,91,0.0,0.0,32,0.00,,---,0.00,VWS V14.00,2013-03-06 11:58:00,
2013-03-06 04:59:00,23.9,-1.7,0.00,East,91,0.0,0.0,32,0.00,,---,0.00,VWS V14.00,2013-03-06 11:59:00,
2013-03-06 05:00:00,22.8,-2.6,0.00,ENE,73,0.0,0.0,32,0.00,,---,0.00,VWS V14.00,2013-03-06 12:00:00,
2013-03-06 05:01:00,22.8,-2.6,0.00,ENE,73,0.0,0.0,32,0.00,,---,0.00,VWS V14.00,2013-03-06 12:01:00,
2013-03-06 05:02:00,23.7,-1.8,0.00,East,91,0.0,0.0,32,0.00,,---,0.00,VWS V14.00,2013-03-06 12:02:00,
2013-03-06 05:03:00,23.7,-1.8,0.00,East,90,0.0,0.0,32,0.00,,---,0.00,VWS V14.00,2013-03-06 12:03:00,
2013-03-06 05:04:00,23.7,-1.8,0.00,East,91,0.0,0.0,32,0.00,,---,0.00,VWS V14.00,2013-03-06 12:04:00,
2013-03-06 05:05:00,22.6,-2.8,0.00,ENE,77,0.0,3.1,32,0.00,,---,0.00,VWS V14.00,2013-03-06 12:05:00,
2013-03-06 05:06:00,22.6,-2.8,0.00,East,79,0.0,0.0,32,0.00,,---,0.00,VWS V14.00,2013-03-06 12:06:00,
2013-03-06 05:07:00,23.5,-2.0,0.00,East,91,0.0,0.0,32,0.00,,---,0.00,VWS V14.00,2013-03-06 12:07:00,
2013-03-06 05:08:00,23.5,-2.0,0.00,East,91,0.0,0.0,32,0.00,,---,0.00,VWS V14.00,2013-03-06 12:08:00,
2013-03-06 05:09:00,23.5,-2.0,0.00,East,91,0.0,0.0,32,0.00,,---,0.00,VWS V14.00,2013-03-06 12:09:00,
2013-03-06 05:10:00,22.6,-2.8,0.00,East,79,0.0,0.0,32,0.00,,---,0.00,VWS V14.00,2013-03-06 12:10:00,
2013-03-06 05:11:00,22.6,-2.8,0.00,East,79,0.0,0.0,32,0.00,,---,0.00,VWS V14.00,2013-03-06 12:11:00,
2013-03-06 05:12:00,23.5,-2.0,0.00,East,91,0.0,0.0,32,0.00,,---,0.00,VWS V14.00,2013-03-06 12:12:00,
2013-03-06 05:13:00,23.5,-2.0,0.00,East,91,0.0,0.0,32,0.00,,---,0.00,VWS V14.00,2013-03-06 12:13:00,
2013-03-06 05:14:00,23.5,-2.0,0.00,East,91,0.0,0.0,32,0.00,,---,0.00,VWS V14.00,2013-03-06 12:14:00,
2013-03-06 05:15:00,22.5,-2.9,0.00,East,79,0.0,0.0,32,0.00,,---,0.00,VWS V14.00,2013-03-06 12:15:00,
2013-03-06 05:16:00,22.5,-2.9,0.00,East,82,2.7,2.7,32,0.00,,---,0.00,VWS V14.00,2013-03-06 12:16:00,
2013-03-06 05:17:00,23.4,-2.1,0.00,East,91,0.0,0.0,32,0.00,,---,0.00,VWS V14.00,2013-03-06 12:17:00,
2013-03-06 05:18:00,23.4,-2.1,0.00,East,91,0.0,0.0,32,0.00,,---,0.00,VWS V14.00,2013-03-06 12:18:00,
2013-03-06 05:19:00,23.4,-2.1,0.00,East,91,0.0,0.0,32,0.00,,---,0.00,VWS V14.00,2013-03-06 12:19:00,
2013-03-06 05:20:00,22.5,-2.9,0.00,East,81,0.0,0.0,32,0.00,,---,0.00,VWS V14.00,2013-03-06 12:20:00,
2013-03-06 05:21:00,22.5,-2.9,0.00,East,82,0.0,0.0,32,0.00,,---,0.00,VWS V14.00,2013-03-06 12:21:00,
2013-03-06 05:22:00,22.5,-2.9,0.00,East,82,0.0,0.0,32,0.00,,---,0.00,VWS V14.00,2013-03-06 12:22:00,
2013-03-06 05:23:00,23.4,-2.1,0.00,East,93,0.0,0.0,32,0.00,,---,0.00,VWS V14.00,2013-03-06 12:23:00,
2013-03-06 05:24:00,23.2,-2.3,0.00,East,93,0.0,0.0,32,0.00,,---,0.00,VWS V14.00,2013-03-06 12:24:00,
2013-03-06 05:25:00,22.5,-2.9,0.00,SE,129,0.0,0.0,32,0.00,,---,0.00,VWS V14.00,2013-03-06 12:25:00,
2013-03-06 05:26:00,22.5,-2.9,0.00,SE,126,0.0,0.0,32,0.00,,---,0.00,VWS V14.00,2013-03-06 12:26:00,
2013-03-06 05:27:00,22.5,-2.9,0.00,SE,126,0.0,0.0,32,0.00,,---,0.00,VWS V14.00,2013-03-06 12:27:00,
2013-03-06 05:28:00,23.2,-2.3,0.00,East,93,0.0,0.0,32,0.00,,---,0.00,VWS V14.00,2013-03-06 12:28:00,
2013-03-06 05:29:00,23.2,-2.3,0.00,East,93,0.0,0.0,32,0.00,,---,0.00,VWS V14.00,2013-03-06 12:29:00,
2013-03-06 05:30:00,23.2,-2.3,0.00,East,93,0.0,0.0,32,0.00,,---,0.00,VWS V14.00,2013-03-06 12:30:00,
2013-03-06 05:31:00,22.3,-3.1,0.00,SE,124,0.0,2.7,32,0.00,,---,0.00,VWS V14.00,2013-03-06 12:31:00,
2013-03-06 05:32:00,22.3,-3.1,0.00,SE,128,0.0,0.0,32,0.00,,---,0.00,VWS V14.00,2013-03-06 12:32:00,
2013-03-06 05:33:00,23.0,-2.5,0.00,East,93,0.0,0.0,32,0.00,,---,0.00,VWS V14.00,2013-03-06 12:33:00,
2013-03-06 05:34:00,23.0,-2.5,0.00,East,93,0.0,0.0,32,0.00,,---,0.00,VWS V14.00,2013-03-06 12:34:00,
2013-03-06 05:35:00,23.0,-2.5,0.00,East,93,0.0,0.0,32,0.00,,---,0.00,VWS V14.00,2013-03-06 12:35:00,
2013-03-06 05:36:00,22.3,-3.1,0.00,SE,126,0.0,0.0,32,0.00,,---,0.00,VWS V14.00,2013-03-06 12:36:00,
2013-03-06 05:37:00,22.3,-3.1,0.00,ESE,123,0.0,0.0,32,0.00,,---,0.00,VWS V14.00,2013-03-06 12:37:00,
2013-03-06 05:38:00,23.0,-2.5,0.00,East,93,0.0,0.0,32,0.00,,---,0.00,VWS V14.00,2013-03-06 12:38:00,
2013-03-06 05:39:00,22.8,-2.6,0.00,East,93,0.0,0.0,32,0.00,,---,0.00,VWS V14.00,2013-03-06 12:39:00,
2013-03-06 05:40:00,22.8,-2.6,0.00,East,93,0.0,0.0,32,0.00,,---,0.00,VWS V14.00,2013-03-06 12:40:00,
2013-03-06 05:41:00,22.3,-3.1,0.00,ESE,123,0.0,0.0,32,0.00,,---,0.00,VWS V14.00,2013-03-06 12:41:00,
2013-03-06 05:42:00,22.3,-3.1,0.00,SE,127,0.0,0.0,32,0.00,,---,0.00,VWS V14.00,2013-03-06 12:42:00,
2013-03-06 05:43:00,22.8,-2.6,0.00,East,93,0.0,0.0,32,0.00,,---,0.00,VWS V14.00,2013-03-06 12:43:00,
2013-03-06 05:44:00,22.8,-2.6,0.00,SSE,156,0.0,0.0,32,0.00,,---,0.00,VWS V14.00,2013-03-06 12:44:00,
2013-03-06 05:45:00,22.8,-2.6,0.00,WSW,248,0.0,0.0,32,0.00,,---,0.00,VWS V14.00,2013-03-06 12:45:00,
2013-03-06 05:46:00,22.3,-2.4,0.00,SE,127,0.0,0.0,33,0.00,,---,0.00,VWS V14.00,2013-03-06 12:46:00,
2013-03-06 05:47:00,22.3,-2.4,0.00,SE,127,0.0,0.0,33,0.00,,---,0.00,VWS V14.00,2013-03-06 12:47:00,
2013-03-06 05:48:00,22.8,-2.6,0.00,ENE,72,0.0,0.0,32,0.00,,---,0.00,VWS V14.00,2013-03-06 12:48:00,
2013-03-06 05:49:00,22.8,-2.6,0.00,ENE,73,0.0,0.0,32,0.00,,---,0.00,VWS V14.00,2013-03-06 12:49:00,
2013-03-06 05:50:00,22.8,-2.6,0.00,ENE,71,0.0,0.0,32,0.00,,---,0.00,VWS V14.00,2013-03-06 12:50:00,
2013-03-06 05:51:00,22.1,-2.6,0.00,SE,125,0.0,2.2,33,0.00,,---,0.00,VWS V14.00,2013-03-06 12:51:00,
2013-03-06 05:52:00,22.1,-2.6,0.00,SE,125,0.0,0.0,33,0.00,,---,0.00,VWS V14.00,2013-03-06 12:52:00,
2013-03-06 05:53:00,22.6,-2.8,0.00,ENE,74,2.2,2.2,32,0.00,,---,0.00,VWS V14.00,2013-03-06 12:53:00,
2013-03-06 05:54:00,22.6,-2.8,0.00,East,80,3.1,3.1,32,0.00,,---,0.00,VWS V14.00,2013-03-06 12:54:00,
2013-03-06 05:55:00,22.6,-2.8,0.00,East,79,0.0,0.0,32,0.00,,---,0.00,VWS V14.00,2013-03-06 12:55:00,
2013-03-06 05:56:00,22.1,-2.6,0.00,ESE,123,0.0,2.7,33,0.00,,---,0.00,VWS V14.00,2013-03-06 12:56:00,
2013-03-06 05:57:00,22.1,-2.6,0.00,ESE,123,0.0,0.0,33,0.00,,---,0.00,VWS V14.00,2013-03-06 12:57:00,
2013-03-06 05:58:00,22.6,-2.8,0.00,East,79,0.0,0.0,32,0.00,,---,0.00,VWS V14.00,2013-03-06 12:58:00,
2013-03-06 05:59:00,22.6,-2.8,0.00,East,79,0.0,0.0,32,0.00,,---,0.00,VWS V14.00,2013-03-06 12:59:00,
2013-03-06 06:00:00,22.6,-2.8,0.00,East,80,0.0,0.0,32,0.00,,---,0.00,VWS V14.00,2013-03-06 13:00:00,
2013-03-06 06:01:00,22.1,-2.6,0.00,ESE,106,0.0,0.0,33,0.00,,---,0.00,VWS V14.00,2013-03-06 13:01:00,
2013-03-06 06:02:00,22.1,-2.6,0.00,ESE,105,0.0,0.0,33,0.00,,---,0.00,VWS V14.00,2013-03-06 13:02:00,
2013-03-06 06:03:00,22.5,-2.9,0.00,East,80,0.0,0.0,32,0.00,,---,0.00,VWS V14.00,2013-03-06 13:03:00,
2013-03-06 06:04:00,22.5,-2.9,0.00,East,79,0.0,0.0,32,0.00,,---,0.00,VWS V14.00,2013-03-06 13:04:00,
2013-03-06 06:05:00,22.5,-2.9,0.00,East,79,0.0,0.0,32,0.00,,---,0.00,VWS V14.00,2013-03-06 13:05:00,
2013-03-06 06:06:00,22.1,-2.6,0.00,East,80,0.0,2.2,33,0.00,,---,0.00,VWS V14.00,2013-03-06 13:06:00,
2013-03-06 06:07:00,22.1,-2.6,0.00,East,80,0.0,0.0,33,0.00,,---,0.00,VWS V14.00,2013-03-06 13:07:00,
2013-03-06 06:08:00,22.5,-2.9,0.00,East,82,0.0,0.0,32,0.00,,---,0.00,VWS V14.00,2013-03-06 13:08:00,
2013-03-06 06:09:00,22.5,-2.9,0.00,East,81,0.0,0.0,32,0.00,,---,0.00,VWS V14.00,2013-03-06 13:09:00,
2013-03-06 06:10:00,22.5,-2.9,0.00,East,82,0.0,0.0,32,0.00,,---,0.00,VWS V14.00,2013-03-06 13:10:00,
2013-03-06 06:11:00,22.1,-2.6,0.00,ESE,108,0.0,0.0,33,0.00,,---,0.00,VWS V14.00,2013-03-06 13:11:00,
2013-03-06 06:12:00,21.9,-2.8,0.00,ESE,110,0.0,0.0,33,0.00,,---,0.00,VWS V14.00,2013-03-06 13:12:00,
2013-03-06 06:13:00,21.9,-2.8,0.00,ESE,108,0.0,0.0,33,0.00,,---,0.00,VWS V14.00,2013-03-06 13:13:00,
2013-03-06 06:14:00,22.5,-2.9,0.00,SE,129,0.0,0.0,32,0.00,,---,0.00,VWS V14.00,2013-03-06 13:14:00,
2013-03-06 06:15:00,22.5,-2.9,0.00,SE,130,0.0,0.0,32,0.00,,---,0.00,VWS V14.00,2013-03-06 13:15:00,
2013-03-06 06:16:00,21.9,-2.8,0.00,ESE,107,0.0,0.0,33,0.00,,---,0.00,VWS V14.00,2013-03-06 13:16:00,
2013-03-06 06:17:00,21.9,-2.8,0.00,ESE,109,0.0,0.0,33,0.00,,---,0.00,VWS V14.00,2013-03-06 13:17:00,
2013-03-06 06:18:00,21.9,-2.8,0.00,ESE,117,2.2,4.0,33,0.00,,---,0.00,VWS V14.00,2013-03-06 13:18:00,
2013-03-06 06:19:00,22.5,-2.9,0.00,SE,130,0.0,0.0,32,0.00,,---,0.00,VWS V14.00,2013-03-06 13:19:00,
2013-03-06 06:20:00,22.3,-3.1,0.00,SE,124,0.0,2.7,32,0.00,,---,0.00,VWS V14.00,2013-03-06 13:20:00,
2013-03-06 06:21:00,22.3,-3.1,0.00,SE,128,0.0,0.0,32,0.00,,---,0.00,VWS V14.00,2013-03-06 13:21:00,
2013-03-06 06:22:00,21.9,-2.8,0.00,ESE,120,0.0,0.0,33,0.00,,---,0.00,VWS V14.00,2013-03-06 13:22:00,
2013-03-06 06:23:00,21.9,-2.8,0.00,East,96,0.0,2.7,33,0.00,,---,0.00,VWS V14.00,2013-03-06 13:23:00,
2013-03-06 06:24:00,22.3,-3.1,0.00,SE,128,0.0,0.0,32,0.00,,---,0.00,VWS V14.00,2013-03-06 13:24:00,
2013-03-06 06:25:00,22.3,-3.1,0.00,SE,126,0.0,0.0,32,0.00,,---,0.00,VWS V14.00,2013-03-06 13:25:00,
2013-03-06 06:26:00,22.3,-3.1,0.00,ESE,123,0.0,0.0,32,0.00,,---,0.00,VWS V14.00,2013-03-06 13:26:00,
2013-03-06 06:27:00,21.9,-2.8,0.00,East,101,0.0,2.7,33,0.00,,---,0.00,VWS V14.00,2013-03-06 13:27:00,
2013-03-06 06:28:00,21.9,-2.8,0.00,East,100,0.0,0.0,33,0.00,,---,0.00,VWS V14.00,2013-03-06 13:28:00,
2013-03-06 06:29:00,22.3,-3.1,0.00,SE,127,0.0,0.0,32,0.00,,---,0.00,VWS V14.00,2013-03-06 13:29:00,
2013-03-06 06:30:00,22.3,-3.1,0.00,ESE,123,0.0,0.0,32,0.00,,---,0.00,VWS V14.00,2013-03-06 13:30:00,
2013-03-06 06:31:00,22.3,-3.1,0.00,SE,127,0.0,0.0,32,0.00,,---,0.00,VWS V14.00,2013-03-06 13:31:00,
2013-03-06 06:32:00,21.9,-2.8,0.00,East,95,0.0,2.7,33,0.00,,---,0.00,VWS V14.00,2013-03-06 13:32:00,
2013-03-06 06:33:00,21.9,-2.8,0.00,East,93,0.0,0.0,33,0.00,,---,0.00,VWS V14.00,2013-03-06 13:33:00,
2013-03-06 06:34:00,22.3,-3.1,0.00,SE,127,0.0,0.0,32,0.00,,---,0.00,VWS V14.00,2013-03-06 13:34:00,
2013-03-06 06:35:00,21.9,-2.8,0.00,ESE,103,0.0,0.0,33,0.00,,---,0.00,VWS V14.00,2013-03-06 13:35:00,
2013-03-06 06:36:00,22.3,-2.4,0.00,SE,126,0.0,0.0,33,0.00,,---,0.00,VWS V14.00,2013-03-06 13:36:00,
2013-03-06 06:37:00,21.9,-2.8,0.00,East,98,0.0,0.0,33,0.00,,---,0.00,VWS V14.00,2013-03-06 13:37:00,
2013-03-06 06:38:00,21.9,-2.8,0.00,East,96,0.0,0.0,33,0.00,,---,0.00,VWS V14.00,2013-03-06 13:38:00,
2013-03-06 06:39:00,22.1,-2.6,0.00,SE,127,0.0,0.0,33,0.00,,---,0.00,VWS V14.00,2013-03-06 13:39:00,
2013-03-06 06:40:00,22.1,-2.6,0.00,SE,126,0.0,0.0,33,0.00,,---,0.00,VWS V14.00,2013-03-06 13:40:00,
2013-03-06 06:41:00,22.1,-2.6,0.00,SE,124,0.0,0.0,33,0.00,,---,0.00,VWS V14.00,2013-03-06 13:41:00,
2013-03-06 06:42:00,22.1,-2.6,0.00,SE,125,0.0,0.0,33,0.00,,---,0.00,VWS V14.00,2013-03-06 13:42:00,
2013-03-06 06:43:00,22.1,-2.6,0.00,ESE,110,0.0,0.0,33,0.00,,---,0.00,VWS V14.00,2013-03-06 13:43:00,
2013-03-06 06:44:00,22.1,-2.6,0.00,ESE,123,0.0,2.7,33,0.00,,---,0.00,VWS V14.00,2013-03-06 13:44:00,
2013-03-06 06:45:00,22.1,-2.6,0.00,ESE,123,0.0,2.7,33,0.00,,---,0.00,VWS V14.00,2013-03-06 13:45:00,
2013-03-06 06:46:00,22.1,-2.6,0.00,ESE,122,0.0,0.0,33,0.00,,---,0.00,VWS V14.00,2013-03-06 13:46:00,
2013-03-06 06:47:00,22.1,-2.6,0.00,ESE,123,0.0,0.0,33,0.00,,---,0.00,VWS V14.00,2013-03-06 13:47:00,
2013-03-06 06:48:00,22.1,-2.6,0.00,ESE,110,0.0,0.0,33,0.00,,---,0.00,VWS V14.00,2013-03-06 13:48:00,
2013-03-06 06:49:00,22.1,-2.6,0.00,ESE,106,0.0,0.0,33,0.00,,---,0.00,VWS V14.00,2013-03-06 13:49:00,
2013-03-06 06:50:00,22.1,-2.6,0.00,ESE,105,0.0,0.0,33,0.00,,---,0.00,VWS V14.00,2013-03-06 13:50:00,
2013-03-06 06:51:00,22.1,-2.6,0.00,ESE,106,0.0,0.0,33,0.00,,---,0.00,VWS V14.00,2013-03-06 13:51:00,
2013-03-06 06:52:00,22.1,-2.6,0.00,ESE,104,0.0,0.0,33,0.00,,---,0.00,VWS V14.00,2013-03-06 13:52:00,
2013-03-06 06:53:00,22.1,-2.6,0.00,SE,139,0.0,0.0,33,0.00,,---,0.00,VWS V14.00,2013-03-06 13:53:00,
2013-03-06 06:54:00,22.1,-2.6,0.00,ENE,78,0.0,2.2,33,0.00,,---,0.00,VWS V14.00,2013-03-06 13:54:00,
2013-03-06 06:55:00,22.1,-2.6,0.00,East,80,0.0,0.0,33,0.00,,---,0.00,VWS V14.00,2013-03-06 13:55:00,
2013-03-06 06:56:00,22.1,-2.6,0.00,East,80,0.0,0.0,33,0.00,,---,0.00,VWS V14.00,2013-03-06 13:56:00,
2013-03-06 06:57:00,22.1,-2.6,0.00,East,79,0.0,0.0,33,0.00,,---,0.00,VWS V14.00,2013-03-06 13:57:00,
2013-03-06 06:58:00,22.1,-2.6,0.00,East,79,0.0,0.0,33,0.00,,---,0.00,VWS V14.00,2013-03-06 13:58:00,
2013-03-06 06:59:00,22.1,-2.6,0.00,East,79,0.0,0.0,33,0.00,,---,0.00,VWS V14.00,2013-03-06 13:59:00,
2013-03-06 07:00:00,22.1,-2.6,0.00,East,83,0.0,0.0,33,0.00,,---,0.00,VWS V14.00,2013-03-06 14:00:00,
2013-03-06 07:01:00,21.9,-2.8,0.00,ESE,106,0.0,0.0,33,0.00,,---,0.00,VWS V14.00,2013-03-06 14:01:00,
2013-03-06 07:02:00,21.9,-2.8,0.00,ESE,108,0.0,0.0,33,0.00,,---,0.00,VWS V14.00,2013-03-06 14:02:00,
2013-03-06 07:03:00,22.1,-2.6,0.00,NNW,342,0.0,0.0,33,0.00,,---,0.00,VWS V14.00,2013-03-06 14:03:00,
2013-03-06 07:04:00,22.1,-2.6,0.00,NNW,344,0.0,0.0,33,0.00,,---,0.00,VWS V14.00,2013-03-06 14:04:00,
2013-03-06 07:05:00,21.9,-2.8,0.00,ESE,110,0.0,0.0,33,0.00,,---,0.00,VWS V14.00,2013-03-06 14:05:00,
2013-03-06 07:06:00,22.1,-2.6,0.00,NNW,343,0.0,0.0,33,0.00,,---,0.00,VWS V14.00,2013-03-06 14:06:00,
2013-03-06 07:07:00,21.9,-2.8,0.00,ESE,116,0.0,0.0,33,0.00,,---,0.00,VWS V14.00,2013-03-06 14:07:00,
2013-03-06 07:08:00,22.3,-1.8,0.00,NNW,343,0.0,0.0,34,0.00,,---,0.00,VWS V14.00,2013-03-06 14:08:00,
2013-03-06 07:09:00,22.3,-1.8,0.00,NNE,17,0.0,0.0,34,0.00,,---,0.00,VWS V14.00,2013-03-06 14:09:00,
2013-03-06 07:10:00,21.9,-2.8,0.00,ESE,120,0.0,0.0,33,0.00,,---,0.00,VWS V14.00,2013-03-06 14:10:00,
2013-03-06 07:11:00,21.9,-2.8,0.00,ESE,115,0.0,0.0,33,0.00,,---,0.00,VWS V14.00,2013-03-06 14:11:00,
2013-03-06 07:12:00,21.9,-2.8,0.00,East,87,0.0,0.0,33,0.00,,---,0.00,VWS V14.00,2013-03-06 14:12:00,
2013-03-06 07:13:00,22.3,-1.8,0.00,East,88,0.0,0.0,34,0.00,,---,0.00,VWS V14.00,2013-03-06 14:13:00,
2013-03-06 07:14:00,22.5,-1.6,0.00,East,87,0.0,0.0,34,0.00,,---,0.00,VWS V14.00,2013-03-06 14:14:00,
2013-03-06 07:15:00,21.9,-2.8,0.00,ESE,103,2.2,2.2,33,0.00,,---,0.00,VWS V14.00,2013-03-06 14:15:00,
2013-03-06 07:16:00,21.9,-2.8,0.00,East,101,2.2,2.2,33,0.00,,---,0.00,VWS V14.00,2013-03-06 14:16:00,
2013-03-06 07:17:00,21.9,-2.8,0.00,East,101,0.0,0.0,33,0.00,,---,0.00,VWS V14.00,2013-03-06 14:17:00,
2013-03-06 07:18:00,21.9,-2.8,0.00,East,99,0.0,0.0,33,0.00,,---,0.00,VWS V14.00,2013-03-06 14:18:00,
2013-03-06 07:19:00,22.6,-1.5,0.00,NE,37,0.0,2.2,34,0.00,,---,0.00,VWS V14.00,2013-03-06 14:19:00,
2013-03-06 07:20:00,21.9,-2.8,0.00,East,99,0.0,0.0,33,0.00,,---,0.00,VWS V14.00,2013-03-06 14:20:00,
2013-03-06 07:21:00,21.9,-2.8,0.00,East,95,2.7,2.7,33,0.00,,---,0.00,VWS V14.00,2013-03-06 14:21:00,
2013-03-06 07:22:00,21.9,-2.8,0.00,East,95,0.0,0.0,33,0.00,,---,0.00,VWS V14.00,2013-03-06 14:22:00,
2013-03-06 07:23:00,21.9,-2.8,0.00,ESE,105,0.0,0.0,33,0.00,,---,0.00,VWS V14.00,2013-03-06 14:23:00,
2013-03-06 07:24:00,23.0,-1.2,0.00,NE,36,0.0,0.0,34,0.00,,---,0.00,VWS V14.00,2013-03-06 14:24:00,
2013-03-06 07:25:00,21.9,-2.8,0.00,ESE,104,0.0,0.0,33,0.00,,---,0.00,VWS V14.00,2013-03-06 14:25:00,
2013-03-06 07:26:00,21.9,-2.8,0.00,ESE,105,0.0,0.0,33,0.00,,---,0.00,VWS V14.00,2013-03-06 14:26:00,
2013-03-06 07:27:00,21.9,-2.8,0.00,East,96,0.0,0.0,33,0.00,,---,0.00,VWS V14.00,2013-03-06 14:27:00,
2013-03-06 07:28:00,21.9,-2.8,0.00,East,96,0.0,0.0,33,0.00,,---,0.00,VWS V14.00,2013-03-06 14:28:00,
2013-03-06 07:29:00,23.4,-0.9,0.00,NE,37,0.0,0.0,34,0.00,,---,0.00,VWS V14.00,2013-03-06 14:29:00,
2013-03-06 07:30:00,21.9,-2.8,0.00,ESE,122,0.0,0.0,33,0.00,,---,0.00,VWS V14.00,2013-03-06 14:30:00,
2013-03-06 07:31:00,22.1,-2.6,0.00,SE,127,0.0,0.0,33,0.00,,---,0.00,VWS V14.00,2013-03-06 14:31:00,
2013-03-06 07:32:00,22.1,-2.6,0.00,ESE,110,0.0,0.0,33,0.00,,---,0.00,VWS V14.00,2013-03-06 14:32:00,
2013-03-06 07:33:00,22.1,-2.6,0.00,ESE,109,0.0,0.0,33,0.00,,---,0.00,VWS V14.00,2013-03-06 14:33:00,
2013-03-06 07:34:00,24.1,0.4,0.00,NW,320,0.0,0.0,35,0.00,,---,0.00,VWS V14.00,2013-03-06 14:34:00,
2013-03-06 07:35:00,22.1,-2.6,0.00,ESE,113,0.0,0.0,33,0.00,,---,0.00,VWS V14.00,2013-03-06 14:35:00,
2013-03-06 07:36:00,22.1,-2.6,0.00,ESE,113,0.0,0.0,33,0.00,,---,0.00,VWS V14.00,2013-03-06 14:36:00,
2013-03-06 07:37:00,22.1,-2.6,0.00,ESE,109,0.0,0.0,33,0.00,,---,0.00,VWS V14.00,2013-03-06 14:37:00,
2013-03-06 07:38:00,22.1,-2.6,0.00,East,98,0.0,0.0,33,0.00,,---,0.00,VWS V14.00,2013-03-06 14:38:00,
2013-03-06 07:39:00,24.6,0.9,0.00,NW,312,0.0,0.0,35,0.00,,---,0.00,VWS V14.00,2013-03-06 14:39:00,
2013-03-06 07:40:00,22.1,-2.6,0.00,SE,134,0.0,0.0,33,0.00,,---,0.00,VWS V14.00,2013-03-06 14:40:00,
2013-03-06 07:41:00,22.1,-2.6,0.00,SE,139,0.0,0.0,33,0.00,,---,0.00,VWS V14.00,2013-03-06 14:41:00,
2013-03-06 07:42:00,22.1,-2.6,0.00,SE,139,0.0,0.0,33,0.00,,---,0.00,VWS V14.00,2013-03-06 14:42:00,
2013-03-06 07:43:00,22.1,-2.6,0.00,SE,139,0.0,0.0,33,0.00,,---,0.00,VWS V14.00,2013-03-06 14:43:00,
2013-03-06 07:44:00,25.5,1.7,0.00,NW,311,0.0,0.0,35,0.00,,---,0.00,VWS V14.00,2013-03-06 14:44:00,
2013-03-06 07:45:00,22.1,-2.6,0.00,East,79,0.0,2.2,33,0.00,,---,0.00,VWS V14.00,2013-03-06 14:45:00,
2013-03-06 07:46:00,22.1,-2.6,0.00,East,79,0.0,2.2,33,0.00,,---,0.00,VWS V14.00,2013-03-06 14:46:00,
2013-03-06 07:47:00,22.1,-2.6,0.00,East,79,0.0,0.0,33,0.00,,---,0.00,VWS V14.00,2013-03-06 14:47:00,
2013-03-06 07:48:00,26.8,2.8,0.00,NW,311,0.0,0.0,35,0.00,,---,0.00,VWS V14.00,2013-03-06 14:48:00,
2013-03-06 07:49:00,22.1,-2.6,0.00,NE,52,0.0,0.0,33,0.00,,---,0.00,VWS V14.00,2013-03-06 14:49:00,
2013-03-06 07:50:00,22.1,-2.6,0.00,NW,323,0.0,0.0,33,0.00,,---,0.00,VWS V14.00,2013-03-06 14:50:00,
2013-03-06 07:51:00,22.1,-2.6,0.00,NW,325,0.0,0.0,33,0.00,,---,0.00,VWS V14.00,2013-03-06 14:51:00,
2013-03-06 07:52:00,27.7,3.6,0.00,NW,311,0.0,0.0,35,0.00,,---,0.00,VWS V14.00,2013-03-06 14:52:00,
2013-03-06 07:53:00,22.1,-2.6,0.00,NNW,333,0.0,0.0,33,0.00,,---,0.00,VWS V14.00,2013-03-06 14:53:00,
2013-03-06 07:54:00,22.1,-2.6,0.00,NNW,343,0.0,0.0,33,0.00,,---,0.00,VWS V14.00,2013-03-06 14:54:00,
2013-03-06 07:55:00,22.1,-2.6,0.00,NNW,343,0.0,0.0,33,0.00,,---,0.00,VWS V14.00,2013-03-06 14:55:00,
2013-03-06 07:56:00,22.3,-2.4,0.00,NNW,342,0.0,0.0,33,0.00,,---,0.00,VWS V14.00,2013-03-06 14:56:00,
2013-03-06 07:57:00,27.9,3.8,0.00,NW,306,0.0,0.0,35,0.00,,---,0.00,VWS V14.00,2013-03-06 14:57:00,
2013-03-06 07:58:00,22.3,-1.8,0.00,NNW,343,0.0,0.0,34,0.00,,---,0.00,VWS V14.00,2013-03-06 14:58:00,
2013-03-06 07:59:00,22.3,-1.8,0.00,East,87,0.0,2.2,34,0.00,,---,0.00,VWS V14.00,2013-03-06 14:59:00,
2013-03-06 08:00:00,22.3,-1.8,0.00,East,88,0.0,0.0,34,0.00,,---,0.00,VWS V14.00,2013-03-06 15:00:00,
2013-03-06 08:01:00,22.3,-1.8,0.00,East,87,0.0,0.0,34,0.00,,---,0.00,VWS V14.00,2013-03-06 15:01:00,
2013-03-06 08:02:00,28.4,4.2,0.00,NW,311,0.0,0.0,35,0.00,,---,0.00,VWS V14.00,2013-03-06 15:02:00,
2013-03-06 08:03:00,22.5,-1.6,0.00,East,88,0.0,0.0,34,0.00,,---,0.00,VWS V14.00,2013-03-06 15:03:00,
2013-03-06 08:04:00,22.5,-1.6,0.00,East,88,0.0,0.0,34,0.00,,---,0.00,VWS V14.00,2013-03-06 15:04:00,
2013-03-06 08:05:00,22.5,-1.6,0.00,East,88,0.0,0.0,34,0.00,,---,0.00,VWS V14.00,2013-03-06 15:05:00,
2013-03-06 08:06:00,22.6,-1.5,0.00,East,87,0.0,0.0,34,0.00,,---,0.00,VWS V14.00,2013-03-06 15:06:00,
2013-03-06 08:07:00,29.1,4.9,0.00,East,97,0.0,0.0,35,0.00,,---,0.00,VWS V14.00,2013-03-06 15:07:00,
2013-03-06 08:08:00,22.6,-1.5,0.00,NE,37,0.0,2.2,34,0.00,,---,0.00,VWS V14.00,2013-03-06 15:08:00,
2013-03-06 08:09:00,22.8,-1.3,0.00,NE,36,0.0,0.0,34,0.00,,---,0.00,VWS V14.00,2013-03-06 15:09:00,
2013-03-06 08:10:00,29.5,5.2,0.00,East,99,0.0,0.0,35,0.00,,---,0.00,VWS V14.00,2013-03-06 15:10:00,
2013-03-06 08:11:00,22.8,-1.3,0.00,NE,37,0.0,0.0,34,0.00,,---,0.00,VWS V14.00,2013-03-06 15:11:00,
2013-03-06 08:12:00,22.8,-1.3,0.00,NE,36,0.0,0.0,34,0.00,,---,0.00,VWS V14.00,2013-03-06 15:12:00,
2013-03-06 08:13:00,23.0,-1.2,0.00,NE,37,0.0,0.0,34,0.00,,---,0.00,VWS V14.00,2013-03-06 15:13:00,
2013-03-06 08:14:00,23.0,-1.2,0.00,NE,37,0.0,0.0,34,0.00,,---,0.00,VWS V14.00,2013-03-06 15:14:00,
2013-03-06 08:15:00,30.4,6.0,0.00,SE,132,0.0,0.0,35,0.00,,---,0.00,VWS V14.00,2013-03-06 15:15:00,
2013-03-06 08:16:00,23.2,-1.0,0.00,NE,37,0.0,0.0,34,0.00,,---,0.00,VWS V14.00,2013-03-06 15:16:00,
2013-03-06 08:17:00,23.4,-0.9,0.00,NE,37,0.0,0.0,34,0.00,,---,0.00,VWS V14.00,2013-03-06 15:17:00,
2013-03-06 08:18:00,23.4,-0.9,0.00,NE,37,0.0,0.0,34,0.00,,---,0.00,VWS V14.00,2013-03-06 15:18:00,
2013-03-06 08:19:00,23.5,-0.1,0.00,NE,37,0.0,0.0,35,0.00,,---,0.00,VWS V14.00,2013-03-06 15:19:00,
2013-03-06 08:20:00,31.1,6.7,0.00,ESE,109,0.0,2.2,35,0.00,,---,0.00,VWS V14.00,2013-03-06 15:20:00,
2013-03-06 08:21:00,23.7,0.1,0.00,NNE,25,0.0,0.0,35,0.00,,---,0.00,VWS V14.00,2013-03-06 15:21:00,
2013-03-06 08:22:00,23.9,0.2,0.00,NW,320,0.0,0.0,35,0.00,,---,0.00,VWS V14.00,2013-03-06 15:22:00,
2013-03-06 08:23:00,23.9,0.2,0.00,NW,320,0.0,0.0,35,0.00,,---,0.00,VWS V14.00,2013-03-06 15:23:00,
2013-03-06 08:24:00,31.6,7.1,0.00,East,101,0.0,0.0,35,0.00,,---,0.00,VWS V14.00,2013-03-06 15:24:00,
2013-03-06 08:25:00,24.3,0.6,0.00,NW,320,0.0,0.0,35,0.00,,---,0.00,VWS V14.00,2013-03-06 15:25:00,
2013-03-06 08:26:00,24.4,0.7,0.00,NW,320,0.0,0.0,35,0.00,,---,0.00,VWS V14.00,2013-03-06 15:26:00,
2013-03-06 08:27:00,24.4,0.7,0.00,NW,320,0.0,0.0,35,0.00,,---,0.00,VWS V14.00,2013-03-06 15:27:00,
2013-03-06 08:28:00,24.6,0.9,0.00,NW,314,0.0,0.0,35,0.00,,---,0.00,VWS V14.00,2013-03-06 15:28:00,
2013-03-06 08:29:00,32.5,7.9,0.00,East,99,2.7,4.9,35,0.00,,---,0.00,VWS V14.00,2013-03-06 15:29:00,
2013-03-06 08:30:00,25.0,1.2,0.00,NW,311,0.0,0.0,35,0.00,,---,0.00,VWS V14.00,2013-03-06 15:30:00,
2013-03-06 08:31:00,25.2,1.4,0.00,NW,311,0.0,0.0,35,0.00,,---,0.00,VWS V14.00,2013-03-06 15:31:00,
2013-03-06 08:32:00,25.3,1.5,0.00,NW,311,0.0,0.0,35,0.00,,---,0.00,VWS V14.00,2013-03-06 15:32:00,
2013-03-06 08:33:00,25.5,1.7,0.00,NW,311,0.0,0.0,35,0.00,,---,0.00,VWS V14.00,2013-03-06 15:33:00,
2013-03-06 08:34:00,33.3,7.9,0.00,West,262,2.2,3.1,34,0.00,,---,0.00,VWS V14.00,2013-03-06 15:34:00,
2013-03-06 08:35:00,25.7,1.9,0.00,NW,311,0.0,0.0,35,0.00,,---,0.00,VWS V14.00,2013-03-06 15:35:00,
2013-03-06 08:36:00,26.1,2.2,0.00,NW,311,0.0,0.0,35,0.00,,---,0.00,VWS V14.00,2013-03-06 15:36:00,
2013-03-06 08:37:00,26.8,2.8,0.00,NW,311,0.0,0.0,35,0.00,,---,0.00,VWS V14.00,2013-03-06 15:37:00,
2013-03-06 08:38:00,28.0,3.9,0.00,NW,311,0.0,0.0,35,0.00,,---,0.00,VWS V14.00,2013-03-06 15:38:00,
2013-03-06 08:39:00,33.8,8.4,0.00,East,87,2.7,4.0,34,0.00,,---,0.00,VWS V14.00,2013-03-06 15:39:00,
2013-03-06 08:40:00,27.9,3.8,0.00,NW,311,0.0,0.0,35,0.00,,---,0.00,VWS V14.00,2013-03-06 15:40:00,
2013-03-06 08:41:00,27.7,3.6,0.00,NW,311,0.0,0.0,35,0.00,,---,0.00,VWS V14.00,2013-03-06 15:41:00,
2013-03-06 08:42:00,27.5,3.5,0.00,NW,311,0.0,0.0,35,0.00,,---,0.00,VWS V14.00,2013-03-06 15:42:00,
2013-03-06 08:43:00,27.5,3.5,0.00,NW,311,0.0,0.0,35,0.00,,---,0.00,VWS V14.00,2013-03-06 15:43:00,
2013-03-06 08:44:00,34.3,8.9,0.00,ESE,111,2.2,4.0,34,0.00,,---,0.00,VWS V14.00,2013-03-06 15:44:00,
2013-03-06 08:45:00,27.7,3.6,0.00,NW,311,0.0,0.0,35,0.00,,---,0.00,VWS V14.00,2013-03-06 15:45:00,
2013-03-06 08:46:00,27.9,3.8,0.00,NW,306,0.0,0.0,35,0.00,,---,0.00,VWS V14.00,2013-03-06 15:46:00,
2013-03-06 08:47:00,34.7,8.6,0.00,SE,143,4.0,4.0,33,0.00,,---,0.00,VWS V14.00,2013-03-06 15:47:00,
2013-03-06 08:48:00,27.9,3.8,0.00,NW,311,0.0,0.0,35,0.00,,---,0.00,VWS V14.00,2013-03-06 15:48:00,
2013-03-06 08:49:00,34.9,8.7,0.00,ESE,115,5.8,5.8,33,0.00,,---,0.00,VWS V14.00,2013-03-06 15:49:00,
2013-03-06 08:50:00,28.2,4.1,0.00,NW,306,0.0,0.0,35,0.00,,---,0.00,VWS V14.00,2013-03-06 15:50:00,
2013-03-06 08:51:00,35.1,8.9,0.00,SSE,152,0.0,3.6,33,0.00,,---,0.00,VWS V14.00,2013-03-06 15:51:00,
2013-03-06 08:52:00,28.6,4.4,0.00,NNE,19,0.0,0.0,35,0.00,,---,0.00,VWS V14.00,2013-03-06 15:52:00,
2013-03-06 08:53:00,28.6,4.4,0.00,North,6,0.0,0.0,35,0.00,,---,0.00,VWS V14.00,2013-03-06 15:53:00,
2013-03-06 08:54:00,35.4,9.2,0.00,SE,131,2.7,2.7,33,0.00,,---,0.00,VWS V14.00,2013-03-06 15:54:00,
2013-03-06 08:55:00,28.9,4.7,0.00,East,96,0.0,0.0,35,0.00,,---,0.00,VWS V14.00,2013-03-06 15:55:00,
2013-03-06 08:56:00,35.8,9.5,0.00,ESE,105,0.0,0.0,33,0.00,,---,0.00,VWS V14.00,2013-03-06 15:56:00,
2013-03-06 08:57:00,29.3,5.1,0.00,East,96,0.0,0.0,35,0.00,,---,0.00,VWS V14.00,2013-03-06 15:57:00,
2013-03-06 08:58:00,29.5,5.2,0.00,East,99,0.0,0.0,35,0.00,,---,0.00,VWS V14.00,2013-03-06 15:58:00,
2013-03-06 08:59:00,36.1,9.8,0.00,East,101,4.5,4.5,33,0.00,,---,0.00,VWS V14.00,2013-03-06 15:59:00,
2013-03-06 09:00:00,29.8,5.5,0.00,East,97,0.0,0.0,35,0.00,,---,0.00,VWS V14.00,2013-03-06 16:00:00,
2013-03-06 09:01:00,36.3,10.0,0.00,SSE,150,0.0,2.2,33,0.00,,---,0.00,VWS V14.00,2013-03-06 16:01:00,
2013-03-06 09:02:00,30.0,5.7,0.00,SE,131,0.0,2.2,35,0.00,,---,0.00,VWS V14.00,2013-03-06 16:02:00,
2013-03-06 09:03:00,30.2,5.9,0.00,SE,128,0.0,0.0,35,0.00,,---,0.00,VWS V14.00,2013-03-06 16:03:00,
2013-03-06 09:04:00,36.7,10.3,0.00,East,85,5.4,7.6,33,0.00,,---,0.00,VWS V14.00,2013-03-06 16:04:00,
2013-03-06 09:05:00,30.6,6.2,0.00,SE,128,0.0,0.0,35,0.00,,---,0.00,VWS V14.00,2013-03-06 16:05:00,
2013-03-06 09:06:00,36.7,9.6,0.00,ESE,105,2.7,4.0,32,0.00,,---,0.00,VWS V14.00,2013-03-06 16:06:00,
2013-03-06 09:07:00,30.9,6.5,0.00,SE,125,0.0,0.0,35,0.00,,---,0.00,VWS V14.00,2013-03-06 16:07:00,
2013-03-06 09:08:00,30.9,6.5,0.00,SE,124,0.0,0.0,35,0.00,,---,0.00,VWS V14.00,2013-03-06 16:08:00,
2013-03-06 09:09:00,37.0,9.9,0.00,SE,124,3.6,5.4,32,0.00,,---,0.00,VWS V14.00,2013-03-06 16:09:00,
2013-03-06 09:10:00,31.3,6.8,0.00,East,98,0.0,0.0,35,0.00,,---,0.00,VWS V14.00,2013-03-06 16:10:00,
2013-03-06 09:11:00,37.2,10.1,0.00,ENE,57,2.7,2.7,32,0.00,,---,0.00,VWS V14.00,2013-03-06 16:11:00,
2013-03-06 09:12:00,31.6,7.1,0.00,East,101,0.0,0.0,35,0.00,,---,0.00,VWS V14.00,2013-03-06 16:12:00,
2013-03-06 09:13:00,31.6,7.1,0.00,East,101,0.0,0.0,35,0.00,,---,0.00,VWS V14.00,2013-03-06 16:13:00,
2013-03-06 09:14:00,37.6,10.4,0.00,ENE,70,0.0,3.6,32,0.00,,---,0.00,VWS V14.00,2013-03-06 16:14:00,
2013-03-06 09:15:00,37.6,10.4,0.00,East,93,0.0,2.7,32,0.00,,---,0.00,VWS V14.00,2013-03-06 16:15:00,
2013-03-06 09:16:00,32.2,7.6,0.00,ESE,116,0.0,0.0,35,0.00,,---,0.00,VWS V14.00,2013-03-06 16:16:00,
2013-03-06 09:17:00,32.4,7.8,0.00,ESE,110,0.0,0.0,35,0.00,,---,0.00,VWS V14.00,2013-03-06 16:17:00,
2013-03-06 09:18:00,32.5,7.9,0.00,East,99,2.7,4.9,35,0.00,,---,0.00,VWS V14.00,2013-03-06 16:18:00,
2013-03-06 09:19:00,37.9,10.7,0.00,East,99,6.3,6.3,32,0.00,,---,0.00,VWS V14.00,2013-03-06 16:19:00,
2013-03-06 09:20:00,37.9,10.7,0.00,SE,139,2.7,6.3,32,0.00,,---,0.00,VWS V14.00,2013-03-06 16:20:00,
2013-03-06 09:21:00,32.9,7.6,0.00,SSW,210,2.2,2.2,34,0.00,,---,0.00,VWS V14.00,2013-03-06 16:21:00,
2013-03-06 09:22:00,38.1,10.2,0.00,SE,129,2.7,3.6,31,0.00,,---,0.00,VWS V14.00,2013-03-06 16:22:00,
2013-03-06 09:23:00,33.1,7.8,0.00,East,96,0.0,3.1,34,0.00,,---,0.00,VWS V14.00,2013-03-06 16:23:00,
2013-03-06 09:24:00,38.3,10.3,0.00,ENE,73,4.0,5.4,31,0.00,,---,0.00,VWS V14.00,2013-03-06 16:24:00,
2013-03-06 09:25:00,38.5,10.5,0.00,SE,128,3.1,4.0,31,0.00,,---,0.00,VWS V14.00,2013-03-06 16:25:00,
2013-03-06 09:26:00,33.6,8.3,0.00,ENE,76,0.0,2.7,34,0.00,,---,0.00,VWS V14.00,2013-03-06 16:26:00,
2013-03-06 09:27:00,38.5,10.5,0.00,ENE,64,0.0,4.9,31,0.00,,---,0.00,VWS V14.00,2013-03-06 16:27:00,
2013-03-06 09:28:00,33.8,8.4,0.00,NNE,17,0.0,4.0,34,0.00,,---,0.00,VWS V14.00,2013-03-06 16:28:00,
2013-03-06 09:29:00,38.7,10.6,0.00,East,92,5.4,5.4,31,0.00,,---,0.00,VWS V14.00,2013-03-06 16:29:00,
2013-03-06 09:30:00,38.7,10.6,0.00,ESE,104,2.7,5.4,31,0.00,,---,0.00,VWS V14.00,2013-03-06 16:30:00,
2013-03-06 09:31:00,34.2,8.7,0.00,ENE,62,2.7,2.7,34,0.00,,---,0.00,VWS V14.00,2013-03-06 16:31:00,
2013-03-06 09:32:00,38.8,10.8,0.00,East,95,3.6,5.4,31,0.00,,---,0.00,VWS V14.00,2013-03-06 16:32:00,
2013-03-06 09:33:00,34.3,8.9,0.00,ESE,106,2.7,3.1,34,0.00,,---,0.00,VWS V14.00,2013-03-06 16:33:00,
2013-03-06 09:34:00,34.3,8.9,0.00,ESE,114,2.7,2.7,34,0.00,,---,0.00,VWS V14.00,2013-03-06 16:34:00,
2013-03-06 09:35:00,39.0,11.0,0.00,East,100,2.7,4.0,31,0.00,,---,0.00,VWS V14.00,2013-03-06 16:35:00,
2013-03-06 09:36:00,34.7,8.6,0.00,SE,139,4.0,4.0,33,0.00,,---,0.00,VWS V14.00,2013-03-06 16:36:00,
2013-03-06 09:37:00,39.2,11.1,0.00,NE,43,2.7,3.1,31,0.00,,---,0.00,VWS V14.00,2013-03-06 16:37:00,
2013-03-06 09:38:00,34.9,8.7,0.00,SE,125,0.0,2.2,33,0.00,,---,0.00,VWS V14.00,2013-03-06 16:38:00,
2013-03-06 09:39:00,35.1,8.9,0.00,ESE,123,4.0,5.8,33,0.00,,---,0.00,VWS V14.00,2013-03-06 16:39:00,
2013-03-06 09:40:00,39.4,11.3,0.00,ESE,102,3.6,3.6,31,0.00,,---,0.00,VWS V14.00,2013-03-06 16:40:00,
2013-03-06 09:41:00,35.2,9.0,0.00,SE,133,2.7,2.7,33,0.00,,---,0.00,VWS V14.00,2013-03-06 16:41:00,
2013-03-06 09:42:00,39.6,11.4,0.00,ESE,114,0.0,3.1,31,0.00,,---,0.00,VWS V14.00,2013-03-06 16:42:00,
2013-03-06 09:43:00,35.4,9.2,0.00,ESE,118,0.0,2.7,33,0.00,,---,0.00,VWS V14.00,2013-03-06 16:43:00,
2013-03-06 09:44:00,35.4,9.2,0.00,SE,128,2.7,2.7,33,0.00,,---,0.00,VWS V14.00,2013-03-06 16:44:00,
2013-03-06 09:45:00,39.7,11.6,0.00,South,176,0.0,4.0,31,0.00,,---,0.00,VWS V14.00,2013-03-06 16:45:00,
2013-03-06 09:46:00,35.8,9.5,0.00,ESE,116,4.9,4.9,33,0.00,,---,0.00,VWS V14.00,2013-03-06 16:46:00,
2013-03-06 09:47:00,39.9,11.8,0.00,ENE,73,3.1,5.4,31,0.00,,---,0.00,VWS V14.00,2013-03-06 16:47:00,
2013-03-06 09:48:00,36.1,9.8,0.00,ENE,63,0.0,0.0,33,0.00,,---,0.00,VWS V14.00,2013-03-06 16:48:00,
2013-03-06 09:49:00,36.1,9.8,0.00,ESE,122,3.1,5.8,33,0.00,,---,0.00,VWS V14.00,2013-03-06 16:49:00,
2013-03-06 09:50:00,40.1,11.9,0.00,ESE,120,3.6,3.6,31,0.00,,---,0.00,VWS V14.00,2013-03-06 16:50:00,
2013-03-06 09:51:00,36.3,10.0,0.00,SE,128,0.0,3.1,33,0.00,,---,0.00,VWS V14.00,2013-03-06 16:51:00,
2013-03-06 09:52:00,40.3,12.1,0.00,SE,132,2.7,4.9,31,0.00,,---,0.00,VWS V14.00,2013-03-06 16:52:00,
2013-03-06 09:53:00,36.5,10.1,0.00,SSE,147,6.3,7.6,33,0.00,,---,0.00,VWS V14.00,2013-03-06 16:53:00,
2013-03-06 09:54:00,36.7,10.3,0.00,ESE,105,3.1,5.4,33,0.00,,---,0.00,VWS V14.00,2013-03-06 16:54:00,
2013-03-06 09:55:00,40.5,12.2,0.00,SE,141,4.5,4.5,31,0.00,,---,0.00,VWS V14.00,2013-03-06 16:55:00,
2013-03-06 09:56:00,36.9,9.8,0.00,SE,146,5.8,5.8,32,0.00,,---,0.00,VWS V14.00,2013-03-06 16:56:00,
2013-03-06 09:57:00,40.5,12.2,0.00,SE,143,4.0,4.0,31,0.00,,---,0.00,VWS V14.00,2013-03-06 16:57:00,
2013-03-06 09:58:00,36.9,9.8,0.00,ESE,105,5.4,5.4,32,0.00,,---,0.00,VWS V14.00,2013-03-06 16:58:00,
2013-03-06 09:59:00,37.0,9.9,0.00,ESE,117,3.6,4.0,32,0.00,,---,0.00,VWS V14.00,2013-03-06 16:59:00,
2013-03-06 10:00:00,40.6,12.4,0.00,ESE,112,3.1,5.4,31,0.00,,---,0.00,VWS V14.00,2013-03-06 17:00:00,
2013-03-06 10:01:00,37.4,10.2,0.00,SE,128,4.0,4.0,32,0.00,,---,0.00,VWS V14.00,2013-03-06 17:01:00,
2013-03-06 10:02:00,40.8,12.5,0.00,ENE,62,0.0,4.9,31,0.00,,---,0.00,VWS V14.00,2013-03-06 17:02:00,
2013-03-06 10:03:00,37.6,10.4,0.00,NE,55,2.7,3.6,32,0.00,,---,0.00,VWS V14.00,2013-03-06 17:03:00,
2013-03-06 10:04:00,37.6,10.4,0.00,ENE,77,0.0,2.7,32,0.00,,---,0.00,VWS V14.00,2013-03-06 17:04:00,
2013-03-06 10:05:00,41.0,12.0,0.00,East,94,0.0,0.0,30,0.00,,---,0.00,VWS V14.00,2013-03-06 17:05:00,
2013-03-06 10:06:00,41.0,12.0,0.00,NW,322,2.7,2.7,30,0.00,,---,0.00,VWS V14.00,2013-03-06 17:06:00,
2013-03-06 10:07:00,37.8,10.6,0.00,East,91,0.0,0.0,32,0.00,,---,0.00,VWS V14.00,2013-03-06 17:07:00,
2013-03-06 10:08:00,37.9,10.7,0.00,East,89,0.0,4.9,32,0.00,,---,0.00,VWS V14.00,2013-03-06 17:08:00,
2013-03-06 10:09:00,37.9,10.7,0.00,ENE,76,2.7,6.3,32,0.00,,---,0.00,VWS V14.00,2013-03-06 17:09:00,
2013-03-06 10:10:00,41.2,12.1,0.00,ESE,116,3.1,3.1,30,0.00,,---,0.00,VWS V14.00,2013-03-06 17:10:00,
2013-03-06 10:11:00,41.4,12.3,0.00,East,87,4.0,4.0,30,0.00,,---,0.00,VWS V14.00,2013-03-06 17:11:00,
2013-03-06 10:12:00,38.1,10.2,0.00,SE,128,0.0,2.7,31,0.00,,---,0.00,VWS V14.00,2013-03-06 17:12:00,
2013-03-06 10:13:00,38.3,10.3,0.00,SE,131,2.7,5.4,31,0.00,,---,0.00,VWS V14.00,2013-03-06 17:13:00,
2013-03-06 10:14:00,38.3,10.3,0.00,ENE,67,2.2,4.0,31,0.00,,---,0.00,VWS V14.00,2013-03-06 17:14:00,
2013-03-06 10:15:00,41.5,12.4,0.00,SE,145,0.0,0.0,30,0.00,,---,0.00,VWS V14.00,2013-03-06 17:15:00,
2013-03-06 10:16:00,41.5,12.4,0.00,SE,134,3.1,3.1,30,0.00,,---,0.00,VWS V14.00,2013-03-06 17:16:00,
2013-03-06 10:17:00,38.5,10.5,0.00,SE,142,2.7,4.9,31,0.00,,---,0.00,VWS V14.00,2013-03-06 17:17:00,
2013-03-06 10:18:00,38.7,10.6,0.00,East,92,5.4,5.4,31,0.00,,---,0.00,VWS V14.00,2013-03-06 17:18:00,
2013-03-06 10:19:00,38.7,10.6,0.00,ESE,104,2.7,2.7,31,0.00,,---,0.00,VWS V14.00,2013-03-06 17:19:00,
2013-03-06 10:20:00,41.9,12.7,0.00,SE,126,4.0,4.0,30,0.00,,---,0.00,VWS V14.00,2013-03-06 17:20:00,
2013-03-06 10:21:00,42.1,12.9,0.00,ESE,116,0.0,4.0,30,0.00,,---,0.00,VWS V14.00,2013-03-06 17:21:00,
2013-03-06 10:22:00,38.8,10.8,0.00,East,81,4.9,10.1,31,0.00,,---,0.00,VWS V14.00,2013-03-06 17:22:00,
2013-03-06 10:23:00,39.0,11.0,0.00,ESE,116,3.6,4.0,31,0.00,,---,0.00,VWS V14.00,2013-03-06 17:23:00,
2013-03-06 10:24:00,39.0,11.0,0.00,ESE,120,3.1,4.0,31,0.00,,---,0.00,VWS V14.00,2013-03-06 17:24:00,
2013-03-06 10:25:00,39.2,11.1,0.00,SE,139,5.4,5.4,31,0.00,,---,0.00,VWS V14.00,2013-03-06 17:25:00,
2013-03-06 10:26:00,42.3,13.1,0.00,ENE,70,3.6,5.4,30,0.00,,---,0.00,VWS V14.00,2013-03-06 17:26:00,
2013-03-06 10:27:00,39.2,11.1,0.00,SE,125,0.0,5.4,31,0.00,,---,0.00,VWS V14.00,2013-03-06 17:27:00,
2013-03-06 10:28:00,39.4,11.3,0.00,SE,127,3.6,3.6,31,0.00,,---,0.00,VWS V14.00,2013-03-06 17:28:00,
2013-03-06 10:29:00,42.4,13.2,0.00,SE,127,4.0,5.4,30,0.00,,---,0.00,VWS V14.00,2013-03-06 17:29:00,
2013-03-06 10:30:00,39.4,11.3,0.00,East,84,5.8,5.8,31,0.00,,---,0.00,VWS V14.00,2013-03-06 17:30:00,
2013-03-06 10:31:00,42.6,13.4,0.00,ESE,122,3.6,4.0,30,0.00,,---,0.00,VWS V14.00,2013-03-06 17:31:00,
2013-03-06 10:32:00,39.6,11.4,0.00,SSE,151,0.0,0.0,31,0.00,,---,0.00,VWS V14.00,2013-03-06 17:32:00,
2013-03-06 10:33:00,39.7,11.6,0.00,SE,137,4.0,4.0,31,0.00,,---,0.00,VWS V14.00,2013-03-06 17:33:00,
2013-03-06 10:34:00,42.8,13.5,0.00,East,93,3.1,3.6,30,0.00,,---,0.00,VWS V14.00,2013-03-06 17:34:00,
2013-03-06 10:35:00,39.7,11.6,0.00,SE,126,0.0,2.2,31,0.00,,---,0.00,VWS V14.00,2013-03-06 17:35:00,
2013-03-06 10:36:00,42.8,13.5,0.00,East,84,3.6,3.6,30,0.00,,---,0.00,VWS V14.00,2013-03-06 17:36:00,
2013-03-06 10:37:00,39.9,11.8,0.00,ENE,70,0.0,3.6,31,0.00,,---,0.00,VWS V14.00,2013-03-06 17:37:00,
2013-03-06 10:38:00,39.9,11.8,0.00,ENE,69,0.0,0.0,31,0.00,,---,0.00,VWS V14.00,2013-03-06 17:38:00,
2013-03-06 10:39:00,43.0,13.7,0.00,East,88,5.4,5.4,30,0.00,,---,0.00,VWS V14.00,2013-03-06 17:39:00,
2013-03-06 10:40:00,40.1,11.9,0.00,ESE,109,0.0,3.6,31,0.00,,---,0.00,VWS V14.00,2013-03-06 17:40:00,
2013-03-06 10:41:00,43.2,13.8,0.00,ESE,111,2.7,3.6,30,0.00,,---,0.00,VWS V14.00,2013-03-06 17:41:00,
2013-03-06 10:42:00,40.3,12.1,0.00,ESE,105,3.1,3.1,31,0.00,,---,0.00,VWS V14.00,2013-03-06 17:42:00,
2013-03-06 10:43:00,40.3,12.1,0.00,ESE,121,2.2,2.2,31,0.00,,---,0.00,VWS V14.00,2013-03-06 17:43:00,
2013-03-06 10:44:00,43.2,13.1,0.00,SE,144,2.7,5.4,29,0.00,,---,0.00,VWS V14.00,2013-03-06 17:44:00,
2013-03-06 10:45:00,40.5,12.2,0.00,ESE,109,2.7,5.4,31,0.00,,---,0.00,VWS V14.00,2013-03-06 17:45:00,
2013-03-06 10:46:00,43.3,14.0,0.00,ENE,76,4.0,6.3,30,0.00,,---,0.00,VWS V14.00,2013-03-06 17:46:00,
2013-03-06 10:47:00,40.5,12.2,0.00,SE,140,0.0,0.0,31,0.00,,---,0.00,VWS V14.00,2013-03-06 17:47:00,
2013-03-06 10:48:00,43.5,14.2,0.00,East,85,0.0,6.3,30,0.00,,---,0.00,VWS V14.00,2013-03-06 17:48:00,
2013-03-06 10:49:00,40.6,12.4,0.00,SE,129,0.0,5.4,31,0.00,,---,0.00,VWS V14.00,2013-03-06 17:49:00,
2013-03-06 10:50:00,40.6,12.4,0.00,SE,138,2.7,3.1,31,0.00,,---,0.00,VWS V14.00,2013-03-06 17:50:00,
2013-03-06 10:51:00,43.5,14.2,0.00,ESE,120,2.2,4.0,30,0.00,,---,0.00,VWS V14.00,2013-03-06 17:51:00,
2013-03-06 10:52:00,40.8,12.5,0.00,East,81,0.0,4.0,31,0.00,,---,0.00,VWS V14.00,2013-03-06 17:52:00,
2013-03-06 10:53:00,43.7,14.3,0.00,SSE,155,3.1,4.0,30,0.00,,---,0.00,VWS V14.00,2013-03-06 17:53:00,
2013-03-06 10:54:00,41.0,12.0,0.00,ENE,66,0.0,0.0,30,0.00,,---,0.00,VWS V14.00,2013-03-06 17:54:00,
2013-03-06 10:55:00,41.0,12.0,0.00,WNW,292,0.0,2.7,30,0.00,,---,0.00,VWS V14.00,2013-03-06 17:55:00,
2013-03-06 10:56:00,43.9,13.7,0.00,East,89,3.6,5.4,29,0.00,,---,0.00,VWS V14.00,2013-03-06 17:56:00,
2013-03-06 10:57:00,43.9,14.5,0.00,ENE,71,3.1,5.8,30,0.00,,---,0.00,VWS V14.00,2013-03-06 17:57:00,
2013-03-06 10:58:00,41.2,12.1,0.00,East,101,3.1,5.4,30,0.00,,---,0.00,VWS V14.00,2013-03-06 17:58:00,
2013-03-06 10:59:00,41.2,12.1,0.00,ESE,119,2.2,3.1,30,0.00,,---,0.00,VWS V14.00,2013-03-06 17:59:00,
2013-03-06 11:00:00,41.4,12.3,0.00,ENE,66,4.0,4.0,30,0.00,,---,0.00,VWS V14.00,2013-03-06 18:00:00,
2013-03-06 11:01:00,44.2,14.8,0.00,ESE,121,2.7,4.0,30,0.00,,---,0.00,VWS V14.00,2013-03-06 18:01:00,
2013-03-06 11:02:00,44.2,14.8,0.00,ESE,123,3.1,5.4,30,0.00,,---,0.00,VWS V14.00,2013-03-06 18:02:00,
2013-03-06 11:03:00,41.5,12.4,0.00,SE,145,0.0,3.1,30,0.00,,---,0.00,VWS V14.00,2013-03-06 18:03:00,
2013-03-06 11:04:00,41.5,12.4,0.00,SE,145,0.0,0.0,30,0.00,,---,0.00,VWS V14.00,2013-03-06 18:04:00,
2013-03-06 11:05:00,41.5,12.4,0.00,SE,134,3.1,3.1,30,0.00,,---,0.00,VWS V14.00,2013-03-06 18:05:00,
2013-03-06 11:06:00,41.7,12.6,0.00,ESE,104,2.7,3.6,30,0.00,,---,0.00,VWS V14.00,2013-03-06 18:06:00,
2013-03-06 11:07:00,44.4,14.2,0.00,East,96,3.1,4.9,29,0.00,,---,0.00,VWS V14.00,2013-03-06 18:07:00,
2013-03-06 11:08:00,41.7,12.6,0.00,WSW,246,0.0,0.0,30,0.00,,---,0.00,VWS V14.00,2013-03-06 18:08:00,
2013-03-06 11:09:00,41.9,12.7,0.00,ESE,104,3.6,4.0,30,0.00,,---,0.00,VWS V14.00,2013-03-06 18:09:00,
2013-03-06 11:10:00,42.1,12.9,0.00,ESE,111,0.0,0.0,30,0.00,,---,0.00,VWS V14.00,2013-03-06 18:10:00,
2013-03-06 11:11:00,42.1,12.9,0.00,ENE,60,3.1,3.1,30,0.00,,---,0.00,VWS V14.00,2013-03-06 18:11:00,
2013-03-06 11:12:00,44.8,14.5,0.00,ESE,123,4.0,4.9,29,0.00,,---,0.00,VWS V14.00,2013-03-06 18:12:00,
2013-03-06 11:13:00,42.1,12.9,0.00,East,96,6.3,6.3,30,0.00,,---,0.00,VWS V14.00,2013-03-06 18:13:00,
2013-03-06 11:14:00,42.3,13.1,0.00,WNW,293,2.7,5.8,30,0.00,,---,0.00,VWS V14.00,2013-03-06 18:14:00,
2013-03-06 11:15:00,42.3,13.1,0.00,ENE,70,3.6,5.4,30,0.00,,---,0.00,VWS V14.00,2013-03-06 18:15:00,
2013-03-06 11:16:00,42.3,13.1,0.00,SE,142,5.8,5.8,30,0.00,,---,0.00,VWS V14.00,2013-03-06 18:16:00,
2013-03-06 11:17:00,45.0,14.6,0.00,NE,52,2.7,4.0,29,0.00,,---,0.00,VWS V14.00,2013-03-06 18:17:00,
2013-03-06 11:18:00,42.4,13.2,0.00,ESE,113,3.1,3.6,30,0.00,,---,0.00,VWS V14.00,2013-03-06 18:18:00,
2013-03-06 11:19:00,42.4,13.2,0.00,East,95,3.1,4.0,30,0.00,,---,0.00,VWS V14.00,2013-03-06 18:19:00,
2013-03-06 11:20:00,42.6,13.4,0.00,East,95,4.0,4.0,30,0.00,,---,0.00,VWS V14.00,2013-03-06 18:20:00,
2013-03-06 11:21:00,42.6,13.4,0.00,East,96,3.1,4.0,30,0.00,,---,0.00,VWS V14.00,2013-03-06 18:21:00,
2013-03-06 11:22:00,45.1,14.8,0.00,East,92,0.0,2.7,29,0.00,,---,0.00,VWS V14.00,2013-03-06 18:22:00,
2013-03-06 11:23:00,42.8,13.5,0.00,East,87,3.1,3.6,30,0.00,,---,0.00,VWS V14.00,2013-03-06 18:23:00,
2013-03-06 11:24:00,42.8,13.5,0.00,ESE,104,3.6,3.6,30,0.00,,---,0.00,VWS V14.00,2013-03-06 18:24:00,
2013-03-06 11:25:00,45.3,14.9,0.00,East,92,0.0,5.8,29,0.00,,---,0.00,VWS V14.00,2013-03-06 18:25:00,
2013-03-06 11:26:00,42.8,13.5,0.00,ENE,69,0.0,4.0,30,0.00,,---,0.00,VWS V14.00,2013-03-06 18:26:00,
2013-03-06 11:27:00,45.3,14.9,0.00,SE,129,5.4,5.4,29,0.00,,---,0.00,VWS V14.00,2013-03-06 18:27:00,
2013-03-06 11:28:00,43.0,13.7,0.00,NW,322,3.6,4.0,30,0.00,,---,0.00,VWS V14.00,2013-03-06 18:28:00,
2013-03-06 11:29:00,43.0,13.7,0.00,ESE,116,2.2,5.4,30,0.00,,---,0.00,VWS V14.00,2013-03-06 18:29:00,
2013-03-06 11:30:00,45.5,15.1,0.00,SE,135,3.1,3.6,29,0.00,,---,0.00,VWS V14.00,2013-03-06 18:30:00,
2013-03-06 11:31:00,43.2,13.8,0.00,SSE,150,2.7,6.3,30,0.00,,---,0.00,VWS V14.00,2013-03-06 18:31:00,
2013-03-06 11:32:00,45.7,15.3,0.00,ESE,118,2.7,8.7,29,0.00,,---,0.00,VWS V14.00,2013-03-06 18:32:00,
2013-03-06 11:33:00,43.2,13.1,0.00,East,85,3.1,3.1,29,0.00,,---,0.00,VWS V14.00,2013-03-06 18:33:00,
2013-03-06 11:34:00,43.3,14.0,0.00,SE,124,0.0,0.0,30,0.00,,---,0.00,VWS V14.00,2013-03-06 18:34:00,
2013-03-06 11:35:00,45.7,15.3,0.00,East,99,3.1,4.0,29,0.00,,---,0.00,VWS V14.00,2013-03-06 18:35:00,
2013-03-06 11:36:00,43.3,14.0,0.00,East,86,3.6,4.0,30,0.00,,---,0.00,VWS V14.00,2013-03-06 18:36:00,
2013-03-06 11:37:00,45.7,15.3,0.00,South,173,0.0,4.9,29,0.00,,---,0.00,VWS V14.00,2013-03-06 18:37:00,
2013-03-06 11:38:00,43.5,14.2,0.00,East,87,0.0,2.7,30,0.00,,---,0.00,VWS V14.00,2013-03-06 18:38:00,
2013-03-06 11:39:00,43.5,14.2,0.00,ESE,115,4.0,4.0,30,0.00,,---,0.00,VWS V14.00,2013-03-06 18:39:00,
2013-03-06 11:40:00,45.9,15.4,0.00,ENE,70,7.2,7.2,29,0.00,,---,0.00,VWS V14.00,2013-03-06 18:40:00,
2013-03-06 11:41:00,43.7,14.3,0.00,East,87,3.1,3.1,30,0.00,,---,0.00,VWS V14.00,2013-03-06 18:41:00,
2013-03-06 11:42:00,45.9,15.4,0.00,East,87,2.2,4.9,29,0.00,,---,0.00,VWS V14.00,2013-03-06 18:42:00,
2013-03-06 11:43:00,45.9,15.4,0.00,ESE,111,3.1,3.1,29,0.00,,---,0.00,VWS V14.00,2013-03-06 18:43:00,
2013-03-06 11:44:00,43.7,14.3,0.00,NE,56,3.1,4.0,30,0.00,,---,0.00,VWS V14.00,2013-03-06 18:44:00,
2013-03-06 11:45:00,43.9,13.7,0.00,ESE,114,2.7,2.7,29,0.00,,---,0.00,VWS V14.00,2013-03-06 18:45:00,
2013-03-06 11:46:00,43.9,14.5,0.00,ENE,71,3.1,3.1,30,0.00,,---,0.00,VWS V14.00,2013-03-06 18:46:00,
2013-03-06 11:47:00,46.0,15.6,0.00,East,90,0.0,6.3,29,0.00,,---,0.00,VWS V14.00,2013-03-06 18:47:00,
2013-03-06 11:48:00,46.0,15.6,0.00,ENE,70,4.9,5.4,29,0.00,,---,0.00,VWS V14.00,2013-03-06 18:48:00,
2013-03-06 11:49:00,44.1,14.6,0.00,East,82,0.0,0.0,30,0.00,,---,0.00,VWS V14.00,2013-03-06 18:49:00,
2013-03-06 11:50:00,44.2,14.8,0.00,East,101,3.6,4.0,30,0.00,,---,0.00,VWS V14.00,2013-03-06 18:50:00,
2013-03-06 11:51:00,44.2,14.8,0.00,SE,128,3.6,5.4,30,0.00,,---,0.00,VWS V14.00,2013-03-06 18:51:00,
2013-03-06 11:52:00,46.0,15.6,0.00,NE,54,2.7,3.6,29,0.00,,---,0.00,VWS V14.00,2013-03-06 18:52:00,
2013-03-06 11:53:00,46.0,15.6,0.00,NE,54,5.4,5.4,29,0.00,,---,0.00,VWS V14.00,2013-03-06 18:53:00,
2013-03-06 11:54:00,44.2,14.8,0.00,ESE,107,8.3,8.3,30,0.00,,---,0.00,VWS V14.00,2013-03-06 18:54:00,
2013-03-06 11:55:00,44.4,14.9,0.00,SE,131,4.9,4.9,30,0.00,,---,0.00,VWS V14.00,2013-03-06 18:55:00,
2013-03-06 11:56:00,44.4,14.2,0.00,East,96,3.1,3.1,29,0.00,,---,0.00,VWS V14.00,2013-03-06 18:56:00,
2013-03-06 11:57:00,46.2,15.7,0.00,ESE,118,0.0,3.1,29,0.00,,---,0.00,VWS V14.00,2013-03-06 18:57:00,
2013-03-06 11:59:00,44.6,14.3,0.00,East,100,2.7,3.6,29,0.00,,---,0.00,VWS V14.00,2013-03-06 18:59:00,
2013-03-06 12:00:00,44.6,14.3,0.00,ESE,110,3.6,3.6,29,0.00,,---,0.00,VWS V14.00,2013-03-06 19:00:00,
2013-03-06 12:01:00,44.8,14.5,0.00,ESE,123,4.0,4.9,29,0.00,,---,0.00,VWS V14.00,2013-03-06 19:01:00,
2013-03-06 12:02:00,46.2,15.7,0.00,ENE,63,0.0,4.9,29,0.00,,---,0.00,VWS V14.00,2013-03-06 19:02:00,
2013-03-06 12:03:00,46.4,15.9,0.00,NE,46,3.6,6.7,29,0.00,,---,0.00,VWS V14.00,2013-03-06 19:03:00,
2013-03-06 12:04:00,44.8,14.5,0.00,ESE,106,2.7,3.1,29,0.00,,---,0.00,VWS V14.00,2013-03-06 19:04:00,
2013-03-06 12:05:00,45.0,14.6,0.00,SE,134,0.0,4.9,29,0.00,,---,0.00,VWS V14.00,2013-03-06 19:05:00,
2013-03-06 12:06:00,46.4,15.1,0.00,NE,49,0.0,5.4,28,0.00,,---,0.00,VWS V14.00,2013-03-06 19:06:00,
2013-03-06 12:07:00,45.0,14.6,0.00,East,83,2.7,2.7,29,0.00,,---,0.00,VWS V14.00,2013-03-06 19:07:00,
2013-03-06 12:08:00,46.4,15.9,0.00,East,90,4.9,4.9,29,0.00,,---,0.00,VWS V14.00,2013-03-06 19:08:00,
2013-03-06 12:09:00,45.1,14.8,0.00,ESE,114,0.0,3.6,29,0.00,,---,0.00,VWS V14.00,2013-03-06 19:09:00,
2013-03-06 12:10:00,45.1,14.8,0.00,East,80,2.7,3.6,29,0.00,,---,0.00,VWS V14.00,2013-03-06 19:10:00,
2013-03-06 12:11:00,46.6,15.2,0.00,ENE,73,0.0,4.0,28,0.00,,---,0.00,VWS V14.00,2013-03-06 19:11:00,
2013-03-06 12:12:00,45.1,14.8,0.00,ESE,114,0.0,0.0,29,0.00,,---,0.00,VWS V14.00,2013-03-06 19:12:00,
2013-03-06 12:13:00,46.6,15.2,0.00,NE,53,4.0,4.0,28,0.00,,---,0.00,VWS V14.00,2013-03-06 19:13:00,
2013-03-06 12:14:00,45.3,14.9,0.00,ESE,120,0.0,5.8,29,0.00,,---,0.00,VWS V14.00,2013-03-06 19:14:00,
2013-03-06 12:15:00,45.3,14.9,0.00,East,100,4.0,4.0,29,0.00,,---,0.00,VWS V14.00,2013-03-06 19:15:00,
2013-03-06 12:16:00,46.6,15.2,0.00,ESE,120,3.6,5.4,28,0.00,,---,0.00,VWS V14.00,2013-03-06 19:16:00,
2013-03-06 12:17:00,45.3,14.9,0.00,ESE,106,3.1,5.4,29,0.00,,---,0.00,VWS V14.00,2013-03-06 19:17:00,
2013-03-06 12:18:00,46.6,15.2,0.00,SE,134,0.0,5.4,28,0.00,,---,0.00,VWS V14.00,2013-03-06 19:18:00,
2013-03-06 12:19:00,45.5,15.1,0.00,SE,135,3.1,3.6,29,0.00,,---,0.00,VWS V14.00,2013-03-06 19:19:00,
2013-03-06 12:20:00,45.5,15.1,0.00,East,87,5.8,5.8,29,0.00,,---,0.00,VWS V14.00,2013-03-06 19:20:00,
2013-03-06 12:21:00,46.6,15.2,0.00,ENE,68,0.0,3.1,28,0.00,,---,0.00,VWS V14.00,2013-03-06 19:21:00,
2013-03-06 12:22:00,45.7,15.3,0.00,ENE,57,4.0,5.4,29,0.00,,---,0.00,VWS V14.00,2013-03-06 19:22:00,
2013-03-06 12:23:00,46.8,16.2,0.00,ESE,116,3.6,5.4,29,0.00,,---,0.00,VWS V14.00,2013-03-06 19:23:00,
2013-03-06 12:24:00,45.7,15.3,0.00,East,99,3.1,4.0,29,0.00,,---,0.00,VWS V14.00,2013-03-06 19:24:00,
2013-03-06 12:25:00,45.7,15.3,0.00,East,79,4.9,6.3,29,0.00,,---,0.00,VWS V14.00,2013-03-06 19:25:00,
2013-03-06 12:26:00,46.8,16.2,0.00,East,80,0.0,4.0,29,0.00,,---,0.00,VWS V14.00,2013-03-06 19:26:00,
2013-03-06 12:27:00,45.7,15.3,0.00,ESE,113,2.7,4.0,29,0.00,,---,0.00,VWS V14.00,2013-03-06 19:27:00,
2013-03-06 12:28:00,46.8,16.2,0.00,ENE,63,0.0,5.8,29,0.00,,---,0.00,VWS V14.00,2013-03-06 19:28:00,
2013-03-06 12:29:00,45.9,15.4,0.00,ENE,70,7.2,7.2,29,0.00,,---,0.00,VWS V14.00,2013-03-06 19:29:00,
2013-03-06 12:30:00,45.9,15.4,0.00,East,98,4.9,4.9,29,0.00,,---,0.00,VWS V14.00,2013-03-06 19:30:00,
2013-03-06 12:31:00,46.9,16.4,0.00,East,101,3.1,3.1,29,0.00,,---,0.00,VWS V14.00,2013-03-06 19:31:00,
2013-03-06 12:32:00,45.9,15.4,0.00,NE,51,3.1,3.1,29,0.00,,---,0.00,VWS V14.00,2013-03-06 19:32:00,
2013-03-06 12:33:00,46.9,16.4,0.00,ESE,102,2.7,5.8,29,0.00,,---,0.00,VWS V14.00,2013-03-06 19:33:00,
2013-03-06 12:34:00,45.9,15.4,0.00,ESE,115,3.6,4.0,29,0.00,,---,0.00,VWS V14.00,2013-03-06 19:34:00,
2013-03-06 12:35:00,47.1,16.5,0.00,SE,127,4.9,4.9,29,0.00,,---,0.00,VWS V14.00,2013-03-06 19:35:00,
2013-03-06 12:36:00,46.0,15.6,0.00,East,89,3.6,6.3,29,0.00,,---,0.00,VWS V14.00,2013-03-06 19:36:00,
2013-03-06 12:37:00,46.0,15.6,0.00,NE,56,0.0,4.9,29,0.00,,---,0.00,VWS V14.00,2013-03-06 19:37:00,
2013-03-06 12:38:00,46.0,15.6,0.00,ESE,112,4.0,4.9,29,0.00,,---,0.00,VWS V14.00,2013-03-06 19:38:00,
2013-03-06 12:39:00,46.0,15.6,0.00,East,98,2.7,2.7,29,0.00,,---,0.00,VWS V14.00,2013-03-06 19:39:00,
2013-03-06 12:40:00,47.3,16.7,0.00,East,101,3.1,3.6,29,0.00,,---,0.00,VWS V14.00,2013-03-06 19:40:00,
2013-03-06 12:41:00,46.0,15.6,0.00,ENE,77,3.1,3.1,29,0.00,,---,0.00,VWS V14.00,2013-03-06 19:41:00,
2013-03-06 12:42:00,46.0,15.6,0.00,East,85,3.6,5.4,29,0.00,,---,0.00,VWS V14.00,2013-03-06 19:42:00,
2013-03-06 12:43:00,46.0,15.6,0.00,ESE,122,3.1,5.4,29,0.00,,---,0.00,VWS V14.00,2013-03-06 19:43:00,
2013-03-06 12:44:00,47.3,16.7,0.00,East,98,2.7,5.4,29,0.00,,---,0.00,VWS V14.00,2013-03-06 19:44:00,
2013-03-06 12:45:00,46.2,15.7,0.00,East,99,0.0,4.9,29,0.00,,---,0.00,VWS V14.00,2013-03-06 19:45:00,
2013-03-06 12:46:00,47.5,16.8,0.00,NW,322,0.0,3.1,29,0.00,,---,0.00,VWS V14.00,2013-03-06 19:46:00,
2013-03-06 12:47:00,46.2,15.7,0.00,ESE,122,2.2,4.9,29,0.00,,---,0.00,VWS V14.00,2013-03-06 19:47:00,
2013-03-06 12:48:00,46.2,15.7,0.00,ESE,117,2.7,5.4,29,0.00,,---,0.00,VWS V14.00,2013-03-06 19:48:00,
2013-03-06 12:49:00,47.5,16.8,0.00,ESE,112,4.9,4.9,29,0.00,,---,0.00,VWS V14.00,2013-03-06 19:49:00,
2013-03-06 12:50:00,46.2,15.7,0.00,East,85,4.0,4.0,29,0.00,,---,0.00,VWS V14.00,2013-03-06 19:50:00,
2013-03-06 12:51:00,47.5,16.8,0.00,ESE,119,0.0,3.6,29,0.00,,---,0.00,VWS V14.00,2013-03-06 19:51:00,
2013-03-06 12:52:00,46.4,15.9,0.00,SSW,205,3.1,6.7,29,0.00,,---,0.00,VWS V14.00,2013-03-06 19:52:00,
2013-03-06 12:53:00,46.4,15.9,0.00,ENE,65,3.1,4.0,29,0.00,,---,0.00,VWS V14.00,2013-03-06 19:53:00,
2013-03-06 12:54:00,47.5,16.8,0.00,East,83,3.1,7.6,29,0.00,,---,0.00,VWS V14.00,2013-03-06 19:54:00,
2013-03-06 12:55:00,46.4,15.1,0.00,NE,49,0.0,5.4,28,0.00,,---,0.00,VWS V14.00,2013-03-06 19:55:00,
2013-03-06 12:56:00,47.5,16.8,0.00,SE,128,2.7,7.6,29,0.00,,---,0.00,VWS V14.00,2013-03-06 19:56:00,
2013-03-06 12:57:00,46.4,15.9,0.00,ENE,77,3.6,4.0,29,0.00,,---,0.00,VWS V14.00,2013-03-06 19:57:00,
2013-03-06 12:58:00,46.4,15.9,0.00,SE,127,5.4,5.4,29,0.00,,---,0.00,VWS V14.00,2013-03-06 19:58:00,
2013-03-06 12:59:00,47.7,17.0,0.00,East,80,4.0,4.0,29,0.00,,---,0.00,VWS V14.00,2013-03-06 19:59:00,
2013-03-06 13:00:00,46.6,15.2,0.00,ENE,73,4.0,4.0,28,0.00,,---,0.00,VWS V14.00,2013-03-06 20:00:00,
2013-03-06 13:01:00,47.7,16.2,0.00,ENE,75,3.1,5.8,28,0.00,,---,0.00,VWS V14.00,2013-03-06 20:01:00,
2013-03-06 13:02:00,46.6,15.2,0.00,NE,53,4.0,4.0,28,0.00,,---,0.00,VWS V14.00,2013-03-06 20:02:00,
2013-03-06 13:03:00,46.6,15.2,0.00,East,83,2.7,4.0,28,0.00,,---,0.00,VWS V14.00,2013-03-06 20:03:00,
2013-03-06 13:04:00,47.8,17.1,0.00,SE,138,7.2,7.2,29,0.00,,---,0.00,VWS V14.00,2013-03-06 20:04:00,
2013-03-06 13:05:00,46.6,15.2,0.00,ESE,120,3.6,5.4,28,0.00,,---,0.00,VWS V14.00,2013-03-06 20:05:00,
2013-03-06 13:06:00,47.8,17.1,0.00,ESE,109,3.1,6.3,29,0.00,,---,0.00,VWS V14.00,2013-03-06 20:06:00,
2013-03-06 13:07:00,46.6,15.2,0.00,SE,134,0.0,5.4,28,0.00,,---,0.00,VWS V14.00,2013-03-06 20:07:00,
2013-03-06 13:08:00,46.6,15.2,0.00,ESE,106,2.7,3.1,28,0.00,,---,0.00,VWS V14.00,2013-03-06 20:08:00,
2013-03-06 13:09:00,48.0,17.3,0.00,South,174,5.4,7.2,29,0.00,,---,0.00,VWS V14.00,2013-03-06 20:09:00,
2013-03-06 13:10:00,46.6,15.2,0.00,ENE,68,0.0,3.1,28,0.00,,---,0.00,VWS V14.00,2013-03-06 20:10:00,
2013-03-06 13:11:00,48.0,17.3,0.00,East,97,2.2,4.9,29,0.00,,---,0.00,VWS V14.00,2013-03-06 20:11:00,
2013-03-06 13:12:00,46.8,16.2,0.00,ESE,104,2.7,5.4,29,0.00,,---,0.00,VWS V14.00,2013-03-06 20:12:00,
2013-03-06 13:13:00,46.8,16.2,0.00,ENE,65,4.0,4.9,29,0.00,,---,0.00,VWS V14.00,2013-03-06 20:13:00,
2013-03-06 13:14:00,48.0,17.3,0.00,East,84,3.1,10.5,29,0.00,,---,0.00,VWS V14.00,2013-03-06 20:14:00,
2013-03-06 13:15:00,46.8,16.2,0.00,East,80,0.0,4.0,29,0.00,,---,0.00,VWS V14.00,2013-03-06 20:15:00,
2013-03-06 13:16:00,48.0,16.5,0.00,ESE,110,3.6,5.8,28,0.00,,---,0.00,VWS V14.00,2013-03-06 20:16:00,
2013-03-06 13:17:00,46.8,16.2,0.00,ENE,63,0.0,5.8,29,0.00,,---,0.00,VWS V14.00,2013-03-06 20:17:00,
2013-03-06 13:18:00,46.9,16.4,0.00,East,100,0.0,0.0,29,0.00,,---,0.00,VWS V14.00,2013-03-06 20:18:00,
2013-03-06 13:19:00,48.2,16.6,0.00,East,82,3.1,3.6,28,0.00,,---,0.00,VWS V14.00,2013-03-06 20:19:00,
2013-03-06 13:20:00,46.9,16.4,0.00,ESE,104,4.0,4.0,29,0.00,,---,0.00,VWS V14.00,2013-03-06 20:20:00,
2013-03-06 13:21:00,48.2,16.6,0.00,ESE,105,3.1,3.1,28,0.00,,---,0.00,VWS V14.00,2013-03-06 20:21:00,
2013-03-06 13:22:00,46.9,16.4,0.00,ESE,102,2.7,5.8,29,0.00,,---,0.00,VWS V14.00,2013-03-06 20:22:00,
2013-03-06 13:23:00,46.9,16.4,0.00,ESE,109,3.6,4.0,29,0.00,,---,0.00,VWS V14.00,2013-03-06 20:23:00,
2013-03-06 13:24:00,47.1,16.5,0.00,ESE,123,3.6,3.6,29,0.00,,---,0.00,VWS V14.00,2013-03-06 20:24:00,
2013-03-06 13:25:00,47.1,16.5,0.00,East,95,2.7,4.9,29,0.00,,---,0.00,VWS V14.00,2013-03-06 20:25:00,
2013-03-06 13:26:00,48.4,16.8,0.00,East,93,3.1,5.4,28,0.00,,---,0.00,VWS V14.00,2013-03-06 20:26:00,
2013-03-06 13:27:00,47.1,16.5,0.00,ESE,105,4.0,4.0,29,0.00,,---,0.00,VWS V14.00,2013-03-06 20:27:00,
2013-03-06 13:28:00,47.3,16.7,0.00,ESE,106,3.6,4.0,29,0.00,,---,0.00,VWS V14.00,2013-03-06 20:28:00,
2013-03-06 13:29:00,47.3,16.7,0.00,ESE,105,3.1,3.1,29,0.00,,---,0.00,VWS V14.00,2013-03-06 20:29:00,
2013-03-06 13:30:00,47.3,16.7,0.00,East,86,2.7,2.7,29,0.00,,---,0.00,VWS V14.00,2013-03-06 20:30:00,
2013-03-06 13:31:00,48.7,17.1,0.00,ENE,75,4.9,5.8,28,0.00,,---,0.00,VWS V14.00,2013-03-06 20:31:00,
2013-03-06 13:32:00,47.3,16.7,0.00,SE,127,5.4,5.4,29,0.00,,---,0.00,VWS V14.00,2013-03-06 20:32:00,
2013-03-06 13:33:00,47.3,16.7,0.00,East,98,2.7,5.4,29,0.00,,---,0.00,VWS V14.00,2013-03-06 20:33:00,
2013-03-06 13:34:00,47.3,16.7,0.00,ENE,60,2.7,2.7,29,0.00,,---,0.00,VWS V14.00,2013-03-06 20:34:00,
2013-03-06 13:35:00,48.9,17.3,0.00,ESE,118,4.0,4.0,28,0.00,,---,0.00,VWS V14.00,2013-03-06 20:35:00,
2013-03-06 13:36:00,47.5,16.8,0.00,ENE,61,2.2,3.1,29,0.00,,---,0.00,VWS V14.00,2013-03-06 20:36:00,
2013-03-06 13:37:00,47.5,16.8,0.00,ESE,115,3.1,3.1,29,0.00,,---,0.00,VWS V14.00,2013-03-06 20:37:00,
2013-03-06 13:38:00,47.5,16.8,0.00,ESE,112,4.9,4.9,29,0.00,,---,0.00,VWS V14.00,2013-03-06 20:38:00,
2013-03-06 13:39:00,47.5,16.8,0.00,ESE,107,2.2,4.9,29,0.00,,---,0.00,VWS V14.00,2013-03-06 20:39:00,
2013-03-06 13:40:00,49.3,17.6,0.00,ESE,107,2.7,8.7,28,0.00,,---,0.00,VWS V14.00,2013-03-06 20:40:00,
2013-03-06 13:41:00,47.5,16.8,0.00,ESE,118,0.0,0.0,29,0.00,,---,0.00,VWS V14.00,2013-03-06 20:41:00,
2013-03-06 13:42:00,47.5,16.8,0.00,West,265,3.1,3.1,29,0.00,,---,0.00,VWS V14.00,2013-03-06 20:42:00,
2013-03-06 13:43:00,47.5,16.8,0.00,ENE,75,7.6,7.6,29,0.00,,---,0.00,VWS V14.00,2013-03-06 20:43:00,
2013-03-06 13:44:00,47.5,16.8,0.00,ESE,108,4.0,4.5,29,0.00,,---,0.00,VWS V14.00,2013-03-06 20:44:00,
2013-03-06 13:45:00,49.5,17.7,0.00,ENE,73,0.0,7.6,28,0.00,,---,0.00,VWS V14.00,2013-03-06 20:45:00,
2013-03-06 13:46:00,47.7,17.0,0.00,SE,146,3.1,4.0,29,0.00,,---,0.00,VWS V14.00,2013-03-06 20:46:00,
2013-03-06 13:47:00,47.7,17.0,0.00,ESE,119,2.2,2.2,29,0.00,,---,0.00,VWS V14.00,2013-03-06 20:47:00,
2013-03-06 13:48:00,47.7,17.0,0.00,East,80,4.0,4.0,29,0.00,,---,0.00,VWS V14.00,2013-03-06 20:48:00,
2013-03-06 13:49:00,47.7,17.0,0.00,East,82,5.8,5.8,29,0.00,,---,0.00,VWS V14.00,2013-03-06 20:49:00,
2013-03-06 13:50:00,49.8,18.0,0.00,SE,140,3.6,5.4,28,0.00,,---,0.00,VWS V14.00,2013-03-06 20:50:00,
2013-03-06 13:51:00,47.7,17.0,0.00,ESE,106,3.1,3.1,29,0.00,,---,0.00,VWS V14.00,2013-03-06 20:51:00,
2013-03-06 13:52:00,47.8,16.3,0.00,East,81,4.0,4.0,28,0.00,,---,0.00,VWS V14.00,2013-03-06 20:52:00,
2013-03-06 13:53:00,47.8,17.1,0.00,East,82,5.4,7.2,29,0.00,,---,0.00,VWS V14.00,2013-03-06 20:53:00,
2013-03-06 13:54:00,47.8,17.1,0.00,East,98,5.4,5.4,29,0.00,,---,0.00,VWS V14.00,2013-03-06 20:54:00,
2013-03-06 13:55:00,50.0,18.2,0.00,East,93,3.1,8.3,28,0.00,,---,0.00,VWS V14.00,2013-03-06 20:55:00,
2013-03-06 13:56:00,47.8,17.1,0.00,ESE,122,5.4,5.4,29,0.00,,---,0.00,VWS V14.00,2013-03-06 20:56:00,
2013-03-06 13:57:00,50.0,18.2,0.00,East,81,4.0,4.0,28,0.00,,---,0.00,VWS V14.00,2013-03-06 20:57:00,
2013-03-06 13:58:00,47.8,17.1,0.00,NE,50,7.2,7.2,29,0.00,,---,0.00,VWS V14.00,2013-03-06 20:58:00,
2013-03-06 13:59:00,50.0,18.2,0.00,ESE,107,2.7,6.3,28,0.00,,---,0.00,VWS V14.00,2013-03-06 20:59:00,
2013-03-06 14:00:00,48.0,17.3,0.00,ENE,73,4.9,4.9,29,0.00,,---,0.00,VWS V14.00,2013-03-06 21:00:00,
2013-03-06 14:01:00,48.0,17.3,0.00,East,94,2.7,4.0,29,0.00,,---,0.00,VWS V14.00,2013-03-06 21:01:00,
2013-03-06 14:02:00,50.2,18.4,0.00,SE,142,2.7,5.4,28,0.00,,---,0.00,VWS V14.00,2013-03-06 21:02:00,
2013-03-06 14:03:00,48.0,17.3,0.00,SE,143,3.1,3.1,29,0.00,,---,0.00,VWS V14.00,2013-03-06 21:03:00,
2013-03-06 14:04:00,48.0,17.3,0.00,NE,56,5.8,5.8,29,0.00,,---,0.00,VWS V14.00,2013-03-06 21:04:00,
2013-03-06 14:05:00,48.0,16.5,0.00,ESE,102,4.0,4.0,28,0.00,,---,0.00,VWS V14.00,2013-03-06 21:05:00,
2013-03-06 14:06:00,48.0,16.5,0.00,ESE,111,3.1,3.1,28,0.00,,---,0.00,VWS V14.00,2013-03-06 21:06:00,
2013-03-06 14:07:00,50.4,18.5,0.00,SE,129,3.6,3.6,28,0.00,,---,0.00,VWS V14.00,2013-03-06 21:07:00,
2013-03-06 14:08:00,48.0,16.5,0.00,ENE,71,0.0,0.0,28,0.00,,---,0.00,VWS V14.00,2013-03-06 21:08:00,
2013-03-06 14:09:00,48.2,16.6,0.00,ESE,116,5.8,6.3,28,0.00,,---,0.00,VWS V14.00,2013-03-06 21:09:00,
2013-03-06 14:10:00,48.2,16.6,0.00,ESE,106,0.0,3.1,28,0.00,,---,0.00,VWS V14.00,2013-03-06 21:10:00,
2013-03-06 14:11:00,50.5,18.7,0.00,SE,128,4.0,5.4,28,0.00,,---,0.00,VWS V14.00,2013-03-06 21:11:00,
2013-03-06 14:12:00,48.2,16.6,0.00,NE,47,3.6,4.5,28,0.00,,---,0.00,VWS V14.00,2013-03-06 21:12:00,
2013-03-06 14:13:00,48.4,16.8,0.00,NE,49,3.6,3.6,28,0.00,,---,0.00,VWS V14.00,2013-03-06 21:13:00,
2013-03-06 14:14:00,48.4,16.8,0.00,SE,139,3.1,3.6,28,0.00,,---,0.00,VWS V14.00,2013-03-06 21:14:00,
2013-03-06 14:15:00,48.4,16.8,0.00,ENE,71,3.6,5.4,28,0.00,,---,0.00,VWS V14.00,2013-03-06 21:15:00,
2013-03-06 14:16:00,50.2,18.4,0.00,East,79,5.4,6.3,28,0.00,,---,0.00,VWS V14.00,2013-03-06 21:16:00,
2013-03-06 14:17:00,48.6,17.0,0.00,ESE,106,2.7,4.0,28,0.00,,---,0.00,VWS V14.00,2013-03-06 21:17:00,
2013-03-06 14:18:00,48.6,17.0,0.00,East,86,3.1,5.4,28,0.00,,---,0.00,VWS V14.00,2013-03-06 21:18:00,
2013-03-06 14:19:00,48.6,17.0,0.00,ESE,106,2.7,4.0,28,0.00,,---,0.00,VWS V14.00,2013-03-06 21:19:00,
2013-03-06 14:20:00,48.7,17.1,0.00,ENE,58,4.5,5.8,28,0.00,,---,0.00,VWS V14.00,2013-03-06 21:20:00,
2013-03-06 14:21:00,50.4,17.7,0.00,ESE,109,4.9,5.4,27,0.00,,---,0.00,VWS V14.00,2013-03-06 21:21:00,
2013-03-06 14:22:00,48.7,17.1,0.00,ESE,112,2.2,3.1,28,0.00,,---,0.00,VWS V14.00,2013-03-06 21:22:00,
2013-03-06 14:23:00,48.7,17.1,0.00,ESE,117,2.7,3.1,28,0.00,,---,0.00,VWS V14.00,2013-03-06 21:23:00,
2013-03-06 14:24:00,48.9,17.3,0.00,ESE,118,4.0,4.0,28,0.00,,---,0.00,VWS V14.00,2013-03-06 21:24:00,
2013-03-06 14:25:00,48.9,17.3,0.00,East,94,3.1,3.1,28,0.00,,---,0.00,VWS V14.00,2013-03-06 21:25:00,
2013-03-06 14:26:00,50.5,17.8,0.00,ESE,113,0.0,5.4,27,0.00,,---,0.00,VWS V14.00,2013-03-06 21:26:00,
2013-03-06 14:27:00,49.1,17.4,0.00,SE,145,6.3,6.3,28,0.00,,---,0.00,VWS V14.00,2013-03-06 21:27:00,
2013-03-06 14:28:00,49.1,17.4,0.00,ESE,114,5.4,8.3,28,0.00,,---,0.00,VWS V14.00,2013-03-06 21:28:00,
2013-03-06 14:29:00,49.3,17.6,0.00,East,91,4.5,4.5,28,0.00,,---,0.00,VWS V14.00,2013-03-06 21:29:00,
2013-03-06 14:30:00,49.3,17.6,0.00,SSE,164,3.1,3.1,28,0.00,,---,0.00,VWS V14.00,2013-03-06 21:30:00,
2013-03-06 14:31:00,50.5,17.8,0.00,SE,136,3.1,5.4,27,0.00,,---,0.00,VWS V14.00,2013-03-06 21:31:00,
2013-03-06 14:32:00,49.5,17.7,0.00,East,93,3.6,4.0,28,0.00,,---,0.00,VWS V14.00,2013-03-06 21:32:00,
2013-03-06 14:33:00,49.5,17.7,0.00,East,90,3.6,8.1,28,0.00,,---,0.00,VWS V14.00,2013-03-06 21:33:00,
2013-03-06 14:34:00,49.5,17.7,0.00,ENE,73,0.0,0.0,28,0.00,,---,0.00,VWS V14.00,2013-03-06 21:34:00,
2013-03-06 14:35:00,49.6,17.9,0.00,ESE,105,7.2,7.2,28,0.00,,---,0.00,VWS V14.00,2013-03-06 21:35:00,
2013-03-06 14:36:00,50.5,17.8,0.00,NE,49,0.0,4.5,27,0.00,,---,0.00,VWS V14.00,2013-03-06 21:36:00,
2013-03-06 14:37:00,49.6,17.9,0.00,East,79,0.0,7.6,28,0.00,,---,0.00,VWS V14.00,2013-03-06 21:37:00,
2013-03-06 14:38:00,49.6,17.9,0.00,ESE,111,2.7,5.8,28,0.00,,---,0.00,VWS V14.00,2013-03-06 21:38:00,
2013-03-06 14:39:00,49.8,18.0,0.00,SE,140,3.6,5.4,28,0.00,,---,0.00,VWS V14.00,2013-03-06 21:39:00,
2013-03-06 14:40:00,49.8,18.0,0.00,NNE,21,3.1,4.9,28,0.00,,---,0.00,VWS V14.00,2013-03-06 21:40:00,
2013-03-06 14:41:00,50.5,17.8,0.00,East,98,2.2,3.6,27,0.00,,---,0.00,VWS V14.00,2013-03-06 21:41:00,
2013-03-06 14:42:00,49.8,18.0,0.00,ENE,78,2.7,5.4,28,0.00,,---,0.00,VWS V14.00,2013-03-06 21:42:00,
2013-03-06 14:43:00,49.8,18.0,0.00,East,96,8.3,8.3,28,0.00,,---,0.00,VWS V14.00,2013-03-06 21:43:00,
2013-03-06 14:44:00,50.0,18.2,0.00,East,93,3.1,8.3,28,0.00,,---,0.00,VWS V14.00,2013-03-06 21:44:00,
2013-03-06 14:45:00,50.0,18.2,0.00,NE,46,2.7,2.7,28,0.00,,---,0.00,VWS V14.00,2013-03-06 21:45:00,
2013-03-06 14:46:00,50.4,17.7,0.00,SE,127,2.7,5.4,27,0.00,,---,0.00,VWS V14.00,2013-03-06 21:46:00,
2013-03-06 14:47:00,50.0,18.2,0.00,ESE,120,4.0,6.3,28,0.00,,---,0.00,VWS V14.00,2013-03-06 21:47:00,
2013-03-06 14:48:00,50.0,18.2,0.00,ESE,106,2.2,2.7,28,0.00,,---,0.00,VWS V14.00,2013-03-06 21:48:00,
2013-03-06 14:49:00,50.2,18.4,0.00,ENE,60,2.7,4.0,28,0.00,,---,0.00,VWS V14.00,2013-03-06 21:49:00,
2013-03-06 14:50:00,50.4,17.7,0.00,SE,145,3.6,3.6,27,0.00,,---,0.00,VWS V14.00,2013-03-06 21:50:00,
2013-03-06 14:51:00,50.2,18.4,0.00,ESE,120,3.6,3.6,28,0.00,,---,0.00,VWS V14.00,2013-03-06 21:51:00,
2013-03-06 14:52:00,50.2,18.4,0.00,ENE,69,0.0,0.0,28,0.00,,---,0.00,VWS V14.00,2013-03-06 21:52:00,
2013-03-06 14:53:00,50.4,17.7,0.00,ENE,78,0.0,3.6,27,0.00,,---,0.00,VWS V14.00,2013-03-06 21:53:00,
2013-03-06 14:54:00,50.2,18.4,0.00,East,99,2.2,2.2,28,0.00,,---,0.00,VWS V14.00,2013-03-06 21:54:00,
2013-03-06 14:55:00,50.4,17.7,0.00,ESE,104,0.0,4.0,27,0.00,,---,0.00,VWS V14.00,2013-03-06 21:55:00,
2013-03-06 14:56:00,50.2,18.4,0.00,ENE,74,3.1,3.6,28,0.00,,---,0.00,VWS V14.00,2013-03-06 21:56:00,
2013-03-06 14:57:00,50.4,18.5,0.00,ESE,114,3.1,3.1,28,0.00,,---,0.00,VWS V14.00,2013-03-06 21:57:00,
2013-03-06 14:58:00,50.4,17.7,0.00,ESE,104,0.0,4.0,27,0.00,,---,0.00,VWS V14.00,2013-03-06 21:58:00,
2013-03-06 14:59:00,50.5,17.8,0.00,ESE,111,3.1,5.4,27,0.00,,---,0.00,VWS V14.00,2013-03-06 21:59:00,
2013-03-06 15:00:00,50.4,17.7,0.00,East,100,3.1,4.0,27,0.00,,---,0.00,VWS V14.00,2013-03-06 22:00:00,
2013-03-06 15:01:00,50.5,18.7,0.00,ESE,115,7.6,7.6,28,0.00,,---,0.00,VWS V14.00,2013-03-06 22:01:00,
2013-03-06 15:02:00,50.4,17.7,0.00,East,100,0.0,0.0,27,0.00,,---,0.00,VWS V14.00,2013-03-06 22:02:00,
2013-03-06 15:03:00,50.4,18.5,0.00,East,96,2.7,2.7,28,0.00,,---,0.00,VWS V14.00,2013-03-06 22:03:00,
2013-03-06 15:04:00,50.4,18.5,0.00,ESE,115,2.2,2.7,28,0.00,,---,0.00,VWS V14.00,2013-03-06 22:04:00,
2013-03-06 15:05:00,50.4,17.7,0.00,ESE,108,4.0,5.4,27,0.00,,---,0.00,VWS V14.00,2013-03-06 22:05:00,
2013-03-06 15:06:00,50.2,18.4,0.00,East,86,3.6,5.4,28,0.00,,---,0.00,VWS V14.00,2013-03-06 22:06:00,
2013-03-06 15:07:00,50.4,17.7,0.00,ESE,108,7.6,7.6,27,0.00,,---,0.00,VWS V14.00,2013-03-06 22:07:00,
2013-03-06 15:08:00,50.4,18.5,0.00,ENE,69,5.4,5.4,28,0.00,,---,0.00,VWS V14.00,2013-03-06 22:08:00,
2013-03-06 15:09:00,50.4,17.7,0.00,ESE,115,4.0,4.0,27,0.00,,---,0.00,VWS V14.00,2013-03-06 22:09:00,
2013-03-06 15:10:00,50.4,17.7,0.00,East,98,5.4,8.3,27,0.00,,---,0.00,VWS V14.00,2013-03-06 22:10:00,
2013-03-06 15:11:00,50.4,17.7,0.00,East,89,2.7,4.9,27,0.00,,---,0.00,VWS V14.00,2013-03-06 22:11:00,
2013-03-06 15:12:00,50.4,17.7,0.00,SE,126,2.7,3.1,27,0.00,,---,0.00,VWS V14.00,2013-03-06 22:12:00,
2013-03-06 15:13:00,50.4,17.7,0.00,ENE,65,4.9,4.9,27,0.00,,---,0.00,VWS V14.00,2013-03-06 22:13:00,
2013-03-06 15:14:00,50.5,17.8,0.00,SE,130,5.4,5.4,27,0.00,,---,0.00,VWS V14.00,2013-03-06 22:14:00,
2013-03-06 15:15:00,50.4,17.7,0.00,East,81,3.6,6.3,27,0.00,,---,0.00,VWS V14.00,2013-03-06 22:15:00,
2013-03-06 15:16:00,50.5,17.8,0.00,East,96,4.0,4.0,27,0.00,,---,0.00,VWS V14.00,2013-03-06 22:16:00,
2013-03-06 15:17:00,50.2,17.5,0.00,ENE,61,3.1,4.5,27,0.00,,---,0.00,VWS V14.00,2013-03-06 22:17:00,
2013-03-06 15:18:00,50.5,17.8,0.00,ENE,70,2.7,4.0,27,0.00,,---,0.00,VWS V14.00,2013-03-06 22:18:00,
2013-03-06 15:19:00,50.5,17.8,0.00,East,100,5.4,5.4,27,0.00,,---,0.00,VWS V14.00,2013-03-06 22:19:00,
2013-03-06 15:20:00,50.2,17.5,0.00,ENE,77,8.1,8.1,27,0.00,,---,0.00,VWS V14.00,2013-03-06 22:20:00,
2013-03-06 15:21:00,50.5,17.8,0.00,East,93,2.7,5.8,27,0.00,,---,0.00,VWS V14.00,2013-03-06 22:21:00,
2013-03-06 15:22:00,50.2,17.5,0.00,ESE,105,2.7,5.8,27,0.00,,---,0.00,VWS V14.00,2013-03-06 22:22:00,
2013-03-06 15:23:00,50.5,17.8,0.00,NE,48,0.0,5.4,27,0.00,,---,0.00,VWS V14.00,2013-03-06 22:23:00,
2013-03-06 15:24:00,50.2,17.5,0.00,ESE,116,3.1,3.1,27,0.00,,---,0.00,VWS V14.00,2013-03-06 22:24:00,
2013-03-06 15:25:00,50.5,17.8,0.00,ENE,76,0.0,0.0,27,0.00,,---,0.00,VWS V14.00,2013-03-06 22:25:00,
2013-03-06 15:26:00,50.5,17.8,0.00,East,100,2.2,2.2,27,0.00,,---,0.00,VWS V14.00,2013-03-06 22:26:00,
2013-03-06 15:27:00,50.2,17.5,0.00,East,95,0.0,4.9,27,0.00,,---,0.00,VWS V14.00,2013-03-06 22:27:00,
2013-03-06 15:28:00,50.5,17.8,0.00,East,97,0.0,4.0,27,0.00,,---,0.00,VWS V14.00,2013-03-06 22:28:00,
2013-03-06 15:29:00,50.0,17.4,0.00,NE,43,4.0,5.4,27,0.00,,---,0.00,VWS V14.00,2013-03-06 22:29:00,
2013-03-06 15:30:00,50.5,17.8,0.00,East,97,3.6,3.6,27,0.00,,---,0.00,VWS V14.00,2013-03-06 22:30:00,
2013-03-06 15:31:00,50.0,17.4,0.00,ENE,66,4.0,6.3,27,0.00,,---,0.00,VWS V14.00,2013-03-06 22:31:00,
2013-03-06 15:32:00,50.4,17.7,0.00,ESE,118,4.5,4.5,27,0.00,,---,0.00,VWS V14.00,2013-03-06 22:32:00,
2013-03-06 15:33:00,50.4,17.7,0.00,East,88,0.0,2.2,27,0.00,,---,0.00,VWS V14.00,2013-03-06 22:33:00,
2013-03-06 15:34:00,49.8,17.2,0.00,East,95,0.0,7.6,27,0.00,,---,0.00,VWS V14.00,2013-03-06 22:34:00,
2013-03-06 15:35:00,50.4,17.7,0.00,ESE,108,5.4,5.4,27,0.00,,---,0.00,VWS V14.00,2013-03-06 22:35:00,
2013-03-06 15:36:00,49.6,17.0,0.00,ESE,105,2.7,3.1,27,0.00,,---,0.00,VWS V14.00,2013-03-06 22:36:00,
2013-03-06 15:37:00,50.4,17.7,0.00,East,91,5.8,7.6,27,0.00,,---,0.00,VWS V14.00,2013-03-06 22:37:00,
2013-03-06 15:38:00,50.4,17.7,0.00,ESE,103,5.4,5.4,27,0.00,,---,0.00,VWS V14.00,2013-03-06 22:38:00,
2013-03-06 15:40:00,50.4,17.7,0.00,ESE,108,2.7,3.6,27,0.00,,---,0.00,VWS V14.00,2013-03-06 22:40:00,
2013-03-06 15:41:00,50.4,17.7,0.00,ESE,114,3.1,3.1,27,0.00,,---,0.00,VWS V14.00,2013-03-06 22:41:00,
2013-03-06 15:42:00,50.4,17.7,0.00,ENE,78,0.0,3.6,27,0.00,,---,0.00,VWS V14.00,2013-03-06 22:42:00,
2013-03-06 15:43:00,50.4,17.7,0.00,East,81,2.2,3.6,27,0.00,,---,0.00,VWS V14.00,2013-03-06 22:43:00,
2013-03-06 15:44:00,49.1,16.6,0.00,SE,132,0.0,4.9,27,0.00,,---,0.00,VWS V14.00,2013-03-06 22:44:00,
2013-03-06 15:45:00,50.4,17.7,0.00,ESE,118,2.7,3.1,27,0.00,,---,0.00,VWS V14.00,2013-03-06 22:45:00,
2013-03-06 15:46:00,50.4,17.7,0.00,East,79,2.7,4.0,27,0.00,,---,0.00,VWS V14.00,2013-03-06 22:46:00,
2013-03-06 15:47:00,50.4,17.7,0.00,ENE,71,3.6,3.6,27,0.00,,---,0.00,VWS V14.00,2013-03-06 22:47:00,
2013-03-06 15:48:00,48.9,16.4,0.00,ESE,111,2.7,3.1,27,0.00,,---,0.00,VWS V14.00,2013-03-06 22:48:00,
2013-03-06 15:49:00,50.4,17.7,0.00,ESE,119,4.0,4.0,27,0.00,,---,0.00,VWS V14.00,2013-03-06 22:49:00,
2013-03-06 15:50:00,50.4,17.7,0.00,East,92,0.0,3.1,27,0.00,,---,0.00,VWS V14.00,2013-03-06 22:50:00,
2013-03-06 15:51:00,50.4,17.7,0.00,East,92,0.0,0.0,27,0.00,,---,0.00,VWS V14.00,2013-03-06 22:51:00,
2013-03-06 15:52:00,50.4,17.7,0.00,East,95,3.1,4.0,27,0.00,,---,0.00,VWS V14.00,2013-03-06 22:52:00,
2013-03-06 15:54:00,50.4,17.7,0.00,East,101,5.4,5.4,27,0.00,,---,0.00,VWS V14.00,2013-03-06 22:54:00,
2013-03-06 15:55:00,50.4,17.7,0.00,SE,125,3.6,4.9,27,0.00,,---,0.00,VWS V14.00,2013-03-06 22:55:00,
2013-03-06 15:56:00,50.4,17.7,0.00,SE,145,3.6,5.8,27,0.00,,---,0.00,VWS V14.00,2013-03-06 22:56:00,
2013-03-06 15:57:00,50.4,17.7,0.00,SE,139,6.3,7.6,27,0.00,,---,0.00,VWS V14.00,2013-03-06 22:57:00,
2013-03-06 15:59:00,50.4,17.7,0.00,East,97,8.3,8.3,27,0.00,,---,0.00,VWS V14.00,2013-03-06 22:59:00,
2013-03-06 16:00:00,50.4,17.7,0.00,ESE,102,4.0,6.3,27,0.00,,---,0.00,VWS V14.00,2013-03-06 23:00:00,
2013-03-06 16:01:00,50.4,17.7,0.00,SE,126,2.7,3.1,27,0.00,,---,0.00,VWS V14.00,2013-03-06 23:01:00,
2013-03-06 16:02:00,50.4,17.7,0.00,NE,49,2.7,7.2,27,0.00,,---,0.00,VWS V14.00,2013-03-06 23:02:00,
2013-03-06 16:04:00,50.4,17.7,0.00,East,92,3.6,6.3,27,0.00,,---,0.00,VWS V14.00,2013-03-06 23:04:00,
2013-03-06 16:05:00,50.2,17.5,0.00,ESE,122,3.1,3.1,27,0.00,,---,0.00,VWS V14.00,2013-03-06 23:05:00,
2013-03-06 16:06:00,50.2,17.5,0.00,ENE,61,3.1,4.5,27,0.00,,---,0.00,VWS V14.00,2013-03-06 23:06:00,
2013-03-06 16:07:00,50.2,17.5,0.00,East,95,0.0,3.1,27,0.00,,---,0.00,VWS V14.00,2013-03-06 23:07:00,
2013-03-06 16:08:00,47.5,15.2,0.00,SE,143,2.7,6.3,27,0.00,,---,0.00,VWS V14.00,2013-03-06 23:08:00,
2013-03-06 16:09:00,50.2,17.5,0.00,ESE,106,4.5,4.5,27,0.00,,---,0.00,VWS V14.00,2013-03-06 23:09:00,
2013-03-06 16:10:00,50.2,17.5,0.00,East,86,5.8,5.8,27,0.00,,---,0.00,VWS V14.00,2013-03-06 23:10:00,
2013-03-06 16:11:00,50.2,17.5,0.00,ESE,105,2.7,5.8,27,0.00,,---,0.00,VWS V14.00,2013-03-06 23:11:00,
2013-03-06 16:12:00,50.2,17.5,0.00,East,92,3.1,4.0,27,0.00,,---,0.00,VWS V14.00,2013-03-06 23:12:00,
2013-03-06 16:13:00,47.3,15.0,0.00,SE,138,7.6,7.6,27,0.00,,---,0.00,VWS V14.00,2013-03-06 23:13:00,
2013-03-06 16:14:00,50.2,17.5,0.00,East,86,2.7,6.3,27,0.00,,---,0.00,VWS V14.00,2013-03-06 23:14:00,
2013-03-06 16:15:00,47.1,14.9,0.00,ESE,114,8.1,11.0,27,0.00,,---,0.00,VWS V14.00,2013-03-06 23:15:00,
2013-03-06 16:16:00,50.2,17.5,0.00,SSE,158,4.9,4.9,27,0.00,,---,0.00,VWS V14.00,2013-03-06 23:16:00,
2013-03-06 16:17:00,50.0,17.4,0.00,NE,56,2.2,2.2,27,0.00,,---,0.00,VWS V14.00,2013-03-06 23:17:00,
2013-03-06 16:18:00,46.9,12.1,0.00,SE,129,6.3,8.3,24,0.00,,---,0.00,VWS V14.00,2013-03-06 23:18:00,
2013-03-06 16:19:00,50.0,17.4,0.00,East,85,5.8,5.8,27,0.00,,---,0.00,VWS V14.00,2013-03-06 23:19:00,
2013-03-06 16:20:00,46.8,14.6,0.00,ENE,74,8.3,8.7,27,0.00,,---,0.00,VWS V14.00,2013-03-06 23:20:00,
2013-03-06 16:21:00,50.0,17.4,0.00,East,81,3.1,4.0,27,0.00,,---,0.00,VWS V14.00,2013-03-06 23:21:00,
2013-03-06 16:22:00,49.8,17.2,0.00,ESE,111,4.5,8.7,27,0.00,,---,0.00,VWS V14.00,2013-03-06 23:22:00,
2013-03-06 16:23:00,46.6,11.7,0.00,NE,48,3.6,5.8,24,0.00,,---,0.00,VWS V14.00,2013-03-06 23:23:00,
2013-03-06 16:24:00,49.6,17.0,0.00,ENE,71,2.2,3.6,27,0.00,,---,0.00,VWS V14.00,2013-03-06 23:24:00,
2013-03-06 16:25:00,46.4,11.6,0.00,SE,127,3.1,3.6,24,0.00,,---,0.00,VWS V14.00,2013-03-06 23:25:00,
2013-03-06 16:26:00,49.5,16.9,0.00,ENE,76,3.1,3.1,27,0.00,,---,0.00,VWS V14.00,2013-03-06 23:26:00,
2013-03-06 16:27:00,49.5,16.9,0.00,ESE,104,5.8,5.8,27,0.00,,---,0.00,VWS V14.00,2013-03-06 23:27:00,
2013-03-06 16:28:00,46.2,12.4,0.00,NE,42,5.8,6.3,25,0.00,,---,0.00,VWS V14.00,2013-03-06 23:28:00,
2013-03-06 16:29:00,49.3,16.7,0.00,East,97,3.6,6.3,27,0.00,,---,0.00,VWS V14.00,2013-03-06 23:29:00,
2013-03-06 16:30:00,46.2,12.4,0.00,NE,42,3.6,8.3,25,0.00,,---,0.00,VWS V14.00,2013-03-06 23:30:00,
2013-03-06 16:31:00,49.3,16.7,0.00,ENE,62,7.2,7.2,27,0.00,,---,0.00,VWS V14.00,2013-03-06 23:31:00,
2013-03-06 16:32:00,49.3,16.7,0.00,SE,139,2.7,7.2,27,0.00,,---,0.00,VWS V14.00,2013-03-06 23:32:00,
2013-03-06 16:33:00,46.0,12.2,0.00,ESE,106,3.1,7.2,25,0.00,,---,0.00,VWS V14.00,2013-03-06 23:33:00,
2013-03-06 16:34:00,49.1,16.6,0.00,East,101,2.7,3.6,27,0.00,,---,0.00,VWS V14.00,2013-03-06 23:34:00,
2013-03-06 16:35:00,45.9,12.1,0.00,ESE,114,6.3,8.3,25,0.00,,---,0.00,VWS V14.00,2013-03-06 23:35:00,
2013-03-06 16:36:00,48.9,16.4,0.00,ESE,112,2.7,7.6,27,0.00,,---,0.00,VWS V14.00,2013-03-06 23:36:00,
2013-03-06 16:37:00,48.9,16.4,0.00,SE,129,2.7,3.1,27,0.00,,---,0.00,VWS V14.00,2013-03-06 23:37:00,
2013-03-06 16:38:00,45.5,11.7,0.00,East,91,6.3,13.2,25,0.00,,---,0.00,VWS V14.00,2013-03-06 23:38:00,
2013-03-06 16:39:00,48.9,16.4,0.00,ENE,69,2.7,2.7,27,0.00,,---,0.00,VWS V14.00,2013-03-06 23:39:00,
2013-03-06 16:40:00,45.3,11.6,0.00,East,99,3.1,5.8,25,0.00,,---,0.00,VWS V14.00,2013-03-06 23:40:00,
2013-03-06 16:41:00,48.7,16.3,0.00,SE,126,4.0,5.4,27,0.00,,---,0.00,VWS V14.00,2013-03-06 23:41:00,
2013-03-06 16:42:00,48.7,16.3,0.00,ESE,116,5.8,5.8,27,0.00,,---,0.00,VWS V14.00,2013-03-06 23:42:00,
2013-03-06 16:43:00,48.7,16.3,0.00,East,81,3.6,3.6,27,0.00,,---,0.00,VWS V14.00,2013-03-06 23:43:00,
2013-03-06 16:44:00,48.6,16.1,0.00,ENE,69,4.0,4.0,27,0.00,,---,0.00,VWS V14.00,2013-03-06 23:44:00,
2013-03-06 16:45:00,45.0,11.3,0.00,East,95,3.6,5.4,25,0.00,,---,0.00,VWS V14.00,2013-03-06 23:45:00,
2013-03-06 16:46:00,45.0,11.3,0.00,South,173,3.6,4.0,25,0.00,,---,0.00,VWS V14.00,2013-03-06 23:46:00,
2013-03-06 16:47:00,48.6,16.1,0.00,ESE,108,2.7,2.7,27,0.00,,---,0.00,VWS V14.00,2013-03-06 23:47:00,
2013-03-06 16:48:00,48.4,16.0,0.00,ENE,76,2.2,7.2,27,0.00,,---,0.00,VWS V14.00,2013-03-06 23:48:00,
2013-03-06 16:49:00,44.8,11.1,0.00,NE,44,4.9,9.2,25,0.00,,---,0.00,VWS V14.00,2013-03-06 23:49:00,
2013-03-06 16:50:00,48.2,15.8,0.00,SE,135,10.5,10.5,27,0.00,,---,0.00,VWS V14.00,2013-03-06 23:50:00,
2013-03-06 16:51:00,44.6,11.0,0.00,NE,34,2.7,7.6,25,0.00,,---,0.00,VWS V14.00,2013-03-06 23:51:00,
2013-03-06 16:52:00,48.0,15.6,0.00,South,185,6.7,6.7,27,0.00,,---,0.00,VWS V14.00,2013-03-06 23:52:00,
2013-03-06 16:53:00,47.8,15.5,0.00,East,79,6.3,6.3,27,0.00,,---,0.00,VWS V14.00,2013-03-06 23:53:00,
2013-03-06 16:54:00,44.2,10.7,0.00,East,96,3.1,5.8,25,0.00,,---,0.00,VWS V14.00,2013-03-06 23:54:00,
2013-03-06 16:55:00,47.7,15.3,0.00,NE,41,3.1,3.6,27,0.00,,---,0.00,VWS V14.00,2013-03-06 23:55:00,
2013-03-06 16:56:00,44.2,10.7,0.00,South,175,0.0,4.0,25,0.00,,---,0.00,VWS V14.00,2013-03-06 23:56:00,
2013-03-06 16:57:00,47.5,15.2,0.00,ENE,67,4.0,6.3,27,0.00,,---,0.00,VWS V14.00,2013-03-06 23:57:00,
2013-03-06 16:58:00,47.5,15.2,0.00,ESE,115,3.1,5.8,27,0.00,,---,0.00,VWS V14.00,2013-03-06 23:58:00,
2013-03-06 16:59:00,44.1,10.5,0.00,East,85,0.0,2.7,25,0.00,,---,0.00,VWS V14.00,2013-03-06 23:59:00,
2013-03-06 17:00:00,47.3,15.0,0.00,East,94,3.1,5.8,27,0.00,,---,0.00,VWS V14.00,2013-03-07 00:00:00,
2013-03-06 17:01:00,43.9,10.4,0.00,SE,135,2.2,4.0,25,0.00,,---,0.00,VWS V14.00,2013-03-07 00:01:00,
2013-03-06 17:02:00,47.3,15.0,0.00,ENE,77,5.4,6.3,27,0.00,,---,0.00,VWS V14.00,2013-03-07 00:02:00,
2013-03-06 17:03:00,47.1,14.9,0.00,ENE,66,8.3,8.3,27,0.00,,---,0.00,VWS V14.00,2013-03-07 00:03:00,
2013-03-06 17:04:00,43.7,10.2,0.00,SSE,151,0.0,3.1,25,0.00,,---,0.00,VWS V14.00,2013-03-07 00:04:00,
2013-03-06 17:05:00,47.1,14.9,0.00,ESE,115,5.4,10.1,27,0.00,,---,0.00,VWS V14.00,2013-03-07 00:05:00,
2013-03-06 17:06:00,43.7,10.2,0.00,NE,51,4.0,6.3,25,0.00,,---,0.00,VWS V14.00,2013-03-07 00:06:00,
2013-03-06 17:07:00,46.9,12.1,0.00,SE,129,6.3,8.3,24,0.00,,---,0.00,VWS V14.00,2013-03-07 00:07:00,
2013-03-06 17:08:00,46.8,14.6,0.00,SW,218,9.6,9.6,27,0.00,,---,0.00,VWS V14.00,2013-03-07 00:08:00,
2013-03-06 17:09:00,43.5,10.0,0.00,ENE,68,2.7,4.0,25,0.00,,---,0.00,VWS V14.00,2013-03-07 00:09:00,
2013-03-06 17:10:00,46.8,14.6,0.00,ENE,78,4.0,8.3,27,0.00,,---,0.00,VWS V14.00,2013-03-07 00:10:00,
2013-03-06 17:11:00,43.3,9.9,0.00,South,182,4.9,8.3,25,0.00,,---,0.00,VWS V14.00,2013-03-07 00:11:00,
2013-03-06 17:12:00,46.6,11.7,0.00,NE,48,3.6,3.6,24,0.00,,---,0.00,VWS V14.00,2013-03-07 00:12:00,
2013-03-06 17:13:00,46.6,11.7,0.00,ESE,102,3.6,3.6,24,0.00,,---,0.00,VWS V14.00,2013-03-07 00:13:00,
2013-03-06 17:14:00,43.0,9.6,0.00,ESE,117,10.1,14.5,25,0.00,,---,0.00,VWS V14.00,2013-03-07 00:14:00,
2013-03-06 17:15:00,46.4,11.6,0.00,ESE,110,2.7,3.6,24,0.00,,---,0.00,VWS V14.00,2013-03-07 00:15:00,
2013-03-06 17:16:00,42.8,9.4,0.00,ESE,109,6.3,6.3,25,0.00,,---,0.00,VWS V14.00,2013-03-07 00:16:00,
2013-03-06 17:17:00,46.2,12.4,0.00,NE,42,5.8,6.3,25,0.00,,---,0.00,VWS V14.00,2013-03-07 00:17:00,
2013-03-06 17:18:00,46.2,12.4,0.00,East,93,3.1,5.8,25,0.00,,---,0.00,VWS V14.00,2013-03-07 00:18:00,
2013-03-06 17:19:00,42.8,9.4,0.00,East,91,0.0,5.4,25,0.00,,---,0.00,VWS V14.00,2013-03-07 00:19:00,
2013-03-06 17:20:00,46.0,12.2,0.00,SE,132,4.0,4.0,25,0.00,,---,0.00,VWS V14.00,2013-03-07 00:20:00,
2013-03-06 17:21:00,42.6,10.1,0.00,SE,135,0.0,4.5,26,0.00,,---,0.00,VWS V14.00,2013-03-07 00:21:00,
2013-03-06 17:22:00,46.0,12.2,0.00,ESE,106,3.1,3.1,25,0.00,,---,0.00,VWS V14.00,2013-03-07 00:22:00,
2013-03-06 17:23:00,45.9,12.0,0.00,South,184,6.3,6.3,25,0.00,,---,0.00,VWS V14.00,2013-03-07 00:23:00,
2013-03-06 17:24:00,42.4,10.0,0.00,ENE,77,4.0,4.0,26,0.00,,---,0.00,VWS V14.00,2013-03-07 00:24:00,
2013-03-06 17:25:00,45.9,12.0,0.00,ESE,107,4.0,7.2,25,0.00,,---,0.00,VWS V14.00,2013-03-07 00:25:00,
2013-03-06 17:26:00,42.4,10.0,0.00,ESE,108,0.0,2.2,26,0.00,,---,0.00,VWS V14.00,2013-03-07 00:26:00,
2013-03-06 17:27:00,45.5,11.7,0.00,ENE,75,4.0,6.3,25,0.00,,---,0.00,VWS V14.00,2013-03-07 00:27:00,
2013-03-06 17:28:00,45.5,11.7,0.00,SE,139,12.3,12.3,25,0.00,,---,0.00,VWS V14.00,2013-03-07 00:28:00,
2013-03-06 17:29:00,45.3,11.6,0.00,ESE,119,4.0,5.8,25,0.00,,---,0.00,VWS V14.00,2013-03-07 00:29:00,
2013-03-06 17:30:00,45.3,11.6,0.00,SE,129,6.3,6.3,25,0.00,,---,0.00,VWS V14.00,2013-03-07 00:30:00,
2013-03-06 17:31:00,42.1,9.7,0.00,NNE,19,3.1,4.9,26,0.00,,---,0.00,VWS V14.00,2013-03-07 00:31:00,
2013-03-06 17:32:00,45.1,11.4,0.00,East,87,4.9,5.4,25,0.00,,---,0.00,VWS V14.00,2013-03-07 00:32:00,
2013-03-06 17:33:00,45.1,11.4,0.00,East,89,0.0,5.4,25,0.00,,---,0.00,VWS V14.00,2013-03-07 00:33:00,
2013-03-06 17:34:00,45.0,11.3,0.00,ESE,113,4.9,4.9,25,0.00,,---,0.00,VWS V14.00,2013-03-07 00:34:00,
2013-03-06 17:35:00,45.0,11.3,0.00,ENE,67,4.0,4.0,25,0.00,,---,0.00,VWS V14.00,2013-03-07 00:35:00,
2013-03-06 17:36:00,41.7,11.0,0.00,East,79,4.0,4.0,28,0.00,,---,0.00,VWS V14.00,2013-03-07 00:36:00,
2013-03-06 17:37:00,44.8,11.1,0.00,SE,138,9.2,9.2,25,0.00,,---,0.00,VWS V14.00,2013-03-07 00:37:00,
2013-03-06 17:38:00,44.8,11.1,0.00,NE,44,4.9,9.2,25,0.00,,---,0.00,VWS V14.00,2013-03-07 00:38:00,
2013-03-06 17:39:00,44.8,11.1,0.00,SE,134,6.3,6.3,25,0.00,,---,0.00,VWS V14.00,2013-03-07 00:39:00,
2013-03-06 17:40:00,44.6,11.0,0.00,NE,34,2.7,2.7,25,0.00,,---,0.00,VWS V14.00,2013-03-07 00:40:00,
2013-03-06 17:41:00,41.5,10.9,0.00,ENE,69,2.7,2.7,28,0.00,,---,0.00,VWS V14.00,2013-03-07 00:41:00,
2013-03-06 17:42:00,44.4,10.8,0.00,ENE,73,3.6,5.8,25,0.00,,---,0.00,VWS V14.00,2013-03-07 00:42:00,
2013-03-06 17:43:00,44.4,10.8,0.00,East,96,3.1,5.8,25,0.00,,---,0.00,VWS V14.00,2013-03-07 00:43:00,
2013-03-06 17:44:00,44.2,10.7,0.00,SE,136,2.2,3.6,25,0.00,,---,0.00,VWS V14.00,2013-03-07 00:44:00,
2013-03-06 17:45:00,44.2,10.7,0.00,South,175,0.0,0.0,25,0.00,,---,0.00,VWS V14.00,2013-03-07 00:45:00,
2013-03-06 17:46:00,41.2,10.6,0.00,East,95,2.7,3.1,28,0.00,,---,0.00,VWS V14.00,2013-03-07 00:46:00,
2013-03-06 17:47:00,41.0,10.4,0.00,ESE,116,4.9,4.9,28,0.00,,---,0.00,VWS V14.00,2013-03-07 00:47:00,
2013-03-06 17:48:00,44.1,10.5,0.00,East,85,0.0,2.7,25,0.00,,---,0.00,VWS V14.00,2013-03-07 00:48:00,
2013-03-06 17:49:00,44.1,10.5,0.00,East,93,3.6,3.6,25,0.00,,---,0.00,VWS V14.00,2013-03-07 00:49:00,
2013-03-06 17:50:00,43.9,10.4,0.00,East,86,3.6,3.6,25,0.00,,---,0.00,VWS V14.00,2013-03-07 00:50:00,
2013-03-06 17:51:00,40.8,10.2,0.00,SE,133,4.0,6.3,28,0.00,,---,0.00,VWS V14.00,2013-03-07 00:51:00,
2013-03-06 17:52:00,40.8,10.2,0.00,ESE,120,2.7,4.0,28,0.00,,---,0.00,VWS V14.00,2013-03-07 00:52:00,
2013-03-06 17:53:00,43.7,10.2,0.00,East,89,3.1,3.1,25,0.00,,---,0.00,VWS V14.00,2013-03-07 00:53:00,
2013-03-06 17:54:00,43.7,10.2,0.00,ENE,65,3.1,3.6,25,0.00,,---,0.00,VWS V14.00,2013-03-07 00:54:00,
2013-03-06 17:55:00,43.7,10.2,0.00,NE,53,3.6,4.0,25,0.00,,---,0.00,VWS V14.00,2013-03-07 00:55:00,
2013-03-06 17:56:00,40.6,10.1,0.00,NW,308,2.2,3.1,28,0.00,,---,0.00,VWS V14.00,2013-03-07 00:56:00,
2013-03-06 17:57:00,40.6,10.1,0.00,NW,308,0.0,2.2,28,0.00,,---,0.00,VWS V14.00,2013-03-07 00:57:00,
2013-03-06 17:58:00,43.5,10.0,0.00,ESE,122,0.0,2.7,25,0.00,,---,0.00,VWS V14.00,2013-03-07 00:58:00,
2013-03-06 17:59:00,43.3,9.9,0.00,East,99,2.7,6.3,25,0.00,,---,0.00,VWS V14.00,2013-03-07 00:59:00,
2013-03-06 18:00:00,40.5,9.9,0.00,SSE,149,3.1,4.0,28,0.00,,---,0.00,VWS V14.00,2013-03-07 01:00:00,
2013-03-06 18:01:00,43.3,9.9,0.00,East,92,4.0,4.9,25,0.00,,---,0.00,VWS V14.00,2013-03-07 01:01:00,
2013-03-06 18:02:00,40.5,9.9,0.00,East,84,5.8,5.8,28,0.00,,---,0.00,VWS V14.00,2013-03-07 01:02:00,
2013-03-06 18:03:00,43.0,9.6,0.00,ESE,103,14.5,14.5,25,0.00,,---,0.00,VWS V14.00,2013-03-07 01:03:00,
2013-03-06 18:04:00,43.0,9.6,0.00,East,90,5.8,10.1,25,0.00,,---,0.00,VWS V14.00,2013-03-07 01:04:00,
2013-03-06 18:05:00,40.3,9.8,0.00,ESE,110,0.0,0.0,28,0.00,,---,0.00,VWS V14.00,2013-03-07 01:05:00,
2013-03-06 18:06:00,42.8,9.4,0.00,ENE,69,2.2,6.3,25,0.00,,---,0.00,VWS V14.00,2013-03-07 01:06:00,
2013-03-06 18:07:00,40.1,9.6,0.00,South,187,0.0,2.2,28,0.00,,---,0.00,VWS V14.00,2013-03-07 01:07:00,
2013-03-06 18:08:00,42.8,9.4,0.00,East,96,3.1,5.4,25,0.00,,---,0.00,VWS V14.00,2013-03-07 01:08:00,
2013-03-06 18:09:00,42.8,9.4,0.00,ESE,116,4.0,4.0,25,0.00,,---,0.00,VWS V14.00,2013-03-07 01:09:00,
2013-03-06 18:10:00,39.9,9.5,0.00,ESE,119,0.0,0.0,28,0.00,,---,0.00,VWS V14.00,2013-03-07 01:10:00,
2013-03-06 18:11:00,42.6,10.1,0.00,East,100,3.1,3.1,26,0.00,,---,0.00,VWS V14.00,2013-03-07 01:11:00,
2013-03-06 18:12:00,39.9,9.5,0.00,SE,124,0.0,2.2,28,0.00,,---,0.00,VWS V14.00,2013-03-07 01:12:00,
2013-03-06 18:13:00,42.4,10.0,0.00,ESE,111,0.0,0.0,26,0.00,,---,0.00,VWS V14.00,2013-03-07 01:13:00,
2013-03-06 18:14:00,42.4,10.0,0.00,East,90,2.2,4.0,26,0.00,,---,0.00,VWS V14.00,2013-03-07 01:14:00,
2013-03-06 18:15:00,39.7,9.3,0.00,SE,124,0.0,0.0,28,0.00,,---,0.00,VWS V14.00,2013-03-07 01:15:00,
2013-03-06 18:16:00,42.3,9.8,0.00,ESE,107,4.0,4.0,26,0.00,,---,0.00,VWS V14.00,2013-03-07 01:16:00,
2013-03-06 18:17:00,39.6,9.2,0.00,SE,146,0.0,0.0,28,0.00,,---,0.00,VWS V14.00,2013-03-07 01:17:00,
2013-03-06 18:18:00,42.3,9.8,0.00,ESE,111,0.0,0.0,26,0.00,,---,0.00,VWS V14.00,2013-03-07 01:18:00,
2013-03-06 18:19:00,42.1,9.7,0.00,East,86,2.2,2.2,26,0.00,,---,0.00,VWS V14.00,2013-03-07 01:19:00,
2013-03-06 18:20:00,39.4,9.0,0.00,SE,130,2.7,5.4,28,0.00,,---,0.00,VWS V14.00,2013-03-07 01:20:00,
2013-03-06 18:21:00,42.1,9.7,0.00,ESE,122,4.9,5.8,26,0.00,,---,0.00,VWS V14.00,2013-03-07 01:21:00,
2013-03-06 18:22:00,39.4,9.0,0.00,SE,128,2.7,2.7,28,0.00,,---,0.00,VWS V14.00,2013-03-07 01:22:00,
2013-03-06 18:23:00,41.9,11.2,0.00,NE,45,2.7,4.0,28,0.00,,---,0.00,VWS V14.00,2013-03-07 01:23:00,
2013-03-06 18:24:00,41.7,11.0,0.00,East,101,0.0,2.2,28,0.00,,---,0.00,VWS V14.00,2013-03-07 01:24:00,
2013-03-06 18:25:00,41.7,11.0,0.00,East,98,0.0,3.6,28,0.00,,---,0.00,VWS V14.00,2013-03-07 01:25:00,
2013-03-06 18:26:00,41.7,11.0,0.00,ENE,76,3.1,4.0,28,0.00,,---,0.00,VWS V14.00,2013-03-07 01:26:00,
2013-03-06 18:27:00,39.0,9.5,0.00,East,94,4.0,4.0,29,0.00,,---,0.00,VWS V14.00,2013-03-07 01:27:00,
2013-03-06 18:28:00,41.5,10.9,0.00,East,95,0.0,2.2,28,0.00,,---,0.00,VWS V14.00,2013-03-07 01:28:00,
2013-03-06 18:29:00,41.5,10.9,0.00,East,87,3.6,3.6,28,0.00,,---,0.00,VWS V14.00,2013-03-07 01:29:00,
2013-03-06 18:30:00,41.5,10.9,0.00,East,87,2.2,2.2,28,0.00,,---,0.00,VWS V14.00,2013-03-07 01:30:00,
2013-03-06 18:31:00,41.4,10.7,0.00,East,100,4.0,7.6,28,0.00,,---,0.00,VWS V14.00,2013-03-07 01:31:00,
2013-03-06 18:32:00,38.7,9.2,0.00,ENE,57,3.1,5.4,29,0.00,,---,0.00,VWS V14.00,2013-03-07 01:32:00,
2013-03-06 18:33:00,41.2,10.6,0.00,ENE,65,4.9,5.8,28,0.00,,---,0.00,VWS V14.00,2013-03-07 01:33:00,
2013-03-06 18:34:00,41.2,10.6,0.00,East,99,2.7,4.0,28,0.00,,---,0.00,VWS V14.00,2013-03-07 01:34:00,
2013-03-06 18:35:00,41.2,10.6,0.00,East,93,3.1,3.1,28,0.00,,---,0.00,VWS V14.00,2013-03-07 01:35:00,
2013-03-06 18:36:00,41.0,10.4,0.00,ESE,116,4.9,4.9,28,0.00,,---,0.00,VWS V14.00,2013-03-07 01:36:00,
2013-03-06 18:37:00,38.5,9.0,0.00,ESE,109,7.6,7.6,29,0.00,,---,0.00,VWS V14.00,2013-03-07 01:37:00,
2013-03-06 18:38:00,41.0,10.4,0.00,ESE,117,3.1,4.0,28,0.00,,---,0.00,VWS V14.00,2013-03-07 01:38:00,
2013-03-06 18:39:00,41.0,10.4,0.00,SE,139,6.3,6.3,28,0.00,,---,0.00,VWS V14.00,2013-03-07 01:39:00,
2013-03-06 18:40:00,40.8,10.2,0.00,ENE,69,0.0,6.3,28,0.00,,---,0.00,VWS V14.00,2013-03-07 01:40:00,
2013-03-06 18:41:00,40.8,10.2,0.00,SE,129,2.7,2.7,28,0.00,,---,0.00,VWS V14.00,2013-03-07 01:41:00,
2013-03-06 18:42:00,38.3,8.8,0.00,East,82,8.1,8.1,29,0.00,,---,0.00,VWS V14.00,2013-03-07 01:42:00,
2013-03-06 18:43:00,40.6,10.1,0.00,SE,140,2.7,2.7,28,0.00,,---,0.00,VWS V14.00,2013-03-07 01:43:00,
2013-03-06 18:44:00,40.6,10.1,0.00,ESE,104,0.0,3.1,28,0.00,,---,0.00,VWS V14.00,2013-03-07 01:44:00,
2013-03-06 18:45:00,40.6,10.1,0.00,NW,308,2.2,3.1,28,0.00,,---,0.00,VWS V14.00,2013-03-07 01:45:00,
2013-03-06 18:46:00,40.6,10.1,0.00,NW,308,0.0,2.2,28,0.00,,---,0.00,VWS V14.00,2013-03-07 01:46:00,
2013-03-06 18:47:00,38.1,8.7,0.00,East,87,5.4,5.8,29,0.00,,---,0.00,VWS V14.00,2013-03-07 01:47:00,
2013-03-06 18:48:00,40.5,9.9,0.00,NW,312,2.7,2.7,28,0.00,,---,0.00,VWS V14.00,2013-03-07 01:48:00,
2013-03-06 18:49:00,40.5,9.9,0.00,North,1,7.6,7.6,28,0.00,,---,0.00,VWS V14.00,2013-03-07 01:49:00,
2013-03-06 18:50:00,40.5,9.9,0.00,ESE,118,5.8,5.8,28,0.00,,---,0.00,VWS V14.00,2013-03-07 01:50:00,
2013-03-06 18:51:00,40.5,9.9,0.00,East,84,5.8,5.8,28,0.00,,---,0.00,VWS V14.00,2013-03-07 01:51:00,
2013-03-06 18:52:00,37.9,8.5,0.00,East,80,3.6,7.6,29,0.00,,---,0.00,VWS V14.00,2013-03-07 01:52:00,
2013-03-06 18:53:00,40.3,9.8,0.00,ESE,110,0.0,0.0,28,0.00,,---,0.00,VWS V14.00,2013-03-07 01:53:00,
2013-03-06 18:54:00,40.3,9.8,0.00,WNW,292,4.0,4.0,28,0.00,,---,0.00,VWS V14.00,2013-03-07 01:54:00,
2013-03-06 18:55:00,37.8,8.4,0.00,ENE,71,5.4,6.3,29,0.00,,---,0.00,VWS V14.00,2013-03-07 01:55:00,
2013-03-06 18:56:00,40.1,9.6,0.00,South,187,0.0,2.2,28,0.00,,---,0.00,VWS V14.00,2013-03-07 01:56:00,
2013-03-06 18:57:00,37.6,8.2,0.00,ESE,110,11.0,11.0,29,0.00,,---,0.00,VWS V14.00,2013-03-07 01:57:00,
2013-03-06 18:58:00,37.6,8.2,0.00,East,91,4.0,11.0,29,0.00,,---,0.00,VWS V14.00,2013-03-07 01:58:00,
2013-03-06 18:59:00,40.1,9.6,0.00,South,187,0.0,0.0,28,0.00,,---,0.00,VWS V14.00,2013-03-07 01:59:00,
2013-03-06 19:00:00,39.9,9.5,0.00,ESE,119,0.0,0.0,28,0.00,,---,0.00,VWS V14.00,2013-03-07 02:00:00,
2013-03-06 19:01:00,39.9,9.5,0.00,SE,124,0.0,2.2,28,0.00,,---,0.00,VWS V14.00,2013-03-07 02:01:00,
2013-03-06 19:02:00,37.6,8.2,0.00,East,101,5.8,5.8,29,0.00,,---,0.00,VWS V14.00,2013-03-07 02:02:00,
2013-03-06 19:03:00,37.6,8.2,0.00,ENE,76,5.8,5.8,29,0.00,,---,0.00,VWS V14.00,2013-03-07 02:03:00,
2013-03-06 19:04:00,39.7,9.3,0.00,SE,124,0.0,0.0,28,0.00,,---,0.00,VWS V14.00,2013-03-07 02:04:00,
2013-03-06 19:05:00,39.7,9.3,0.00,SE,124,0.0,0.0,28,0.00,,---,0.00,VWS V14.00,2013-03-07 02:05:00,
2013-03-06 19:06:00,39.6,9.2,0.00,SE,146,0.0,0.0,28,0.00,,---,0.00,VWS V14.00,2013-03-07 02:06:00,
2013-03-06 19:07:00,39.6,9.2,0.00,SE,146,0.0,0.0,28,0.00,,---,0.00,VWS V14.00,2013-03-07 02:07:00,
2013-03-06 19:08:00,37.4,8.1,0.00,ENE,78,5.4,8.3,29,0.00,,---,0.00,VWS V14.00,2013-03-07 02:08:00,
2013-03-06 19:09:00,39.4,9.0,0.00,SE,129,5.4,5.4,28,0.00,,---,0.00,VWS V14.00,2013-03-07 02:09:00,
2013-03-06 19:10:00,39.4,9.0,0.00,East,90,0.0,4.0,28,0.00,,---,0.00,VWS V14.00,2013-03-07 02:10:00,
2013-03-06 19:11:00,39.4,9.0,0.00,SE,128,2.7,2.7,28,0.00,,---,0.00,VWS V14.00,2013-03-07 02:11:00,
2013-03-06 19:12:00,39.4,9.0,0.00,SE,139,2.7,2.7,28,0.00,,---,0.00,VWS V14.00,2013-03-07 02:12:00,
2013-03-06 19:13:00,37.4,8.1,0.00,ENE,63,9.2,9.2,29,0.00,,---,0.00,VWS V14.00,2013-03-07 02:13:00,
2013-03-06 19:14:00,39.2,8.9,0.00,ESE,114,2.7,4.9,28,0.00,,---,0.00,VWS V14.00,2013-03-07 02:14:00,
2013-03-06 19:15:00,39.2,8.9,0.00,ESE,116,3.1,4.0,28,0.00,,---,0.00,VWS V14.00,2013-03-07 02:15:00,
2013-03-06 19:16:00,39.0,9.5,0.00,East,94,4.0,4.0,29,0.00,,---,0.00,VWS V14.00,2013-03-07 02:16:00,
2013-03-06 19:17:00,39.0,9.5,0.00,East,95,3.1,4.0,29,0.00,,---,0.00,VWS V14.00,2013-03-07 02:17:00,
2013-03-06 19:18:00,37.2,7.9,0.00,ESE,107,5.8,8.1,29,0.00,,---,0.00,VWS V14.00,2013-03-07 02:18:00,
2013-03-06 19:19:00,38.8,9.3,0.00,ESE,111,2.2,4.0,29,0.00,,---,0.00,VWS V14.00,2013-03-07 02:19:00,
2013-03-06 19:20:00,38.8,9.3,0.00,East,86,4.0,4.0,29,0.00,,---,0.00,VWS V14.00,2013-03-07 02:20:00,
2013-03-06 19:21:00,38.7,9.2,0.00,East,96,3.6,5.4,29,0.00,,---,0.00,VWS V14.00,2013-03-07 02:21:00,
2013-03-06 19:22:00,38.7,9.2,0.00,East,101,6.3,6.3,29,0.00,,---,0.00,VWS V14.00,2013-03-07 02:22:00,
2013-03-06 19:23:00,37.0,7.8,0.00,NE,43,10.5,15.9,29,0.00,,---,0.00,VWS V14.00,2013-03-07 02:23:00,
2013-03-06 19:24:00,38.5,9.0,0.00,East,91,7.6,7.6,29,0.00,,---,0.00,VWS V14.00,2013-03-07 02:24:00,
2013-03-06 19:25:00,38.5,9.0,0.00,East,88,3.1,7.6,29,0.00,,---,0.00,VWS V14.00,2013-03-07 02:25:00,
2013-03-06 19:26:00,38.5,9.0,0.00,ENE,66,3.1,4.0,29,0.00,,---,0.00,VWS V14.00,2013-03-07 02:26:00,
2013-03-06 19:27:00,38.5,9.0,0.00,ESE,122,4.0,7.6,29,0.00,,---,0.00,VWS V14.00,2013-03-07 02:27:00,
2013-03-06 19:28:00,37.0,7.8,0.00,ESE,102,8.3,10.1,29,0.00,,---,0.00,VWS V14.00,2013-03-07 02:28:00,
2013-03-06 19:29:00,38.3,8.8,0.00,ENE,60,4.9,4.9,29,0.00,,---,0.00,VWS V14.00,2013-03-07 02:29:00,
2013-03-06 19:30:00,38.3,8.8,0.00,East,98,2.7,4.9,29,0.00,,---,0.00,VWS V14.00,2013-03-07 02:30:00,
2013-03-06 19:31:00,38.3,8.8,0.00,East,82,8.1,8.1,29,0.00,,---,0.00,VWS V14.00,2013-03-07 02:31:00,
2013-03-06 19:32:00,38.1,8.7,0.00,ESE,107,5.8,8.1,29,0.00,,---,0.00,VWS V14.00,2013-03-07 02:32:00,
2013-03-06 19:33:00,37.0,7.8,0.00,East,99,7.2,10.1,29,0.00,,---,0.00,VWS V14.00,2013-03-07 02:33:00,
2013-03-06 19:34:00,37.0,7.8,0.00,ESE,108,5.4,7.2,29,0.00,,---,0.00,VWS V14.00,2013-03-07 02:34:00,
2013-03-06 19:35:00,38.1,8.7,0.00,SE,125,5.8,8.3,29,0.00,,---,0.00,VWS V14.00,2013-03-07 02:35:00,
2013-03-06 19:36:00,38.1,8.7,0.00,East,86,4.0,5.4,29,0.00,,---,0.00,VWS V14.00,2013-03-07 02:36:00,
2013-03-06 19:37:00,37.9,8.5,0.00,ESE,102,5.4,6.3,29,0.00,,---,0.00,VWS V14.00,2013-03-07 02:37:00,
2013-03-06 19:38:00,36.9,7.6,0.00,SE,135,7.6,8.3,29,0.00,,---,0.00,VWS V14.00,2013-03-07 02:38:00,
2013-03-06 19:39:00,36.9,7.6,0.00,East,90,8.1,10.5,29,0.00,,---,0.00,VWS V14.00,2013-03-07 02:39:00,
2013-03-06 19:40:00,37.9,8.5,0.00,ENE,67,5.8,6.3,29,0.00,,---,0.00,VWS V14.00,2013-03-07 02:40:00,
2013-03-06 19:41:00,37.9,8.5,0.00,ESE,107,3.1,3.6,29,0.00,,---,0.00,VWS V14.00,2013-03-07 02:41:00,
2013-03-06 19:42:00,37.9,8.5,0.00,East,79,8.3,8.3,29,0.00,,---,0.00,VWS V14.00,2013-03-07 02:42:00,
2013-03-06 19:43:00,36.9,7.6,0.00,SE,142,8.1,8.1,29,0.00,,---,0.00,VWS V14.00,2013-03-07 02:43:00,
2013-03-06 19:44:00,37.8,8.4,0.00,ESE,109,5.4,5.4,29,0.00,,---,0.00,VWS V14.00,2013-03-07 02:44:00,
2013-03-06 19:45:00,37.8,8.4,0.00,ENE,63,8.7,8.7,29,0.00,,---,0.00,VWS V14.00,2013-03-07 02:45:00,
2013-03-06 19:46:00,37.6,8.2,0.00,East,100,7.6,11.0,29,0.00,,---,0.00,VWS V14.00,2013-03-07 02:46:00,
2013-03-06 19:47:00,37.6,8.2,0.00,ENE,72,5.8,5.8,29,0.00,,---,0.00,VWS V14.00,2013-03-07 02:47:00,
2013-03-06 19:48:00,36.9,7.6,0.00,ESE,106,5.4,10.1,29,0.00,,---,0.00,VWS V14.00,2013-03-07 02:48:00,
2013-03-06 19:49:00,37.6,8.2,0.00,East,88,4.9,7.6,29,0.00,,---,0.00,VWS V14.00,2013-03-07 02:49:00,
2013-03-06 19:50:00,36.9,7.6,0.00,ESE,123,5.4,8.1,29,0.00,,---,0.00,VWS V14.00,2013-03-07 02:50:00,
2013-03-06 19:51:00,37.6,8.2,0.00,SE,135,5.8,5.8,29,0.00,,---,0.00,VWS V14.00,2013-03-07 02:51:00,
2013-03-06 19:52:00,36.9,7.6,0.00,ESE,113,6.3,8.7,29,0.00,,---,0.00,VWS V14.00,2013-03-07 02:52:00,
2013-03-06 19:53:00,37.6,8.2,0.00,SE,127,7.6,7.6,29,0.00,,---,0.00,VWS V14.00,2013-03-07 02:53:00,
2013-03-06 19:54:00,37.6,8.2,0.00,SE,127,11.4,11.4,29,0.00,,---,0.00,VWS V14.00,2013-03-07 02:54:00,
2013-03-06 19:55:00,36.9,7.6,0.00,East,87,10.5,10.5,29,0.00,,---,0.00,VWS V14.00,2013-03-07 02:55:00,
2013-03-06 19:56:00,37.4,8.1,0.00,East,96,6.3,6.3,29,0.00,,---,0.00,VWS V14.00,2013-03-07 02:56:00,
2013-03-06 19:57:00,36.9,7.6,0.00,NE,53,5.4,10.1,29,0.00,,---,0.00,VWS V14.00,2013-03-07 02:57:00,
2013-03-06 19:58:00,37.4,8.1,0.00,East,89,4.0,5.4,29,0.00,,---,0.00,VWS V14.00,2013-03-07 02:58:00,
2013-03-06 19:59:00,37.4,8.1,0.00,East,82,2.7,4.0,29,0.00,,---,0.00,VWS V14.00,2013-03-07 02:59:00,
2013-03-06 20:00:00,36.9,7.6,0.00,ESE,117,8.3,11.0,29,0.00,,---,0.00,VWS V14.00,2013-03-07 03:00:00,
2013-03-06 20:01:00,37.4,8.1,0.00,SE,145,6.3,6.3,29,0.00,,---,0.00,VWS V14.00,2013-03-07 03:01:00,
2013-03-06 20:02:00,36.9,7.6,0.00,SE,125,12.8,12.8,29,0.00,,---,0.00,VWS V14.00,2013-03-07 03:02:00,
2013-03-06 20:03:00,37.4,8.1,0.00,ENE,77,5.4,10.1,29,0.00,,---,0.00,VWS V14.00,2013-03-07 03:03:00,
2013-03-06 20:04:00,36.9,7.6,0.00,East,85,6.3,11.0,29,0.00,,---,0.00,VWS V14.00,2013-03-07 03:04:00,
2013-03-06 20:05:00,37.2,7.9,0.00,East,84,3.1,3.6,29,0.00,,---,0.00,VWS V14.00,2013-03-07 03:05:00,
2013-03-06 20:06:00,37.2,7.9,0.00,East,87,7.6,7.6,29,0.00,,---,0.00,VWS V14.00,2013-03-07 03:06:00,
2013-03-06 20:07:00,37.2,7.9,0.00,ESE,105,5.4,6.3,29,0.00,,---,0.00,VWS V14.00,2013-03-07 03:07:00,
2013-03-06 20:08:00,37.2,7.9,0.00,SE,146,3.6,7.2,29,0.00,,---,0.00,VWS V14.00,2013-03-07 03:08:00,
2013-03-06 20:09:00,36.9,7.6,0.00,ESE,117,6.3,6.3,29,0.00,,---,0.00,VWS V14.00,2013-03-07 03:09:00,
2013-03-06 20:10:00,37.0,7.8,0.00,SE,136,7.6,7.6,29,0.00,,---,0.00,VWS V14.00,2013-03-07 03:10:00,
2013-03-06 20:11:00,37.0,7.8,0.00,ESE,111,5.8,7.6,29,0.00,,---,0.00,VWS V14.00,2013-03-07 03:11:00,
2013-03-06 20:12:00,37.0,7.8,0.00,East,82,15.9,15.9,29,0.00,,---,0.00,VWS V14.00,2013-03-07 03:12:00,
2013-03-06 20:13:00,37.0,7.8,0.00,East,96,6.3,10.5,29,0.00,,---,0.00,VWS V14.00,2013-03-07 03:13:00,
2013-03-06 20:14:00,36.9,7.6,0.00,East,99,10.5,10.5,29,0.00,,---,0.00,VWS V14.00,2013-03-07 03:14:00,
2013-03-06 20:15:00,37.0,7.8,0.00,North,0,8.1,8.1,29,0.00,,---,0.00,VWS V14.00,2013-03-07 03:15:00,
2013-03-06 20:16:00,37.0,7.8,0.00,ESE,120,10.1,10.1,29,0.00,,---,0.00,VWS V14.00,2013-03-07 03:16:00,
2013-03-06 20:17:00,37.0,7.8,0.00,SE,138,10.1,10.1,29,0.00,,---,0.00,VWS V14.00,2013-03-07 03:17:00,
2013-03-06 20:18:00,37.0,7.8,0.00,East,98,7.6,11.9,29,0.00,,---,0.00,VWS V14.00,2013-03-07 03:18:00,
2013-03-06 20:19:00,36.9,7.6,0.00,East,87,6.3,8.7,29,0.00,,---,0.00,VWS V14.00,2013-03-07 03:19:00,
2013-03-06 20:20:00,37.0,7.8,0.00,ESE,104,8.7,12.8,29,0.00,,---,0.00,VWS V14.00,2013-03-07 03:20:00,
2013-03-06 20:21:00,37.0,7.8,0.00,East,95,8.1,8.1,29,0.00,,---,0.00,VWS V14.00,2013-03-07 03:21:00,
2013-03-06 20:22:00,37.0,7.8,0.00,East,94,10.1,10.1,29,0.00,,---,0.00,VWS V14.00,2013-03-07 03:22:00,
2013-03-06 20:23:00,36.9,7.6,0.00,SE,127,4.9,6.3,29,0.00,,---,0.00,VWS V14.00,2013-03-07 03:23:00,
2013-03-06 20:24:00,37.0,7.8,0.00,ENE,63,7.6,9.2,29,0.00,,---,0.00,VWS V14.00,2013-03-07 03:24:00,
2013-03-06 20:25:00,37.0,7.8,0.00,ESE,113,7.6,7.6,29,0.00,,---,0.00,VWS V14.00,2013-03-07 03:25:00,
2013-03-06 20:26:00,37.0,7.8,0.00,ESE,116,8.1,10.5,29,0.00,,---,0.00,VWS V14.00,2013-03-07 03:26:00,
2013-03-06 20:27:00,37.0,7.8,0.00,ESE,115,5.8,8.3,29,0.00,,---,0.00,VWS V14.00,2013-03-07 03:27:00,
2013-03-06 20:28:00,36.9,7.6,0.00,ESE,123,8.1,12.8,29,0.00,,---,0.00,VWS V14.00,2013-03-07 03:28:00,
2013-03-06 20:29:00,36.9,7.6,0.00,East,82,7.6,8.3,29,0.00,,---,0.00,VWS V14.00,2013-03-07 03:29:00,
2013-03-06 20:30:00,36.9,7.6,0.00,East,92,5.8,8.1,29,0.00,,---,0.00,VWS V14.00,2013-03-07 03:30:00,
2013-03-06 20:31:00,36.9,7.6,0.00,ESE,103,6.3,8.1,29,0.00,,---,0.00,VWS V14.00,2013-03-07 03:31:00,
2013-03-06 20:32:00,36.9,7.6,0.00,East,89,8.1,8.1,29,0.00,,---,0.00,VWS V14.00,2013-03-07 03:32:00,
2013-03-06 20:33:00,36.9,7.6,0.00,ESE,119,5.4,11.9,29,0.00,,---,0.00,VWS V14.00,2013-03-07 03:33:00,
2013-03-06 20:34:00,36.9,7.6,0.00,ENE,77,5.4,11.0,29,0.00,,---,0.00,VWS V14.00,2013-03-07 03:34:00,
2013-03-06 20:35:00,36.9,7.6,0.00,ENE,68,8.1,8.7,29,0.00,,---,0.00,VWS V14.00,2013-03-07 03:35:00,
2013-03-06 20:36:00,36.9,7.6,0.00,East,84,10.1,10.1,29,0.00,,---,0.00,VWS V14.00,2013-03-07 03:36:00,
2013-03-06 20:37:00,36.9,7.6,0.00,ENE,71,7.2,10.1,29,0.00,,---,0.00,VWS V14.00,2013-03-07 03:37:00,
2013-03-06 20:38:00,36.7,7.4,0.00,SE,124,8.7,8.7,29,0.00,,---,0.00,VWS V14.00,2013-03-07 03:38:00,
2013-03-06 20:39:00,36.9,7.6,0.00,ESE,123,5.4,8.1,29,0.00,,---,0.00,VWS V14.00,2013-03-07 03:39:00,
2013-03-06 20:40:00,36.9,7.6,0.00,ESE,120,8.7,11.4,29,0.00,,---,0.00,VWS V14.00,2013-03-07 03:40:00,
2013-03-06 20:41:00,36.7,7.4,0.00,East,93,5.8,8.1,29,0.00,,---,0.00,VWS V14.00,2013-03-07 03:41:00,
2013-03-06 20:42:00,36.9,7.6,0.00,East,95,8.1,8.1,29,0.00,,---,0.00,VWS V14.00,2013-03-07 03:42:00,
2013-03-06 20:43:00,36.7,7.4,0.00,SE,136,7.6,7.6,29,0.00,,---,0.00,VWS V14.00,2013-03-07 03:43:00,
2013-03-06 20:44:00,36.9,7.6,0.00,East,87,10.5,10.5,29,0.00,,---,0.00,VWS V14.00,2013-03-07 03:44:00,
2013-03-06 20:45:00,36.9,7.6,0.00,NE,39,10.5,10.5,29,0.00,,---,0.00,VWS V14.00,2013-03-07 03:45:00,
2013-03-06 20:46:00,36.7,7.4,0.00,East,99,8.1,10.5,29,0.00,,---,0.00,VWS V14.00,2013-03-07 03:46:00,
2013-03-06 20:47:00,36.9,7.6,0.00,NE,55,8.3,8.3,29,0.00,,---,0.00,VWS V14.00,2013-03-07 03:47:00,
2013-03-06 20:48:00,36.7,7.4,0.00,East,95,8.3,10.5,29,0.00,,---,0.00,VWS V14.00,2013-03-07 03:48:00,
2013-03-06 20:49:00,36.9,7.6,0.00,ESE,117,8.3,11.0,29,0.00,,---,0.00,VWS V14.00,2013-03-07 03:49:00,
2013-03-06 20:50:00,36.9,7.6,0.00,East,85,6.3,10.5,29,0.00,,---,0.00,VWS V14.00,2013-03-07 03:50:00,
2013-03-06 20:51:00,36.7,7.4,0.00,ESE,105,7.6,10.1,29,0.00,,---,0.00,VWS V14.00,2013-03-07 03:51:00,
2013-03-06 20:52:00,36.9,7.6,0.00,East,98,8.1,12.8,29,0.00,,---,0.00,VWS V14.00,2013-03-07 03:52:00,
2013-03-06 20:53:00,36.7,7.4,0.00,ESE,112,3.6,7.6,29,0.00,,---,0.00,VWS V14.00,2013-03-07 03:53:00,
2013-03-06 20:54:00,36.7,7.4,0.00,ESE,122,3.1,5.4,29,0.00,,---,0.00,VWS V14.00,2013-03-07 03:54:00,
2013-03-06 20:55:00,36.9,7.6,0.00,SE,131,12.8,15.0,29,0.00,,---,0.00,VWS V14.00,2013-03-07 03:55:00,
2013-03-06 20:56:00,36.7,7.4,0.00,ESE,119,8.3,8.3,29,0.00,,---,0.00,VWS V14.00,2013-03-07 03:56:00,
2013-03-06 20:57:00,36.9,7.6,0.00,WNW,301,11.0,11.0,29,0.00,,---,0.00,VWS V14.00,2013-03-07 03:57:00,
2013-03-06 20:58:00,36.7,7.4,0.00,SE,141,7.2,12.3,29,0.00,,---,0.00,VWS V14.00,2013-03-07 03:58:00,
2013-03-06 20:59:00,36.7,7.4,0.00,ESE,104,8.3,10.5,29,0.00,,---,0.00,VWS V14.00,2013-03-07 03:59:00,
2013-03-06 21:00:00,36.9,7.6,0.00,SE,139,8.3,15.0,29,0.00,,---,0.00,VWS V14.00,2013-03-07 04:00:00,
2013-03-06 21:01:00,36.5,7.3,0.00,ESE,122,6.7,6.7,29,0.00,,---,0.00,VWS V14.00,2013-03-07 04:01:00,
2013-03-06 21:02:00,36.9,7.6,0.00,West,268,4.9,8.3,29,0.00,,---,0.00,VWS V14.00,2013-03-07 04:02:00,
2013-03-06 21:03:00,36.5,7.3,0.00,East,85,5.8,6.3,29,0.00,,---,0.00,VWS V14.00,2013-03-07 04:03:00,
2013-03-06 21:04:00,36.5,7.3,0.00,ESE,123,7.2,9.2,29,0.00,,---,0.00,VWS V14.00,2013-03-07 04:04:00,
2013-03-06 21:05:00,36.9,7.6,0.00,ESE,107,5.8,8.1,29,0.00,,---,0.00,VWS V14.00,2013-03-07 04:05:00,
2013-03-06 21:06:00,36.5,7.3,0.00,East,96,5.8,10.5,29,0.00,,---,0.00,VWS V14.00,2013-03-07 04:06:00,
2013-03-06 21:07:00,36.9,7.6,0.00,ENE,67,2.7,12.3,29,0.00,,---,0.00,VWS V14.00,2013-03-07 04:07:00,
2013-03-06 21:08:00,36.5,7.3,0.00,NNE,25,10.5,10.5,29,0.00,,---,0.00,VWS V14.00,2013-03-07 04:08:00,
2013-03-06 21:09:00,36.5,7.3,0.00,East,97,6.3,10.5,29,0.00,,---,0.00,VWS V14.00,2013-03-07 04:09:00,
2013-03-06 21:10:00,36.9,7.6,0.00,ESE,117,8.1,8.1,29,0.00,,---,0.00,VWS V14.00,2013-03-07 04:10:00,
2013-03-06 21:11:00,36.5,7.3,0.00,ESE,110,8.1,8.1,29,0.00,,---,0.00,VWS V14.00,2013-03-07 04:11:00,
2013-03-06 21:12:00,36.9,7.6,0.00,ESE,114,5.8,6.3,29,0.00,,---,0.00,VWS V14.00,2013-03-07 04:12:00,
2013-03-06 21:13:00,36.5,7.3,0.00,ESE,109,4.9,5.8,29,0.00,,---,0.00,VWS V14.00,2013-03-07 04:13:00,
2013-03-06 21:14:00,36.3,7.1,0.00,East,96,6.3,9.6,29,0.00,,---,0.00,VWS V14.00,2013-03-07 04:14:00,
2013-03-06 21:15:00,36.9,7.6,0.00,ESE,107,7.2,10.1,29,0.00,,---,0.00,VWS V14.00,2013-03-07 04:15:00,
2013-03-06 21:16:00,36.3,7.1,0.00,ENE,70,7.6,8.7,29,0.00,,---,0.00,VWS V14.00,2013-03-07 04:16:00,
2013-03-06 21:17:00,36.9,7.6,0.00,ESE,123,8.1,8.1,29,0.00,,---,0.00,VWS V14.00,2013-03-07 04:17:00,
2013-03-06 21:18:00,36.3,7.1,0.00,ENE,69,6.3,8.3,29,0.00,,---,0.00,VWS V14.00,2013-03-07 04:18:00,
2013-03-06 21:19:00,36.3,7.1,0.00,ESE,113,8.1,11.0,29,0.00,,---,0.00,VWS V14.00,2013-03-07 04:19:00,
2013-03-06 21:20:00,36.9,7.6,0.00,East,98,11.4,11.4,29,0.00,,---,0.00,VWS V14.00,2013-03-07 04:20:00,
2013-03-06 21:21:00,36.3,7.1,0.00,East,90,5.4,5.8,29,0.00,,---,0.00,VWS V14.00,2013-03-07 04:21:00,
2013-03-06 21:22:00,36.9,7.6,0.00,ESE,119,5.4,11.9,29,0.00,,---,0.00,VWS V14.00,2013-03-07 04:22:00,
2013-03-06 21:23:00,36.3,7.1,0.00,ESE,108,8.1,13.2,29,0.00,,---,0.00,VWS V14.00,2013-03-07 04:23:00,
2013-03-06 21:24:00,36.3,7.1,0.00,ENE,71,11.0,11.0,29,0.00,,---,0.00,VWS V14.00,2013-03-07 04:24:00,
2013-03-06 21:25:00,36.7,7.4,0.00,SE,133,5.8,8.1,29,0.00,,---,0.00,VWS V14.00,2013-03-07 04:25:00,
2013-03-06 21:26:00,36.3,7.1,0.00,SE,138,4.9,5.8,29,0.00,,---,0.00,VWS V14.00,2013-03-07 04:26:00,
2013-03-06 21:27:00,36.7,7.4,0.00,SE,124,8.7,8.7,29,0.00,,---,0.00,VWS V14.00,2013-03-07 04:27:00,
2013-03-06 21:28:00,36.3,7.1,0.00,ESE,107,8.1,8.7,29,0.00,,---,0.00,VWS V14.00,2013-03-07 04:28:00,
2013-03-06 21:29:00,36.3,7.1,0.00,SE,127,6.3,8.3,29,0.00,,---,0.00,VWS V14.00,2013-03-07 04:29:00,
2013-03-06 21:30:00,36.7,7.4,0.00,East,93,5.8,5.8,29,0.00,,---,0.00,VWS V14.00,2013-03-07 04:30:00,
2013-03-06 21:31:00,36.1,7.0,0.00,East,93,4.9,5.4,29,0.00,,---,0.00,VWS V14.00,2013-03-07 04:31:00,
2013-03-06 21:32:00,36.7,7.4,0.00,SSE,151,6.3,7.6,29,0.00,,---,0.00,VWS V14.00,2013-03-07 04:32:00,
2013-03-06 21:33:00,36.1,7.0,0.00,ESE,110,5.8,8.7,29,0.00,,---,0.00,VWS V14.00,2013-03-07 04:33:00,
2013-03-06 21:34:00,36.1,7.0,0.00,NE,41,4.9,11.0,29,0.00,,---,0.00,VWS V14.00,2013-03-07 04:34:00,
2013-03-06 21:35:00,36.7,7.4,0.00,East,99,8.1,10.5,29,0.00,,---,0.00,VWS V14.00,2013-03-07 04:35:00,
2013-03-06 21:36:00,36.7,7.4,0.00,ESE,103,2.7,8.1,29,0.00,,---,0.00,VWS V14.00,2013-03-07 04:36:00,
2013-03-06 21:37:00,36.7,7.4,0.00,East,95,8.3,10.5,29,0.00,,---,0.00,VWS V14.00,2013-03-07 04:37:00,
2013-03-06 21:38:00,36.7,7.4,0.00,South,184,6.3,8.3,29,0.00,,---,0.00,VWS V14.00,2013-03-07 04:38:00,
2013-03-06 21:39:00,36.1,7.0,0.00,East,93,6.3,11.0,29,0.00,,---,0.00,VWS V14.00,2013-03-07 04:39:00,
2013-03-06 21:40:00,36.7,7.4,0.00,ESE,105,7.6,10.1,29,0.00,,---,0.00,VWS V14.00,2013-03-07 04:40:00,
2013-03-06 21:41:00,36.7,7.4,0.00,ESE,118,5.8,7.6,29,0.00,,---,0.00,VWS V14.00,2013-03-07 04:41:00,
2013-03-06 21:42:00,36.1,7.0,0.00,East,98,5.4,10.5,29,0.00,,---,0.00,VWS V14.00,2013-03-07 04:42:00,
2013-03-06 21:43:00,36.7,7.4,0.00,ESE,112,3.6,3.6,29,0.00,,---,0.00,VWS V14.00,2013-03-07 04:43:00,
2013-03-06 21:44:00,36.1,7.0,0.00,East,93,9.6,10.5,29,0.00,,---,0.00,VWS V14.00,2013-03-07 04:44:00,
2013-03-06 21:45:00,36.7,7.4,0.00,ESE,119,8.3,8.3,29,0.00,,---,0.00,VWS V14.00,2013-03-07 04:45:00,
2013-03-06 21:46:00,36.7,7.4,0.00,South,169,6.3,8.7,29,0.00,,---,0.00,VWS V14.00,2013-03-07 04:46:00,
2013-03-06 21:47:00,36.1,7.0,0.00,East,84,5.4,8.7,29,0.00,,---,0.00,VWS V14.00,2013-03-07 04:47:00,
2013-03-06 21:48:00,36.7,7.4,0.00,ESE,117,10.5,10.5,29,0.00,,---,0.00,VWS V14.00,2013-03-07 04:48:00,
2013-03-06 21:49:00,36.1,7.0,0.00,SE,130,10.5,12.3,29,0.00,,---,0.00,VWS V14.00,2013-03-07 04:49:00,
2013-03-06 21:50:00,36.5,7.3,0.00,ESE,118,5.4,6.7,29,0.00,,---,0.00,VWS V14.00,2013-03-07 04:50:00,
2013-03-06 21:51:00,36.5,7.3,0.00,East,100,3.6,6.7,29,0.00,,---,0.00,VWS V14.00,2013-03-07 04:51:00,
2013-03-06 21:52:00,36.0,6.8,0.00,East,98,8.7,11.9,29,0.00,,---,0.00,VWS V14.00,2013-03-07 04:52:00,
2013-03-06 21:53:00,36.5,7.3,0.00,ESE,115,7.6,9.2,29,0.00,,---,0.00,VWS V14.00,2013-03-07 04:53:00,
2013-03-06 21:54:00,36.0,6.8,0.00,ESE,113,6.3,8.3,29,0.00,,---,0.00,VWS V14.00,2013-03-07 04:54:00,
2013-03-06 21:55:00,36.0,6.8,0.00,SE,134,6.3,8.3,29,0.00,,---,0.00,VWS V14.00,2013-03-07 04:55:00,
2013-03-06 21:56:00,36.5,7.3,0.00,SE,124,6.3,6.3,29,0.00,,---,0.00,VWS V14.00,2013-03-07 04:56:00,
2013-03-06 21:57:00,36.0,6.8,0.00,SE,128,11.4,11.4,29,0.00,,---,0.00,VWS V14.00,2013-03-07 04:57:00,
2013-03-06 21:58:00,36.5,7.3,0.00,NE,47,9.6,10.5,29,0.00,,---,0.00,VWS V14.00,2013-03-07 04:58:00,
2013-03-06 21:59:00,36.0,6.8,0.00,SE,140,6.3,8.1,29,0.00,,---,0.00,VWS V14.00,2013-03-07 04:59:00,
2013-03-06 22:00:00,36.5,7.3,0.00,SE,138,3.1,4.5,29,0.00,,---,0.00,VWS V14.00,2013-03-07 05:00:00,
2013-03-06 22:01:00,36.0,6.8,0.00,East,95,4.9,5.8,29,0.00,,---,0.00,VWS V14.00,2013-03-07 05:01:00,
2013-03-06 22:02:00,36.0,6.8,0.00,South,180,5.4,7.6,29,0.00,,---,0.00,VWS V14.00,2013-03-07 05:02:00,
2013-03-06 22:03:00,36.0,6.8,0.00,ESE,111,8.3,8.3,29,0.00,,---,0.00,VWS V14.00,2013-03-07 05:03:00,
2013-03-06 22:04:00,35.8,6.7,0.00,SE,127,8.7,10.5,29,0.00,,---,0.00,VWS V14.00,2013-03-07 05:04:00,
2013-03-06 22:05:00,36.3,7.1,0.00,WNW,302,5.4,8.7,29,0.00,,---,0.00,VWS V14.00,2013-03-07 05:05:00,
2013-03-06 22:06:00,35.8,6.7,0.00,SE,141,13.2,13.2,29,0.00,,---,0.00,VWS V14.00,2013-03-07 05:06:00,
2013-03-06 22:07:00,35.8,6.7,0.00,ESE,110,8.1,13.2,29,0.00,,---,0.00,VWS V14.00,2013-03-07 05:07:00,
2013-03-06 22:08:00,35.8,6.7,0.00,ESE,108,6.3,15.4,29,0.00,,---,0.00,VWS V14.00,2013-03-07 05:08:00,
2013-03-06 22:09:00,35.8,6.7,0.00,ESE,115,6.3,8.1,29,0.00,,---,0.00,VWS V14.00,2013-03-07 05:09:00,
2013-03-06 22:10:00,36.3,7.1,0.00,East,96,4.0,5.8,29,0.00,,---,0.00,VWS V14.00,2013-03-07 05:10:00,
2013-03-06 22:11:00,35.8,6.7,0.00,ESE,111,5.4,11.9,29,0.00,,---,0.00,VWS V14.00,2013-03-07 05:11:00,
2013-03-06 22:12:00,35.8,6.7,0.00,East,82,5.8,7.6,29,0.00,,---,0.00,VWS V14.00,2013-03-07 05:12:00,
2013-03-06 22:13:00,35.8,6.7,0.00,SE,137,6.3,7.6,29,0.00,,---,0.00,VWS V14.00,2013-03-07 05:13:00,
2013-03-06 22:14:00,35.8,6.7,0.00,East,101,5.8,8.3,29,0.00,,---,0.00,VWS V14.00,2013-03-07 05:14:00,
2013-03-06 22:15:00,36.3,7.1,0.00,NNE,28,3.6,5.8,29,0.00,,---,0.00,VWS V14.00,2013-03-07 05:15:00,
2013-03-06 22:16:00,35.8,6.7,0.00,ENE,60,3.6,10.1,29,0.00,,---,0.00,VWS V14.00,2013-03-07 05:16:00,
2013-03-06 22:17:00,35.8,6.7,0.00,SSE,160,7.6,13.6,29,0.00,,---,0.00,VWS V14.00,2013-03-07 05:17:00,
2013-03-06 22:18:00,35.8,6.7,0.00,ESE,108,6.7,8.1,29,0.00,,---,0.00,VWS V14.00,2013-03-07 05:18:00,
2013-03-06 22:19:00,35.8,6.7,0.00,ESE,103,3.6,8.1,29,0.00,,---,0.00,VWS V14.00,2013-03-07 05:19:00,
2013-03-06 22:20:00,36.1,7.0,0.00,ESE,103,5.4,5.4,29,0.00,,---,0.00,VWS V14.00,2013-03-07 05:20:00,
2013-03-06 22:21:00,35.8,6.7,0.00,ESE,119,6.3,10.5,29,0.00,,---,0.00,VWS V14.00,2013-03-07 05:21:00,
2013-03-06 22:22:00,35.8,6.7,0.00,ESE,118,5.8,6.3,29,0.00,,---,0.00,VWS V14.00,2013-03-07 05:22:00,
2013-03-06 22:23:00,35.8,6.7,0.00,SE,133,8.1,8.3,29,0.00,,---,0.00,VWS V14.00,2013-03-07 05:23:00,
2013-03-06 22:24:00,35.6,6.5,0.00,ENE,78,5.4,8.1,29,0.00,,---,0.00,VWS V14.00,2013-03-07 05:24:00,
2013-03-06 22:25:00,36.1,7.0,0.00,SSE,168,7.6,11.0,29,0.00,,---,0.00,VWS V14.00,2013-03-07 05:25:00,
2013-03-06 22:26:00,35.6,6.5,0.00,SE,125,5.8,5.8,29,0.00,,---,0.00,VWS V14.00,2013-03-07 05:26:00,
2013-03-06 22:27:00,35.6,6.5,0.00,ESE,109,4.9,8.7,29,0.00,,---,0.00,VWS V14.00,2013-03-07 05:27:00,
2013-03-06 22:28:00,35.6,6.5,0.00,SE,137,5.4,7.6,29,0.00,,---,0.00,VWS V14.00,2013-03-07 05:28:00,
2013-03-06 22:29:00,35.6,6.5,0.00,SE,131,5.8,8.3,29,0.00,,---,0.00,VWS V14.00,2013-03-07 05:29:00,
2013-03-06 22:30:00,36.1,7.0,0.00,East,90,4.0,8.1,29,0.00,,---,0.00,VWS V14.00,2013-03-07 05:30:00,
2013-03-06 22:31:00,35.6,6.5,0.00,ENE,72,3.6,4.0,29,0.00,,---,0.00,VWS V14.00,2013-03-07 05:31:00,
2013-03-06 22:32:00,35.6,6.5,0.00,SE,141,2.7,4.0,29,0.00,,---,0.00,VWS V14.00,2013-03-07 05:32:00,
2013-03-06 22:33:00,35.6,6.5,0.00,ENE,76,5.4,6.3,29,0.00,,---,0.00,VWS V14.00,2013-03-07 05:33:00,
2013-03-06 22:34:00,35.4,7.1,0.00,East,92,8.7,8.7,30,0.00,,---,0.00,VWS V14.00,2013-03-07 05:34:00,
2013-03-06 22:35:00,36.1,7.0,0.00,SE,127,8.7,8.7,29,0.00,,---,0.00,VWS V14.00,2013-03-07 05:35:00,
2013-03-06 22:36:00,36.1,7.0,0.00,ENE,73,6.7,8.7,29,0.00,,---,0.00,VWS V14.00,2013-03-07 05:36:00,
2013-03-06 22:37:00,35.4,7.1,0.00,East,95,9.6,9.6,30,0.00,,---,0.00,VWS V14.00,2013-03-07 05:37:00,
2013-03-06 22:38:00,35.4,7.1,0.00,East,96,5.4,9.6,30,0.00,,---,0.00,VWS V14.00,2013-03-07 05:38:00,
2013-03-06 22:39:00,35.4,7.1,0.00,SE,133,5.4,7.6,30,0.00,,---,0.00,VWS V14.00,2013-03-07 05:39:00,
2013-03-06 22:40:00,36.0,6.8,0.00,ENE,77,7.6,8.1,29,0.00,,---,0.00,VWS V14.00,2013-03-07 05:40:00,
2013-03-06 22:41:00,36.0,6.8,0.00,ESE,123,5.8,11.9,29,0.00,,---,0.00,VWS V14.00,2013-03-07 05:41:00,
2013-03-06 22:42:00,35.4,7.1,0.00,ENE,74,6.3,6.3,30,0.00,,---,0.00,VWS V14.00,2013-03-07 05:42:00,
2013-03-06 22:43:00,35.4,7.1,0.00,ESE,118,6.3,8.1,30,0.00,,---,0.00,VWS V14.00,2013-03-07 05:43:00,
2013-03-06 22:44:00,35.4,7.1,0.00,ESE,103,3.6,10.1,30,0.00,,---,0.00,VWS V14.00,2013-03-07 05:44:00,
2013-03-06 22:45:00,36.0,6.8,0.00,ENE,76,8.7,8.7,29,0.00,,---,0.00,VWS V14.00,2013-03-07 05:45:00,
2013-03-06 22:46:00,36.0,6.8,0.00,ESE,103,10.5,10.5,29,0.00,,---,0.00,VWS V14.00,2013-03-07 05:46:00,
2013-03-06 22:47:00,35.4,7.1,0.00,ENE,77,8.7,11.0,30,0.00,,---,0.00,VWS V14.00,2013-03-07 05:47:00,
2013-03-06 22:48:00,35.2,6.9,0.00,East,88,5.4,8.7,30,0.00,,---,0.00,VWS V14.00,2013-03-07 05:48:00,
2013-03-06 22:49:00,35.2,6.9,0.00,ESE,110,3.6,8.7,30,0.00,,---,0.00,VWS V14.00,2013-03-07 05:49:00,
2013-03-06 22:50:00,36.0,6.8,0.00,ESE,111,7.6,7.6,29,0.00,,---,0.00,VWS V14.00,2013-03-07 05:50:00,
2013-03-06 22:51:00,36.0,6.8,0.00,East,87,5.8,7.6,29,0.00,,---,0.00,VWS V14.00,2013-03-07 05:51:00,
2013-03-06 22:52:00,35.2,6.9,0.00,ESE,107,7.6,10.1,30,0.00,,---,0.00,VWS V14.00,2013-03-07 05:52:00,
2013-03-06 22:53:00,35.2,6.9,0.00,ESE,121,4.0,7.6,30,0.00,,---,0.00,VWS V14.00,2013-03-07 05:53:00,
2013-03-06 22:54:00,35.2,6.9,0.00,SE,126,4.0,6.3,30,0.00,,---,0.00,VWS V14.00,2013-03-07 05:54:00,
2013-03-06 22:55:00,35.8,6.7,0.00,East,95,8.1,13.2,29,0.00,,---,0.00,VWS V14.00,2013-03-07 05:55:00,
2013-03-06 22:56:00,35.8,6.7,0.00,ESE,115,8.3,13.2,29,0.00,,---,0.00,VWS V14.00,2013-03-07 05:56:00,
2013-03-06 22:57:00,35.1,6.8,0.00,ESE,102,6.3,8.1,30,0.00,,---,0.00,VWS V14.00,2013-03-07 05:57:00,
2013-03-06 22:58:00,35.1,6.8,0.00,SE,125,4.0,6.3,30,0.00,,---,0.00,VWS V14.00,2013-03-07 05:58:00,
2013-03-06 22:59:00,35.1,6.8,0.00,SE,137,5.4,5.8,30,0.00,,---,0.00,VWS V14.00,2013-03-07 05:59:00,
2013-03-06 23:00:00,35.1,6.8,0.00,SE,130,7.2,7.2,30,0.00,,---,0.00,VWS V14.00,2013-03-07 06:00:00,
2013-03-06 23:01:00,35.8,6.7,0.00,ESE,121,6.3,6.3,29,0.00,,---,0.00,VWS V14.00,2013-03-07 06:01:00,
2013-03-06 23:02:00,35.1,6.8,0.00,NE,45,6.7,8.3,30,0.00,,---,0.00,VWS V14.00,2013-03-07 06:02:00,
2013-03-06 23:03:00,35.1,6.8,0.00,ESE,116,3.1,6.7,30,0.00,,---,0.00,VWS V14.00,2013-03-07 06:03:00,
2013-03-06 23:04:00,35.1,6.8,0.00,SSE,158,5.8,11.0,30,0.00,,---,0.00,VWS V14.00,2013-03-07 06:04:00,
2013-03-06 23:05:00,35.1,6.8,0.00,ESE,117,5.8,8.3,30,0.00,,---,0.00,VWS V14.00,2013-03-07 06:05:00,
2013-03-06 23:06:00,35.8,6.7,0.00,SE,137,8.1,8.1,29,0.00,,---,0.00,VWS V14.00,2013-03-07 06:06:00,
2013-03-06 23:07:00,35.1,6.8,0.00,East,98,4.0,8.1,30,0.00,,---,0.00,VWS V14.00,2013-03-07 06:07:00,
2013-03-06 23:08:00,35.1,6.8,0.00,ESE,110,7.6,7.6,30,0.00,,---,0.00,VWS V14.00,2013-03-07 06:08:00,
2013-03-06 23:09:00,35.1,6.8,0.00,East,90,3.1,7.6,30,0.00,,---,0.00,VWS V14.00,2013-03-07 06:09:00,
2013-03-06 23:10:00,35.1,6.8,0.00,ESE,112,6.3,7.6,30,0.00,,---,0.00,VWS V14.00,2013-03-07 06:10:00,
2013-03-06 23:11:00,35.8,6.7,0.00,ENE,71,5.8,6.3,29,0.00,,---,0.00,VWS V14.00,2013-03-07 06:11:00,
2013-03-06 23:12:00,35.1,6.8,0.00,SSE,149,6.3,6.3,30,0.00,,---,0.00,VWS V14.00,2013-03-07 06:12:00,
2013-03-06 23:13:00,35.1,6.8,0.00,East,89,4.0,8.3,30,0.00,,---,0.00,VWS V14.00,2013-03-07 06:13:00,
2013-03-06 23:14:00,34.9,6.6,0.00,NNE,32,5.4,5.8,30,0.00,,---,0.00,VWS V14.00,2013-03-07 06:14:00,
2013-03-06 23:15:00,34.9,6.6,0.00,ENE,75,4.9,5.8,30,0.00,,---,0.00,VWS V14.00,2013-03-07 06:15:00,
2013-03-06 23:16:00,35.6,6.5,0.00,ENE,75,8.7,8.7,29,0.00,,---,0.00,VWS V14.00,2013-03-07 06:16:00,
2013-03-06 23:17:00,35.6,6.5,0.00,ENE,57,7.6,7.6,29,0.00,,---,0.00,VWS V14.00,2013-03-07 06:17:00,
2013-03-06 23:18:00,34.9,6.6,0.00,SE,124,3.1,8.1,30,0.00,,---,0.00,VWS V14.00,2013-03-07 06:18:00,
2013-03-06 23:19:00,34.9,6.6,0.00,SE,144,5.4,7.6,30,0.00,,---,0.00,VWS V14.00,2013-03-07 06:19:00,
2013-03-06 23:20:00,34.9,6.6,0.00,SE,125,6.3,6.3,30,0.00,,---,0.00,VWS V14.00,2013-03-07 06:20:00,
2013-03-06 23:21:00,35.6,6.5,0.00,SE,131,3.6,4.0,29,0.00,,---,0.00,VWS V14.00,2013-03-07 06:21:00,
2013-03-06 23:22:00,35.6,6.5,0.00,ESE,103,3.1,3.1,29,0.00,,---,0.00,VWS V14.00,2013-03-07 06:22:00,
2013-03-06 23:23:00,34.9,6.6,0.00,ESE,109,4.0,6.3,30,0.00,,---,0.00,VWS V14.00,2013-03-07 06:23:00,
2013-03-06 23:24:00,34.9,6.6,0.00,NE,38,5.8,5.8,30,0.00,,---,0.00,VWS V14.00,2013-03-07 06:24:00,
2013-03-06 23:25:00,34.9,6.6,0.00,ESE,114,2.7,5.8,30,0.00,,---,0.00,VWS V14.00,2013-03-07 06:25:00,
2013-03-06 23:26:00,35.4,7.1,0.00,ESE,103,8.3,8.3,30,0.00,,---,0.00,VWS V14.00,2013-03-07 06:26:00,
2013-03-06 23:27:00,35.4,7.1,0.00,ESE,119,7.6,9.6,30,0.00,,---,0.00,VWS V14.00,2013-03-07 06:27:00,
2013-03-06 23:28:00,34.7,6.4,0.00,ENE,61,5.4,6.3,30,0.00,,---,0.00,VWS V14.00,2013-03-07 06:28:00,
2013-03-06 23:29:00,34.7,6.4,0.00,SSE,153,3.1,5.4,30,0.00,,---,0.00,VWS V14.00,2013-03-07 06:29:00,
2013-03-06 23:30:00,34.7,6.4,0.00,East,86,5.4,5.8,30,0.00,,---,0.00,VWS V14.00,2013-03-07 06:30:00,
2013-03-06 23:31:00,35.4,7.1,0.00,ENE,74,6.3,6.3,30,0.00,,---,0.00,VWS V14.00,2013-03-07 06:31:00,
2013-03-06 23:32:00,35.4,7.1,0.00,ESE,104,5.8,6.3,30,0.00,,---,0.00,VWS V14.00,2013-03-07 06:32:00,
2013-03-06 23:33:00,34.7,6.4,0.00,SE,125,4.9,5.8,30,0.00,,---,0.00,VWS V14.00,2013-03-07 06:33:00,
2013-03-06 23:34:00,34.7,6.4,0.00,SE,143,11.4,11.4,30,0.00,,---,0.00,VWS V14.00,2013-03-07 06:34:00,
2013-03-06 23:35:00,34.7,6.4,0.00,SE,139,4.0,11.4,30,0.00,,---,0.00,VWS V14.00,2013-03-07 06:35:00,
2013-03-06 23:36:00,35.4,7.1,0.00,ENE,77,8.7,11.0,30,0.00,,---,0.00,VWS V14.00,2013-03-07 06:36:00,
2013-03-06 23:37:00,35.2,6.9,0.00,East,85,4.0,8.7,30,0.00,,---,0.00,VWS V14.00,2013-03-07 06:37:00,
2013-03-06 23:38:00,34.7,6.4,0.00,ESE,109,6.3,8.7,30,0.00,,---,0.00,VWS V14.00,2013-03-07 06:38:00,
2013-03-06 23:39:00,34.7,6.4,0.00,ESE,120,3.1,7.6,30,0.00,,---,0.00,VWS V14.00,2013-03-07 06:39:00,
2013-03-06 23:40:00,34.7,6.4,0.00,East,86,2.7,6.3,30,0.00,,---,0.00,VWS V14.00,2013-03-07 06:40:00,
2013-03-06 23:41:00,35.2,6.9,0.00,ESE,107,7.6,10.1,30,0.00,,---,0.00,VWS V14.00,2013-03-07 06:41:00,
2013-03-06 23:42:00,35.2,6.9,0.00,SE,124,5.8,7.6,30,0.00,,---,0.00,VWS V14.00,2013-03-07 06:42:00,
2013-03-06 23:43:00,34.7,6.4,0.00,East,88,5.8,5.8,30,0.00,,---,0.00,VWS V14.00,2013-03-07 06:43:00,
2013-03-06 23:44:00,34.7,6.4,0.00,ESE,102,2.7,5.8,30,0.00,,---,0.00,VWS V14.00,2013-03-07 06:44:00,
2013-03-06 23:45:00,34.7,6.4,0.00,East,89,4.0,4.0,30,0.00,,---,0.00,VWS V14.00,2013-03-07 06:45:00,
2013-03-06 23:46:00,34.7,6.4,0.00,ESE,120,10.5,10.5,30,0.00,,---,0.00,VWS V14.00,2013-03-07 06:46:00,
2013-03-06 23:47:00,35.1,6.8,0.00,ENE,62,4.0,6.3,30,0.00,,---,0.00,VWS V14.00,2013-03-07 06:47:00,
2013-03-06 23:48:00,34.7,6.4,0.00,ESE,108,3.1,7.6,30,0.00,,---,0.00,VWS V14.00,2013-03-07 06:48:00,
2013-03-06 23:49:00,34.7,6.4,0.00,SE,137,6.3,6.3,30,0.00,,---,0.00,VWS V14.00,2013-03-07 06:49:00,
2013-03-06 23:50:00,34.5,6.3,0.00,SSE,148,3.1,6.3,30,0.00,,---,0.00,VWS V14.00,2013-03-07 06:50:00,
2013-03-06 23:51:00,34.7,6.4,0.00,ENE,75,6.3,6.3,30,0.00,,---,0.00,VWS V14.00,2013-03-07 06:51:00,
2013-03-06 23:52:00,35.1,6.8,0.00,ESE,112,5.4,6.7,30,0.00,,---,0.00,VWS V14.00,2013-03-07 06:52:00,
2013-03-06 23:53:00,34.7,6.4,0.00,ESE,105,8.7,8.7,30,0.00,,---,0.00,VWS V14.00,2013-03-07 06:53:00,
2013-03-06 23:54:00,34.7,6.4,0.00,ESE,117,4.0,8.7,30,0.00,,---,0.00,VWS V14.00,2013-03-07 06:54:00,
2013-03-06 23:55:00,34.7,6.4,0.00,ESE,118,3.6,4.0,30,0.00,,---,0.00,VWS V14.00,2013-03-07 06:55:00,
2013-03-06 23:56:00,34.7,6.4,0.00,SE,131,0.0,3.6,30,0.00,,---,0.00,VWS V14.00,2013-03-07 06:56:00,
2013-03-06 23:57:00,35.1,6.8,0.00,SE,124,3.1,4.0,30,0.00,,---,0.00,VWS V14.00,2013-03-07 06:57:00,
2013-03-06 23:58:00,34.7,6.4,0.00,ENE,77,5.4,6.3,30,0.00,,---,0.00,VWS V14.00,2013-03-07 06:58:00,
2013-03-06 23:59:00,34.7,6.4,0.00,ENE,74,6.3,6.3,30,0.00,,---,0.00,VWS V14.00,2013-03-07 06:59:00,